Wetterdaten: Donnerstag, 28.09.2017
Datum Zeit Temp. A. Pool Temp. Feuchte A. Luftdruck Regen Wind Richtung Richtung Sonnenschein ET UV Solar Taupunkt Windchill Windben Empfang
28.09.2017 00:00 11,4 C 13,3 C 95 % 1023,0 hPa 0,0 l/m 3,1 km/h (1 Bft) NO 48 0 min 0,000 mm 0,0 UV-I 0 W/m 10,6 C 11,4 C 4,8 km/h (1 Bft) 100,00 %
28.09.2017 00:02 11,5 C 13,3 C 96 % 1023,0 hPa 0,0 l/m 4,2 km/h (1 Bft) NO 48 0 min 0,000 mm 0,0 UV-I 0 W/m 10,9 C 11,5 C 4,8 km/h (1 Bft) 100,00 %
28.09.2017 00:04 11,4 C 13,3 C 95 % 1023,0 hPa 0,0 l/m 3,8 km/h (1 Bft) SW 215 0 min 0,000 mm 0,0 UV-I 0 W/m 10,6 C 11,4 C 4,8 km/h (1 Bft) 100,00 %
28.09.2017 00:06 11,3 C 13,3 C 95 % 1023,0 hPa 0,0 l/m 1,4 km/h (1 Bft) SW 215 0 min 0,000 mm 0,0 UV-I 0 W/m 10,5 C 11,3 C 3,2 km/h (1 Bft) 98,00 %
28.09.2017 00:08 11,2 C 13,3 C 95 % 1023,0 hPa 0,0 l/m 0,9 km/h (0 Bft) SW 215 0 min 0,000 mm 0,0 UV-I 0 W/m 10,4 C 11,2 C 1,6 km/h (1 Bft) 100,00 %
28.09.2017 00:10 11,1 C 13,3 C 95 % 1023,0 hPa 0,0 l/m 1,1 km/h (1 Bft) SW 215 0 min 0,000 mm 0,0 UV-I 0 W/m 10,3 C 11,1 C 3,2 km/h (1 Bft) 100,00 %
28.09.2017 00:12 11,1 C 13,3 C 95 % 1023,0 hPa 0,0 l/m 2,0 km/h (1 Bft) SW 215 0 min 0,000 mm 0,0 UV-I 0 W/m 10,3 C 11,1 C 3,2 km/h (1 Bft) 97,92 %
28.09.2017 00:14 11,1 C 13,3 C 95 % 1023,1 hPa 0,0 l/m 2,4 km/h (1 Bft) SW 215 0 min 0,000 mm 0,0 UV-I 0 W/m 10,3 C 11,1 C 3,2 km/h (1 Bft) 100,00 %
28.09.2017 00:16 11,1 C 13,3 C 95 % 1023,1 hPa 0,0 l/m 2,7 km/h (1 Bft) SW 215 0 min 0,000 mm 0,0 UV-I 0 W/m 10,3 C 11,1 C 3,2 km/h (1 Bft) 98,00 %
28.09.2017 00:18 11,1 C 13,3 C 95 % 1023,0 hPa 0,0 l/m 2,3 km/h (1 Bft) SW 215 0 min 0,000 mm 0,0 UV-I 0 W/m 10,3 C 11,1 C 3,2 km/h (1 Bft) 97,44 %
28.09.2017 00:20 11,0 C 13,3 C 95 % 1023,1 hPa 0,0 l/m 0,3 km/h (0 Bft) SW 215 0 min 0,000 mm 0,0 UV-I 0 W/m 10,2 C 11,0 C 1,6 km/h (1 Bft) 100,00 %
28.09.2017 00:22 10,9 C 13,3 C 95 % 1023,1 hPa 0,0 l/m 0,0 km/h (0 Bft) SW 215 0 min 0,000 mm 0,0 UV-I 0 W/m 10,1 C 10,9 C 0,0 km/h (0 Bft) 100,00 %
28.09.2017 00:24 10,8 C 13,3 C 95 % 1023,1 hPa 0,0 l/m 0,0 km/h (0 Bft) SW 215 0 min 0,000 mm 0,0 UV-I 0 W/m 10,0 C 10,8 C 0,0 km/h (0 Bft) 97,56 %
28.09.2017 00:26 10,9 C 13,3 C 96 % 1023,1 hPa 0,0 l/m 0,0 km/h (0 Bft) SW 215 0 min 0,000 mm 0,0 UV-I 0 W/m 10,3 C 10,9 C 0,0 km/h (0 Bft) 98,00 %
28.09.2017 00:28 10,9 C 13,3 C 96 % 1023,0 hPa 0,0 l/m 0,0 km/h (0 Bft) SW 215 0 min 0,000 mm 0,0 UV-I 0 W/m 10,3 C 10,9 C 0,0 km/h (0 Bft) 98,00 %
28.09.2017 00:30 10,9 C 13,3 C 96 % 1023,1 hPa 0,0 l/m 0,2 km/h (0 Bft) SW 215 0 min 0,000 mm 0,0 UV-I 0 W/m 10,3 C 10,9 C 1,6 km/h (1 Bft) 95,74 %
28.09.2017 00:32 10,9 C 13,3 C 96 % 1023,1 hPa 0,0 l/m 1,7 km/h (1 Bft) SW 215 0 min 0,000 mm 0,0 UV-I 0 W/m 10,3 C 10,9 C 3,2 km/h (1 Bft) 100,00 %
28.09.2017 00:34 11,0 C 13,3 C 96 % 1023,1 hPa 0,0 l/m 1,0 km/h (0 Bft) SW 215 0 min 0,000 mm 0,0 UV-I 0 W/m 10,4 C 11,0 C 3,2 km/h (1 Bft) 96,23 %
28.09.2017 00:36 11,1 C 13,3 C 96 % 1023,2 hPa 0,0 l/m 0,0 km/h (0 Bft) SW 215 0 min 0,000 mm 0,0 UV-I 0 W/m 10,5 C 11,1 C 0,0 km/h (0 Bft) 97,87 %
28.09.2017 00:38 11,1 C 13,3 C 96 % 1023,2 hPa 0,0 l/m 1,4 km/h (1 Bft) SW 215 0 min 0,000 mm 0,0 UV-I 0 W/m 10,5 C 11,1 C 3,2 km/h (1 Bft) 97,87 %
28.09.2017 00:40 11,1 C 13,3 C 96 % 1023,2 hPa 0,0 l/m 2,3 km/h (1 Bft) SW 215 0 min 0,000 mm 0,0 UV-I 0 W/m 10,5 C 11,1 C 3,2 km/h (1 Bft) 97,56 %
28.09.2017 00:42 11,0 C 13,3 C 96 % 1023,2 hPa 0,0 l/m 2,7 km/h (1 Bft) SW 215 0 min 0,000 mm 0,0 UV-I 0 W/m 10,4 C 11,0 C 3,2 km/h (1 Bft) 97,87 %
28.09.2017 00:44 10,8 C 13,3 C 95 % 1023,2 hPa 0,0 l/m 1,3 km/h (1 Bft) SW 215 0 min 0,000 mm 0,0 UV-I 0 W/m 10,0 C 10,8 C 1,6 km/h (1 Bft) 97,73 %
28.09.2017 00:46 10,7 C 13,3 C 95 % 1023,2 hPa 0,0 l/m 0,1 km/h (0 Bft) SW 215 0 min 0,000 mm 0,0 UV-I 0 W/m 9,9 C 10,7 C 1,6 km/h (1 Bft) 98,11 %
28.09.2017 00:48 10,6 C 13,3 C 96 % 1023,2 hPa 0,0 l/m 0,0 km/h (0 Bft) SW 215 0 min 0,000 mm 0,0 UV-I 0 W/m 10,0 C 10,6 C 0,0 km/h (0 Bft) 93,62 %
28.09.2017 00:50 10,6 C 13,3 C 96 % 1023,2 hPa 0,0 l/m 0,0 km/h (0 Bft) SW 215 0 min 0,000 mm 0,0 UV-I 0 W/m 10,0 C 10,6 C 0,0 km/h (0 Bft) 97,56 %
28.09.2017 00:52 10,5 C 13,3 C 96 % 1023,2 hPa 0,0 l/m 0,0 km/h (0 Bft) SW 215 0 min 0,000 mm 0,0 UV-I 0 W/m 9,9 C 10,5 C 0,0 km/h (0 Bft) 95,74 %
28.09.2017 00:54 10,4 C 13,3 C 96 % 1023,2 hPa 0,0 l/m 0,0 km/h (0 Bft) SW 215 0 min 0,000 mm 0,0 UV-I 0 W/m 9,8 C 10,4 C 1,6 km/h (1 Bft) 97,92 %
28.09.2017 00:56 10,4 C 13,3 C 96 % 1023,2 hPa 0,0 l/m 0,1 km/h (0 Bft) SW 215 0 min 0,000 mm 0,0 UV-I 0 W/m 9,8 C 10,4 C 1,6 km/h (1 Bft) 97,87 %
28.09.2017 00:58 10,4 C 13,3 C 96 % 1023,2 hPa 0,0 l/m 1,2 km/h (1 Bft) SW 215 0 min 0,000 mm 0,0 UV-I 0 W/m 9,8 C 10,4 C 1,6 km/h (1 Bft) 96,23 %
28.09.2017 01:00 10,4 C 13,3 C 96 % 1023,3 hPa 0,0 l/m 2,5 km/h (1 Bft) SW 215 0 min 0,000 mm 0,0 UV-I 0 W/m 9,8 C 10,4 C 3,2 km/h (1 Bft) 97,37 %
28.09.2017 01:02 10,4 C 13,3 C 96 % 1023,3 hPa 0,0 l/m 2,3 km/h (1 Bft) SW 215 0 min 0,000 mm 0,0 UV-I 0 W/m 9,8 C 10,4 C 3,2 km/h (1 Bft) 96,00 %
28.09.2017 01:04 10,4 C 13,3 C 96 % 1023,2 hPa 0,0 l/m 2,1 km/h (1 Bft) SW 215 0 min 0,000 mm 0,0 UV-I 0 W/m 9,8 C 10,4 C 3,2 km/h (1 Bft) 100,00 %
28.09.2017 01:06 10,3 C 13,3 C 96 % 1023,2 hPa 0,0 l/m 1,2 km/h (1 Bft) SW 215 0 min 0,000 mm 0,0 UV-I 0 W/m 9,7 C 10,3 C 3,2 km/h (1 Bft) 100,00 %
28.09.2017 01:08 10,3 C 13,3 C 96 % 1023,2 hPa 0,0 l/m 0,0 km/h (0 Bft) SW 215 0 min 0,000 mm 0,0 UV-I 0 W/m 9,7 C 10,3 C 1,6 km/h (1 Bft) 100,00 %
28.09.2017 01:10 10,2 C 13,3 C 96 % 1023,3 hPa 0,0 l/m 0,1 km/h (0 Bft) SW 215 0 min 0,000 mm 0,0 UV-I 0 W/m 9,6 C 10,2 C 1,6 km/h (1 Bft) 100,00 %
28.09.2017 01:12 10,2 C 13,3 C 96 % 1023,2 hPa 0,0 l/m 0,0 km/h (0 Bft) SW 215 0 min 0,000 mm 0,0 UV-I 0 W/m 9,6 C 10,2 C 0,0 km/h (0 Bft) 100,00 %
28.09.2017 01:14 10,2 C 13,3 C 96 % 1023,3 hPa 0,0 l/m 0,0 km/h (0 Bft) SW 215 0 min 0,000 mm 0,0 UV-I 0 W/m 9,6 C 10,2 C 0,0 km/h (0 Bft) 98,11 %
28.09.2017 01:16 10,2 C 13,3 C 96 % 1023,3 hPa 0,0 l/m 0,4 km/h (0 Bft) SW 215 0 min 0,000 mm 0,0 UV-I 0 W/m 9,6 C 10,2 C 1,6 km/h (1 Bft) 100,00 %
28.09.2017 01:18 10,3 C 13,3 C 96 % 1023,3 hPa 0,0 l/m 0,2 km/h (0 Bft) SW 215 0 min 0,000 mm 0,0 UV-I 0 W/m 9,7 C 10,3 C 1,6 km/h (1 Bft) 100,00 %
28.09.2017 01:20 10,3 C 13,3 C 96 % 1023,3 hPa 0,0 l/m 0,0 km/h (0 Bft) SW 215 0 min 0,000 mm 0,0 UV-I 0 W/m 9,7 C 10,3 C 1,6 km/h (1 Bft) 98,11 %
28.09.2017 01:22 10,3 C 13,3 C 96 % 1023,3 hPa 0,0 l/m 0,1 km/h (0 Bft) SW 215 0 min 0,000 mm 0,0 UV-I 0 W/m 9,7 C 10,3 C 1,6 km/h (1 Bft) 97,56 %
28.09.2017 01:24 10,2 C 13,3 C 96 % 1023,3 hPa 0,0 l/m 1,2 km/h (1 Bft) SW 215 0 min 0,000 mm 0,0 UV-I 0 W/m 9,6 C 10,2 C 1,6 km/h (1 Bft) 100,00 %
28.09.2017 01:26 10,1 C 13,3 C 96 % 1023,4 hPa 0,0 l/m 0,5 km/h (0 Bft) SW 215 0 min 0,000 mm 0,0 UV-I 0 W/m 9,5 C 10,1 C 1,6 km/h (1 Bft) 97,87 %
28.09.2017 01:28 10,1 C 13,3 C 96 % 1023,4 hPa 0,0 l/m 0,0 km/h (0 Bft) SW 215 0 min 0,000 mm 0,0 UV-I 0 W/m 9,5 C 10,1 C 0,0 km/h (0 Bft) 100,00 %
28.09.2017 01:30 10,1 C 13,3 C 96 % 1023,4 hPa 0,0 l/m 0,0 km/h (0 Bft) SW 215 0 min 0,000 mm 0,0 UV-I 0 W/m 9,5 C 10,1 C 0,0 km/h (0 Bft) 97,87 %
28.09.2017 01:32 10,1 C 13,3 C 96 % 1023,5 hPa 0,0 l/m 0,0 km/h (0 Bft) SW 215 0 min 0,000 mm 0,0 UV-I 0 W/m 9,5 C 10,1 C 0,0 km/h (0 Bft) 97,87 %
28.09.2017 01:34 10,1 C 13,3 C 96 % 1023,4 hPa 0,0 l/m 0,0 km/h (0 Bft) SW 215 0 min 0,000 mm 0,0 UV-I 0 W/m 9,5 C 10,1 C 0,0 km/h (0 Bft) 97,44 %
28.09.2017 01:36 10,0 C 13,3 C 96 % 1023,5 hPa 0,0 l/m 0,0 km/h (0 Bft) SW 215 0 min 0,000 mm 0,0 UV-I 0 W/m 9,4 C 10,0 C 1,6 km/h (1 Bft) 98,00 %
28.09.2017 01:38 9,9 C 13,3 C 96 % 1023,5 hPa 0,0 l/m 0,1 km/h (0 Bft) SW 215 0 min 0,000 mm 0,0 UV-I 0 W/m 9,3 C 9,9 C 3,2 km/h (1 Bft) 98,00 %
28.09.2017 01:40 9,9 C 13,3 C 96 % 1023,6 hPa 0,0 l/m 2,2 km/h (1 Bft) SW 215 0 min 0,000 mm 0,0 UV-I 0 W/m 9,3 C 9,9 C 3,2 km/h (1 Bft) 96,00 %
28.09.2017 01:42 9,8 C 13,3 C 96 % 1023,6 hPa 0,0 l/m 1,9 km/h (1 Bft) SW 215 0 min 0,000 mm 0,0 UV-I 0 W/m 9,2 C 9,8 C 3,2 km/h (1 Bft) 97,37 %
28.09.2017 01:44 9,9 C 13,3 C 96 % 1023,7 hPa 0,0 l/m 1,7 km/h (1 Bft) SW 215 0 min 0,000 mm 0,0 UV-I 0 W/m 9,3 C 9,9 C 3,2 km/h (1 Bft) 96,43 %
28.09.2017 01:46 9,9 C 13,3 C 96 % 1023,6 hPa 0,0 l/m 1,6 km/h (1 Bft) SW 215 0 min 0,000 mm 0,0 UV-I 0 W/m 9,3 C 9,9 C 3,2 km/h (1 Bft) 97,37 %
28.09.2017 01:48 9,9 C 13,3 C 96 % 1023,6 hPa 0,0 l/m 2,1 km/h (1 Bft) SW 215 0 min 0,000 mm 0,0 UV-I 0 W/m 9,3 C 9,9 C 3,2 km/h (1 Bft) 96,00 %
28.09.2017 01:50 9,9 C 13,3 C 96 % 1023,6 hPa 0,0 l/m 2,9 km/h (1 Bft) SW 215 0 min 0,000 mm 0,0 UV-I 0 W/m 9,3 C 9,9 C 3,2 km/h (1 Bft) 97,87 %
28.09.2017 01:52 9,9 C 13,3 C 96 % 1023,6 hPa 0,0 l/m 2,5 km/h (1 Bft) SW 215 0 min 0,000 mm 0,0 UV-I 0 W/m 9,3 C 9,9 C 3,2 km/h (1 Bft) 96,08 %
28.09.2017 01:54 9,8 C 13,3 C 96 % 1023,6 hPa 0,0 l/m 2,3 km/h (1 Bft) SW 215 0 min 0,000 mm 0,0 UV-I 0 W/m 9,2 C 9,8 C 3,2 km/h (1 Bft) 97,87 %
28.09.2017 01:56 9,7 C 13,3 C 96 % 1023,6 hPa 0,0 l/m 1,6 km/h (1 Bft) SW 215 0 min 0,000 mm 0,0 UV-I 0 W/m 9,1 C 9,7 C 3,2 km/h (1 Bft) 97,56 %
28.09.2017 01:58 9,6 C 13,3 C 96 % 1023,6 hPa 0,0 l/m 3,6 km/h (1 Bft) SW 215 0 min 0,000 mm 0,0 UV-I 0 W/m 9,0 C 9,6 C 4,8 km/h (1 Bft) 97,87 %
28.09.2017 02:00 9,7 C 13,3 C 96 % 1023,7 hPa 0,0 l/m 3,5 km/h (1 Bft) SW 215 0 min 0,000 mm 0,0 UV-I 0 W/m 9,1 C 9,7 C 4,8 km/h (1 Bft) 98,00 %
28.09.2017 02:02 9,8 C 13,3 C 96 % 1023,6 hPa 0,0 l/m 2,9 km/h (1 Bft) SW 215 0 min 0,000 mm 0,0 UV-I 0 W/m 9,2 C 9,8 C 4,8 km/h (1 Bft) 98,00 %
28.09.2017 02:04 9,9 C 13,3 C 96 % 1023,6 hPa 0,0 l/m 2,6 km/h (1 Bft) SW 215 0 min 0,000 mm 0,0 UV-I 0 W/m 9,3 C 9,9 C 4,8 km/h (1 Bft) 97,37 %
28.09.2017 02:06 10,0 C 13,3 C 96 % 1023,6 hPa 0,0 l/m 2,7 km/h (1 Bft) SW 215 0 min 0,000 mm 0,0 UV-I 0 W/m 9,4 C 10,0 C 3,2 km/h (1 Bft) 98,00 %
28.09.2017 02:08 10,1 C 13,3 C 97 % 1023,7 hPa 0,0 l/m 3,4 km/h (1 Bft) SW 215 0 min 0,000 mm 0,0 UV-I 0 W/m 9,6 C 10,1 C 4,8 km/h (1 Bft) 96,23 %
28.09.2017 02:10 10,0 C 13,3 C 96 % 1023,7 hPa 0,0 l/m 4,1 km/h (1 Bft) SW 214 0 min 0,000 mm 0,0 UV-I 0 W/m 9,4 C 10,0 C 6,4 km/h (2 Bft) 97,44 %
28.09.2017 02:12 9,9 C 13,3 C 96 % 1023,7 hPa 0,0 l/m 1,3 km/h (1 Bft) SW 214 0 min 0,000 mm 0,0 UV-I 0 W/m 9,3 C 9,9 C 3,2 km/h (1 Bft) 100,00 %
28.09.2017 02:14 9,9 C 13,3 C 96 % 1023,7 hPa 0,0 l/m 0,1 km/h (0 Bft) SW 214 0 min 0,000 mm 0,0 UV-I 0 W/m 9,3 C 9,9 C 1,6 km/h (1 Bft) 96,88 %
28.09.2017 02:16 9,8 C 13,3 C 96 % 1023,7 hPa 0,0 l/m 2,0 km/h (1 Bft) SW 214 0 min 0,000 mm 0,0 UV-I 0 W/m 9,2 C 9,8 C 4,8 km/h (1 Bft) 97,22 %
28.09.2017 02:18 9,8 C 13,3 C 96 % 1023,7 hPa 0,0 l/m 2,9 km/h (1 Bft) SW 214 0 min 0,000 mm 0,0 UV-I 0 W/m 9,2 C 9,8 C 4,8 km/h (1 Bft) 98,00 %
28.09.2017 02:20 9,7 C 13,3 C 96 % 1023,7 hPa 0,0 l/m 2,5 km/h (1 Bft) SW 214 0 min 0,000 mm 0,0 UV-I 0 W/m 9,1 C 9,7 C 4,8 km/h (1 Bft) 97,87 %
28.09.2017 02:22 9,7 C 13,3 C 96 % 1023,7 hPa 0,0 l/m 0,4 km/h (0 Bft) SW 214 0 min 0,000 mm 0,0 UV-I 0 W/m 9,1 C 9,7 C 3,2 km/h (1 Bft) 97,87 %
28.09.2017 02:24 9,7 C 13,3 C 96 % 1023,6 hPa 0,0 l/m 0,0 km/h (0 Bft) SW 214 0 min 0,000 mm 0,0 UV-I 0 W/m 9,1 C 9,7 C 1,6 km/h (1 Bft) 95,74 %
28.09.2017 02:26 9,7 C 13,3 C 96 % 1023,7 hPa 0,0 l/m 0,0 km/h (0 Bft) SW 214 0 min 0,000 mm 0,0 UV-I 0 W/m 9,1 C 9,7 C 1,6 km/h (1 Bft) 98,11 %
28.09.2017 02:28 9,7 C 13,3 C 96 % 1023,7 hPa 0,0 l/m 0,4 km/h (0 Bft) SW 214 0 min 0,000 mm 0,0 UV-I 0 W/m 9,1 C 9,7 C 1,6 km/h (1 Bft) 97,56 %
28.09.2017 02:30 9,7 C 13,3 C 97 % 1023,7 hPa 0,0 l/m 2,6 km/h (1 Bft) SW 214 0 min 0,000 mm 0,0 UV-I 0 W/m 9,2 C 9,7 C 4,8 km/h (1 Bft) 100,00 %
28.09.2017 02:32 9,8 C 13,3 C 97 % 1023,7 hPa 0,0 l/m 3,6 km/h (1 Bft) SW 214 0 min 0,000 mm 0,0 UV-I 0 W/m 9,3 C 9,8 C 4,8 km/h (1 Bft) 100,00 %
28.09.2017 02:34 9,8 C 13,3 C 97 % 1023,8 hPa 0,0 l/m 4,3 km/h (1 Bft) SW 215 0 min 0,000 mm 0,0 UV-I 0 W/m 9,3 C 9,8 C 4,8 km/h (1 Bft) 98,00 %
28.09.2017 02:36 9,8 C 13,3 C 97 % 1023,8 hPa 0,0 l/m 6,2 km/h (2 Bft) S-SW 208 0 min 0,000 mm 0,0 UV-I 0 W/m 9,3 C 9,8 C 9,7 km/h (2 Bft) 100,00 %
28.09.2017 02:38 9,7 C 13,3 C 96 % 1023,8 hPa 0,0 l/m 5,3 km/h (1 Bft) S-SW 194 0 min 0,000 mm 0,0 UV-I 0 W/m 9,1 C 9,7 C 8,0 km/h (2 Bft) 100,00 %
28.09.2017 02:40 9,6 C 13,3 C 96 % 1023,7 hPa 0,0 l/m 5,1 km/h (1 Bft) S-SW 211 0 min 0,000 mm 0,0 UV-I 0 W/m 9,0 C 9,6 C 6,4 km/h (2 Bft) 97,87 %
28.09.2017 02:42 9,6 C 13,3 C 96 % 1023,8 hPa 0,0 l/m 4,6 km/h (1 Bft) S-SW 211 0 min 0,000 mm 0,0 UV-I 0 W/m 9,0 C 9,6 C 6,4 km/h (2 Bft) 97,73 %
28.09.2017 02:44 9,6 C 13,3 C 96 % 1023,8 hPa 0,0 l/m 2,0 km/h (1 Bft) S-SW 211 0 min 0,000 mm 0,0 UV-I 0 W/m 9,0 C 9,6 C 4,8 km/h (1 Bft) 98,00 %
28.09.2017 02:46 9,6 C 13,3 C 96 % 1023,8 hPa 0,0 l/m 2,8 km/h (1 Bft) S-SW 211 0 min 0,000 mm 0,0 UV-I 0 W/m 9,0 C 9,6 C 4,8 km/h (1 Bft) 97,56 %
28.09.2017 02:48 9,7 C 13,3 C 97 % 1023,8 hPa 0,0 l/m 3,5 km/h (1 Bft) S-SW 211 0 min 0,000 mm 0,0 UV-I 0 W/m 9,2 C 9,7 C 4,8 km/h (1 Bft) 98,11 %
28.09.2017 02:50 9,7 C 13,3 C 97 % 1023,8 hPa 0,0 l/m 3,0 km/h (1 Bft) S-SW 211 0 min 0,000 mm 0,0 UV-I 0 W/m 9,2 C 9,7 C 4,8 km/h (1 Bft) 95,74 %
28.09.2017 02:52 9,7 C 13,3 C 97 % 1023,8 hPa 0,0 l/m 2,1 km/h (1 Bft) S-SW 211 0 min 0,000 mm 0,0 UV-I 0 W/m 9,2 C 9,7 C 3,2 km/h (1 Bft) 95,83 %
28.09.2017 02:54 9,8 C 13,3 C 97 % 1023,8 hPa 0,0 l/m 2,3 km/h (1 Bft) S-SW 211 0 min 0,000 mm 0,0 UV-I 0 W/m 9,3 C 9,8 C 3,2 km/h (1 Bft) 97,37 %
28.09.2017 02:56 9,8 C 13,3 C 97 % 1023,8 hPa 0,0 l/m 3,4 km/h (1 Bft) S-SW 211 0 min 0,000 mm 0,0 UV-I 0 W/m 9,3 C 9,8 C 4,8 km/h (1 Bft) 98,00 %
28.09.2017 02:58 9,8 C 13,3 C 97 % 1023,7 hPa 0,0 l/m 3,2 km/h (1 Bft) S-SW 211 0 min 0,000 mm 0,0 UV-I 0 W/m 9,3 C 9,8 C 4,8 km/h (1 Bft) 98,00 %
28.09.2017 03:00 9,9 C 13,3 C 97 % 1023,7 hPa 0,0 l/m 3,9 km/h (1 Bft) S-SW 211 0 min 0,000 mm 0,0 UV-I 0 W/m 9,4 C 9,9 C 6,4 km/h (2 Bft) 96,00 %
28.09.2017 03:02 9,9 C 13,3 C 97 % 1023,7 hPa 0,0 l/m 3,5 km/h (1 Bft) S-SW 209 0 min 0,000 mm 0,0 UV-I 0 W/m 9,4 C 9,9 C 6,4 km/h (2 Bft) 97,56 %
28.09.2017 03:04 9,9 C 13,3 C 97 % 1023,7 hPa 0,0 l/m 5,4 km/h (1 Bft) S-SW 211 0 min 0,000 mm 0,0 UV-I 0 W/m 9,4 C 9,9 C 6,4 km/h (2 Bft) 97,87 %
28.09.2017 03:06 10,0 C 13,3 C 97 % 1023,7 hPa 0,0 l/m 3,6 km/h (1 Bft) S-SW 211 0 min 0,000 mm 0,0 UV-I 0 W/m 9,5 C 10,0 C 4,8 km/h (1 Bft) 97,87 %
28.09.2017 03:08 10,0 C 13,3 C 97 % 1023,7 hPa 0,0 l/m 4,0 km/h (1 Bft) S-SW 211 0 min 0,000 mm 0,0 UV-I 0 W/m 9,5 C 10,0 C 6,4 km/h (2 Bft) 97,73 %
28.09.2017 03:10 10,0 C 13,3 C 97 % 1023,7 hPa 0,0 l/m 4,2 km/h (1 Bft) SW 223 0 min 0,000 mm 0,0 UV-I 0 W/m 9,5 C 10,0 C 6,4 km/h (2 Bft) 96,00 %
28.09.2017 03:12 10,0 C 13,3 C 97 % 1023,7 hPa 0,0 l/m 3,8 km/h (1 Bft) SW 223 0 min 0,000 mm 0,0 UV-I 0 W/m 9,5 C 10,0 C 6,4 km/h (2 Bft) 97,56 %
28.09.2017 03:14 10,1 C 13,3 C 97 % 1023,7 hPa 0,0 l/m 3,0 km/h (1 Bft) SW 221 0 min 0,000 mm 0,0 UV-I 0 W/m 9,6 C 10,1 C 4,8 km/h (1 Bft) 98,00 %
28.09.2017 03:16 10,1 C 13,3 C 97 % 1023,7 hPa 0,0 l/m 5,0 km/h (1 Bft) SW 221 0 min 0,000 mm 0,0 UV-I 0 W/m 9,6 C 10,1 C 6,4 km/h (2 Bft) 100,00 %
28.09.2017 03:18 10,1 C 13,3 C 97 % 1023,7 hPa 0,0 l/m 3,4 km/h (1 Bft) SW 221 0 min 0,000 mm 0,0 UV-I 0 W/m 9,6 C 10,1 C 6,4 km/h (2 Bft) 100,00 %
28.09.2017 03:20 10,1 C 13,3 C 97 % 1023,7 hPa 0,0 l/m 3,8 km/h (1 Bft) SW 221 0 min 0,000 mm 0,0 UV-I 0 W/m 9,6 C 10,1 C 6,4 km/h (2 Bft) 100,00 %
28.09.2017 03:22 10,1 C 13,3 C 97 % 1023,7 hPa 0,0 l/m 4,9 km/h (1 Bft) SW 214 0 min 0,000 mm 0,0 UV-I 0 W/m 9,6 C 10,1 C 8,0 km/h (2 Bft) 100,00 %
28.09.2017 03:24 10,1 C 13,3 C 97 % 1023,7 hPa 0,0 l/m 3,7 km/h (1 Bft) SW 214 0 min 0,000 mm 0,0 UV-I 0 W/m 9,6 C 10,1 C 4,8 km/h (1 Bft) 100,00 %
28.09.2017 03:26 10,1 C 13,3 C 97 % 1023,7 hPa 0,0 l/m 4,2 km/h (1 Bft) SW 215 0 min 0,000 mm 0,0 UV-I 0 W/m 9,6 C 10,1 C 6,4 km/h (2 Bft) 100,00 %
28.09.2017 03:28 10,1 C 13,3 C 97 % 1023,7 hPa 0,0 l/m 3,1 km/h (1 Bft) SW 215 0 min 0,000 mm 0,0 UV-I 0 W/m 9,6 C 10,1 C 6,4 km/h (2 Bft) 100,00 %
28.09.2017 03:30 10,1 C 13,3 C 97 % 1023,7 hPa 0,0 l/m 2,2 km/h (1 Bft) SW 215 0 min 0,000 mm 0,0 UV-I 0 W/m 9,6 C 10,1 C 3,2 km/h (1 Bft) 100,00 %
28.09.2017 03:32 10,2 C 13,3 C 97 % 1023,8 hPa 0,0 l/m 2,0 km/h (1 Bft) SW 215 0 min 0,000 mm 0,0 UV-I 0 W/m 9,7 C 10,2 C 3,2 km/h (1 Bft) 93,62 %
28.09.2017 03:34 10,2 C 13,3 C 97 % 1023,7 hPa 0,0 l/m 3,5 km/h (1 Bft) SW 215 0 min 0,000 mm 0,0 UV-I 0 W/m 9,7 C 10,2 C 4,8 km/h (1 Bft) 97,87 %
28.09.2017 03:36 10,2 C 13,3 C 97 % 1023,7 hPa 0,0 l/m 2,7 km/h (1 Bft) SW 215 0 min 0,000 mm 0,0 UV-I 0 W/m 9,7 C 10,2 C 4,8 km/h (1 Bft) 100,00 %
28.09.2017 03:38 10,2 C 13,3 C 97 % 1023,7 hPa 0,0 l/m 2,5 km/h (1 Bft) SW 215 0 min 0,000 mm 0,0 UV-I 0 W/m 9,7 C 10,2 C 4,8 km/h (1 Bft) 97,87 %
28.09.2017 03:40 10,2 C 13,3 C 97 % 1023,7 hPa 0,0 l/m 2,0 km/h (1 Bft) SW 215 0 min 0,000 mm 0,0 UV-I 0 W/m 9,7 C 10,2 C 3,2 km/h (1 Bft) 100,00 %
28.09.2017 03:42 10,2 C 13,3 C 97 % 1023,7 hPa 0,0 l/m 2,7 km/h (1 Bft) SW 215 0 min 0,000 mm 0,0 UV-I 0 W/m 9,7 C 10,2 C 4,8 km/h (1 Bft) 100,00 %
28.09.2017 03:44 10,3 C 13,3 C 97 % 1023,7 hPa 0,0 l/m 3,1 km/h (1 Bft) SW 215 0 min 0,000 mm 0,0 UV-I 0 W/m 9,8 C 10,3 C 4,8 km/h (1 Bft) 100,00 %
28.09.2017 03:46 10,3 C 13,3 C 97 % 1023,7 hPa 0,0 l/m 2,5 km/h (1 Bft) SW 215 0 min 0,000 mm 0,0 UV-I 0 W/m 9,8 C 10,3 C 3,2 km/h (1 Bft) 100,00 %
28.09.2017 03:48 10,3 C 13,3 C 97 % 1023,7 hPa 0,0 l/m 3,3 km/h (1 Bft) SW 215 0 min 0,000 mm 0,0 UV-I 0 W/m 9,8 C 10,3 C 6,4 km/h (2 Bft) 100,00 %
28.09.2017 03:50 10,3 C 13,3 C 97 % 1023,7 hPa 0,0 l/m 3,7 km/h (1 Bft) SW 215 0 min 0,000 mm 0,0 UV-I 0 W/m 9,8 C 10,3 C 4,8 km/h (1 Bft) 100,00 %
28.09.2017 03:52 10,4 C 13,3 C 97 % 1023,7 hPa 0,0 l/m 2,2 km/h (1 Bft) SW 215 0 min 0,000 mm 0,0 UV-I 0 W/m 9,9 C 10,4 C 3,2 km/h (1 Bft) 100,00 %
28.09.2017 03:54 10,4 C 13,3 C 97 % 1023,7 hPa 0,0 l/m 2,7 km/h (1 Bft) SW 215 0 min 0,000 mm 0,0 UV-I 0 W/m 9,9 C 10,4 C 4,8 km/h (1 Bft) 100,00 %
28.09.2017 03:56 10,4 C 13,3 C 97 % 1023,6 hPa 0,0 l/m 2,4 km/h (1 Bft) SW 215 0 min 0,000 mm 0,0 UV-I 0 W/m 9,9 C 10,4 C 4,8 km/h (1 Bft) 100,00 %
28.09.2017 03:58 10,4 C 13,3 C 97 % 1023,7 hPa 0,0 l/m 3,6 km/h (1 Bft) SW 215 0 min 0,000 mm 0,0 UV-I 0 W/m 9,9 C 10,4 C 4,8 km/h (1 Bft) 100,00 %
28.09.2017 04:00 10,4 C 13,3 C 97 % 1023,7 hPa 0,0 l/m 2,7 km/h (1 Bft) SW 215 0 min 0,000 mm 0,0 UV-I 0 W/m 9,9 C 10,4 C 4,8 km/h (1 Bft) 100,00 %
28.09.2017 04:02 10,4 C 13,3 C 97 % 1023,7 hPa 0,0 l/m 1,4 km/h (1 Bft) SW 215 0 min 0,000 mm 0,0 UV-I 0 W/m 9,9 C 10,4 C 3,2 km/h (1 Bft) 100,00 %
28.09.2017 04:04 10,5 C 13,3 C 97 % 1023,7 hPa 0,0 l/m 1,2 km/h (1 Bft) SW 215 0 min 0,000 mm 0,0 UV-I 0 W/m 10,0 C 10,5 C 3,2 km/h (1 Bft) 100,00 %
28.09.2017 04:06 10,5 C 13,3 C 97 % 1023,7 hPa 0,0 l/m 0,1 km/h (0 Bft) SW 215 0 min 0,000 mm 0,0 UV-I 0 W/m 10,0 C 10,5 C 1,6 km/h (1 Bft) 100,00 %
28.09.2017 04:08 10,5 C 13,3 C 97 % 1023,7 hPa 0,0 l/m 0,5 km/h (0 Bft) SW 215 0 min 0,000 mm 0,0 UV-I 0 W/m 10,0 C 10,5 C 3,2 km/h (1 Bft) 100,00 %
28.09.2017 04:10 10,5 C 13,3 C 97 % 1023,7 hPa 0,0 l/m 1,0 km/h (0 Bft) SW 215 0 min 0,000 mm 0,0 UV-I 0 W/m 10,0 C 10,5 C 3,2 km/h (1 Bft) 100,00 %
28.09.2017 04:12 10,5 C 13,3 C 97 % 1023,6 hPa 0,0 l/m 0,5 km/h (0 Bft) SW 215 0 min 0,000 mm 0,0 UV-I 0 W/m 10,0 C 10,5 C 1,6 km/h (1 Bft) 100,00 %
28.09.2017 04:14 10,5 C 13,3 C 97 % 1023,6 hPa 0,0 l/m 0,0 km/h (0 Bft) SW 215 0 min 0,000 mm 0,0 UV-I 0 W/m 10,0 C 10,5 C 1,6 km/h (1 Bft) 97,62 %
28.09.2017 04:16 10,6 C 13,3 C 97 % 1023,6 hPa 0,0 l/m 0,5 km/h (0 Bft) SW 215 0 min 0,000 mm 0,0 UV-I 0 W/m 10,1 C 10,6 C 1,6 km/h (1 Bft) 100,00 %
28.09.2017 04:18 10,6 C 13,3 C 97 % 1023,6 hPa 0,0 l/m 0,2 km/h (0 Bft) SW 215 0 min 0,000 mm 0,0 UV-I 0 W/m 10,1 C 10,6 C 1,6 km/h (1 Bft) 100,00 %
28.09.2017 04:20 10,6 C 13,3 C 97 % 1023,6 hPa 0,0 l/m 1,6 km/h (1 Bft) SW 215 0 min 0,000 mm 0,0 UV-I 0 W/m 10,1 C 10,6 C 3,2 km/h (1 Bft) 100,00 %
28.09.2017 04:22 10,6 C 13,3 C 97 % 1023,6 hPa 0,0 l/m 1,4 km/h (1 Bft) SW 215 0 min 0,000 mm 0,0 UV-I 0 W/m 10,1 C 10,6 C 3,2 km/h (1 Bft) 100,00 %
28.09.2017 04:24 10,6 C 13,3 C 97 % 1023,6 hPa 0,0 l/m 3,1 km/h (1 Bft) SW 215 0 min 0,000 mm 0,0 UV-I 0 W/m 10,1 C 10,6 C 4,8 km/h (1 Bft) 100,00 %
28.09.2017 04:26 10,7 C 13,3 C 97 % 1023,7 hPa 0,0 l/m 1,1 km/h (1 Bft) SW 215 0 min 0,000 mm 0,0 UV-I 0 W/m 10,2 C 10,7 C 3,2 km/h (1 Bft) 100,00 %
28.09.2017 04:28 10,7 C 13,3 C 97 % 1023,7 hPa 0,0 l/m 0,2 km/h (0 Bft) SW 215 0 min 0,000 mm 0,0 UV-I 0 W/m 10,2 C 10,7 C 1,6 km/h (1 Bft) 100,00 %
28.09.2017 04:30 10,7 C 13,3 C 97 % 1023,6 hPa 0,0 l/m 0,1 km/h (0 Bft) SW 215 0 min 0,000 mm 0,0 UV-I 0 W/m 10,2 C 10,7 C 1,6 km/h (1 Bft) 96,23 %
28.09.2017 04:32 10,7 C 13,3 C 97 % 1023,6 hPa 0,0 l/m 0,0 km/h (0 Bft) SW 215 0 min 0,000 mm 0,0 UV-I 0 W/m 10,2 C 10,7 C 1,6 km/h (1 Bft) 98,11 %
28.09.2017 04:34 10,7 C 13,3 C 97 % 1023,6 hPa 0,0 l/m 2,0 km/h (1 Bft) SW 215 0 min 0,000 mm 0,0 UV-I 0 W/m 10,2 C 10,7 C 4,8 km/h (1 Bft) 100,00 %
28.09.2017 04:36 10,7 C 13,3 C 97 % 1023,6 hPa 0,0 l/m 3,3 km/h (1 Bft) SW 215 0 min 0,000 mm 0,0 UV-I 0 W/m 10,2 C 10,7 C 4,8 km/h (1 Bft) 100,00 %
28.09.2017 04:38 10,7 C 13,3 C 97 % 1023,7 hPa 0,0 l/m 3,1 km/h (1 Bft) SW 215 0 min 0,000 mm 0,0 UV-I 0 W/m 10,2 C 10,7 C 4,8 km/h (1 Bft) 100,00 %
28.09.2017 04:40 10,7 C 13,3 C 97 % 1023,7 hPa 0,0 l/m 0,8 km/h (0 Bft) SW 215 0 min 0,000 mm 0,0 UV-I 0 W/m 10,2 C 10,7 C 3,2 km/h (1 Bft) 98,00 %
28.09.2017 04:42 10,7 C 13,3 C 97 % 1023,7 hPa 0,0 l/m 1,2 km/h (1 Bft) SW 215 0 min 0,000 mm 0,0 UV-I 0 W/m 10,2 C 10,7 C 4,8 km/h (1 Bft) 97,37 %
28.09.2017 04:44 10,7 C 13,3 C 97 % 1023,7 hPa 0,0 l/m 1,2 km/h (1 Bft) SW 215 0 min 0,000 mm 0,0 UV-I 0 W/m 10,2 C 10,7 C 3,2 km/h (1 Bft) 98,11 %
28.09.2017 04:46 10,7 C 13,3 C 97 % 1023,7 hPa 0,0 l/m 1,6 km/h (1 Bft) SW 215 0 min 0,000 mm 0,0 UV-I 0 W/m 10,2 C 10,7 C 3,2 km/h (1 Bft) 97,22 %
28.09.2017 04:48 10,7 C 13,3 C 97 % 1023,7 hPa 0,0 l/m 2,4 km/h (1 Bft) SW 215 0 min 0,000 mm 0,0 UV-I 0 W/m 10,2 C 10,7 C 4,8 km/h (1 Bft) 98,00 %
28.09.2017 04:50 10,7 C 13,3 C 97 % 1023,8 hPa 0,0 l/m 2,2 km/h (1 Bft) SW 215 0 min 0,000 mm 0,0 UV-I 0 W/m 10,2 C 10,7 C 3,2 km/h (1 Bft) 97,87 %
28.09.2017 04:52 10,7 C 13,3 C 97 % 1023,8 hPa 0,0 l/m 1,1 km/h (1 Bft) SW 215 0 min 0,000 mm 0,0 UV-I 0 W/m 10,2 C 10,7 C 3,2 km/h (1 Bft) 97,87 %
28.09.2017 04:54 10,7 C 13,3 C 97 % 1023,7 hPa 0,0 l/m 1,6 km/h (1 Bft) SW 215 0 min 0,000 mm 0,0 UV-I 0 W/m 10,2 C 10,7 C 3,2 km/h (1 Bft) 94,00 %
28.09.2017 04:56 10,7 C 13,3 C 97 % 1023,8 hPa 0,0 l/m 2,0 km/h (1 Bft) SW 215 0 min 0,000 mm 0,0 UV-I 0 W/m 10,2 C 10,7 C 3,2 km/h (1 Bft) 98,11 %
28.09.2017 04:58 10,7 C 13,3 C 97 % 1023,7 hPa 0,0 l/m 2,0 km/h (1 Bft) SW 215 0 min 0,000 mm 0,0 UV-I 0 W/m 10,2 C 10,7 C 4,8 km/h (1 Bft) 95,45 %
28.09.2017 05:00 10,6 C 13,3 C 97 % 1023,7 hPa 0,0 l/m 2,5 km/h (1 Bft) SW 215 0 min 0,000 mm 0,0 UV-I 0 W/m 10,1 C 10,6 C 4,8 km/h (1 Bft) 95,74 %
28.09.2017 05:02 10,6 C 13,3 C 97 % 1023,7 hPa 0,0 l/m 1,8 km/h (1 Bft) SW 215 0 min 0,000 mm 0,0 UV-I 0 W/m 10,1 C 10,6 C 3,2 km/h (1 Bft) 94,74 %
28.09.2017 05:04 10,6 C 13,3 C 97 % 1023,7 hPa 0,0 l/m 1,5 km/h (1 Bft) SW 215 0 min 0,000 mm 0,0 UV-I 0 W/m 10,1 C 10,6 C 3,2 km/h (1 Bft) 96,61 %
28.09.2017 05:06 10,6 C 13,3 C 97 % 1023,7 hPa 0,0 l/m 4,4 km/h (1 Bft) SW 215 0 min 0,000 mm 0,0 UV-I 0 W/m 10,1 C 10,6 C 6,4 km/h (2 Bft) 95,12 %
28.09.2017 05:08 10,5 C 13,3 C 97 % 1023,7 hPa 0,0 l/m 4,4 km/h (1 Bft) SW 215 0 min 0,000 mm 0,0 UV-I 0 W/m 10,0 C 10,5 C 6,4 km/h (2 Bft) 96,00 %
28.09.2017 05:10 10,4 C 13,3 C 97 % 1023,7 hPa 0,0 l/m 3,8 km/h (1 Bft) SW 215 0 min 0,000 mm 0,0 UV-I 0 W/m 9,9 C 10,4 C 4,8 km/h (1 Bft) 92,68 %
28.09.2017 05:12 10,4 C 13,3 C 97 % 1023,8 hPa 0,0 l/m 4,1 km/h (1 Bft) SW 236 0 min 0,000 mm 0,0 UV-I 0 W/m 9,9 C 10,4 C 6,4 km/h (2 Bft) 94,00 %
28.09.2017 05:14 10,4 C 13,3 C 97 % 1023,8 hPa 0,0 l/m 4,0 km/h (1 Bft) SW 236 0 min 0,000 mm 0,0 UV-I 0 W/m 9,9 C 10,4 C 4,8 km/h (1 Bft) 96,00 %
28.09.2017 05:16 10,4 C 13,3 C 97 % 1023,7 hPa 0,0 l/m 2,8 km/h (1 Bft) SW 236 0 min 0,000 mm 0,0 UV-I 0 W/m 9,9 C 10,4 C 4,8 km/h (1 Bft) 95,74 %
28.09.2017 05:18 10,4 C 13,3 C 97 % 1023,8 hPa 0,0 l/m 1,1 km/h (1 Bft) SW 236 0 min 0,000 mm 0,0 UV-I 0 W/m 9,9 C 10,4 C 1,6 km/h (1 Bft) 100,00 %
28.09.2017 05:20 10,3 C 13,3 C 97 % 1023,8 hPa 0,0 l/m 1,8 km/h (1 Bft) SW 236 0 min 0,000 mm 0,0 UV-I 0 W/m 9,8 C 10,3 C 3,2 km/h (1 Bft) 96,00 %
28.09.2017 05:22 10,3 C 13,3 C 97 % 1023,8 hPa 0,0 l/m 2,0 km/h (1 Bft) SW 236 0 min 0,000 mm 0,0 UV-I 0 W/m 9,8 C 10,3 C 3,2 km/h (1 Bft) 100,00 %
28.09.2017 05:24 10,3 C 13,3 C 97 % 1023,8 hPa 0,0 l/m 3,4 km/h (1 Bft) SW 236 0 min 0,000 mm 0,0 UV-I 0 W/m 9,8 C 10,3 C 4,8 km/h (1 Bft) 96,15 %
28.09.2017 05:26 10,3 C 13,3 C 97 % 1023,8 hPa 0,0 l/m 3,2 km/h (1 Bft) SW 236 0 min 0,000 mm 0,0 UV-I 0 W/m 9,8 C 10,3 C 4,8 km/h (1 Bft) 96,00 %
28.09.2017 05:28 10,3 C 13,3 C 97 % 1023,8 hPa 0,0 l/m 2,1 km/h (1 Bft) SW 236 0 min 0,000 mm 0,0 UV-I 0 W/m 9,8 C 10,3 C 4,8 km/h (1 Bft) 97,92 %
28.09.2017 05:30 10,3 C 13,3 C 97 % 1023,8 hPa 0,0 l/m 1,6 km/h (1 Bft) SW 236 0 min 0,000 mm 0,0 UV-I 0 W/m 9,8 C 10,3 C 3,2 km/h (1 Bft) 97,87 %
28.09.2017 05:32 10,3 C 13,3 C 97 % 1023,8 hPa 0,0 l/m 3,7 km/h (1 Bft) SW 236 0 min 0,000 mm 0,0 UV-I 0 W/m 9,8 C 10,3 C 4,8 km/h (1 Bft) 95,74 %
28.09.2017 05:34 10,3 C 13,3 C 97 % 1023,8 hPa 0,0 l/m 3,6 km/h (1 Bft) SW 236 0 min 0,000 mm 0,0 UV-I 0 W/m 9,8 C 10,3 C 6,4 km/h (2 Bft) 97,87 %
28.09.2017 05:36 10,3 C 13,3 C 97 % 1023,9 hPa 0,0 l/m 4,7 km/h (1 Bft) SW 236 0 min 0,000 mm 0,0 UV-I 0 W/m 9,8 C 10,3 C 6,4 km/h (2 Bft) 96,00 %
28.09.2017 05:38 10,3 C 13,3 C 97 % 1023,9 hPa 0,0 l/m 4,7 km/h (1 Bft) SW 236 0 min 0,000 mm 0,0 UV-I 0 W/m 9,8 C 10,3 C 6,4 km/h (2 Bft) 95,45 %
28.09.2017 05:40 10,3 C 13,3 C 97 % 1023,9 hPa 0,0 l/m 4,5 km/h (1 Bft) SW 236 0 min 0,000 mm 0,0 UV-I 0 W/m 9,8 C 10,3 C 8,0 km/h (2 Bft) 91,49 %
28.09.2017 05:42 10,3 C 13,3 C 97 % 1023,9 hPa 0,0 l/m 4,0 km/h (1 Bft) SW 227 0 min 0,000 mm 0,0 UV-I 0 W/m 9,8 C 10,3 C 6,4 km/h (2 Bft) 100,00 %
28.09.2017 05:44 10,3 C 13,3 C 97 % 1024,0 hPa 0,0 l/m 4,9 km/h (1 Bft) S-SW 202 0 min 0,000 mm 0,0 UV-I 0 W/m 9,8 C 10,3 C 6,4 km/h (2 Bft) 96,00 %
28.09.2017 05:46 10,3 C 13,3 C 97 % 1024,0 hPa 0,0 l/m 5,0 km/h (1 Bft) S-SW 202 0 min 0,000 mm 0,0 UV-I 0 W/m 9,8 C 10,3 C 6,4 km/h (2 Bft) 98,11 %
28.09.2017 05:48 10,2 C 13,3 C 97 % 1024,0 hPa 0,0 l/m 5,4 km/h (1 Bft) S-SW 202 0 min 0,000 mm 0,0 UV-I 0 W/m 9,7 C 10,2 C 6,4 km/h (2 Bft) 97,37 %
28.09.2017 05:50 10,2 C 13,3 C 97 % 1024,0 hPa 0,0 l/m 4,0 km/h (1 Bft) S-SW 202 0 min 0,000 mm 0,0 UV-I 0 W/m 9,7 C 10,2 C 6,4 km/h (2 Bft) 96,00 %
28.09.2017 05:52 10,2 C 13,3 C 97 % 1024,0 hPa 0,0 l/m 0,9 km/h (0 Bft) S-SW 202 0 min 0,000 mm 0,0 UV-I 0 W/m 9,7 C 10,2 C 3,2 km/h (1 Bft) 97,87 %
28.09.2017 05:54 10,1 C 13,3 C 97 % 1023,9 hPa 0,0 l/m 1,0 km/h (0 Bft) S-SW 202 0 min 0,000 mm 0,0 UV-I 0 W/m 9,6 C 10,1 C 3,2 km/h (1 Bft) 97,73 %
28.09.2017 05:56 10,1 C 13,3 C 97 % 1024,0 hPa 0,2 l/m 2,4 km/h (1 Bft) S-SW 202 0 min 0,000 mm 0,0 UV-I 0 W/m 9,6 C 10,1 C 4,8 km/h (1 Bft) 98,21 %
28.09.2017 05:58 9,9 C 13,3 C 97 % 1024,0 hPa 0,0 l/m 3,5 km/h (1 Bft) S-SW 202 0 min 0,000 mm 0,0 UV-I 0 W/m 9,4 C 9,9 C 4,8 km/h (1 Bft) 94,74 %
28.09.2017 06:00 9,8 C 13,3 C 97 % 1024,0 hPa 0,0 l/m 4,3 km/h (1 Bft) S-SW 202 0 min 0,000 mm 0,0 UV-I 0 W/m 9,3 C 9,8 C 6,4 km/h (2 Bft) 100,00 %
28.09.2017 06:02 9,8 C 13,3 C 97 % 1024,1 hPa 0,0 l/m 2,4 km/h (1 Bft) S-SW 202 0 min 0,000 mm 0,0 UV-I 0 W/m 9,3 C 9,8 C 6,4 km/h (2 Bft) 100,00 %
28.09.2017 06:04 9,8 C 13,3 C 97 % 1024,1 hPa 0,0 l/m 2,8 km/h (1 Bft) S 178 0 min 0,000 mm 0,0 UV-I 0 W/m 9,3 C 9,8 C 4,8 km/h (1 Bft) 100,00 %
28.09.2017 06:06 9,7 C 13,3 C 97 % 1024,1 hPa 0,0 l/m 2,9 km/h (1 Bft) S 179 0 min 0,000 mm 0,0 UV-I 0 W/m 9,2 C 9,7 C 6,4 km/h (2 Bft) 100,00 %
28.09.2017 06:08 9,7 C 13,3 C 97 % 1024,1 hPa 0,0 l/m 2,8 km/h (1 Bft) S 179 0 min 0,000 mm 0,0 UV-I 0 W/m 9,2 C 9,7 C 6,4 km/h (2 Bft) 100,00 %
28.09.2017 06:10 9,7 C 13,3 C 97 % 1024,1 hPa 0,0 l/m 1,9 km/h (1 Bft) S 179 0 min 0,000 mm 0,0 UV-I 0 W/m 9,2 C 9,7 C 4,8 km/h (1 Bft) 100,00 %
28.09.2017 06:12 9,7 C 13,3 C 97 % 1024,1 hPa 0,0 l/m 1,0 km/h (0 Bft) S 179 0 min 0,000 mm 0,0 UV-I 0 W/m 9,2 C 9,7 C 3,2 km/h (1 Bft) 97,44 %
28.09.2017 06:14 9,6 C 13,3 C 97 % 1024,1 hPa 0,0 l/m 1,8 km/h (1 Bft) S 179 0 min 0,000 mm 0,0 UV-I 0 W/m 9,1 C 9,6 C 4,8 km/h (1 Bft) 100,00 %
28.09.2017 06:16 9,6 C 13,3 C 97 % 1024,1 hPa 0,0 l/m 0,8 km/h (0 Bft) S 179 0 min 0,000 mm 0,0 UV-I 0 W/m 9,1 C 9,6 C 3,2 km/h (1 Bft) 97,87 %
28.09.2017 06:18 9,6 C 13,3 C 97 % 1024,1 hPa 0,0 l/m 0,7 km/h (0 Bft) S 179 0 min 0,000 mm 0,0 UV-I 0 W/m 9,1 C 9,6 C 4,8 km/h (1 Bft) 100,00 %
28.09.2017 06:20 9,6 C 13,3 C 97 % 1024,1 hPa 0,0 l/m 0,8 km/h (0 Bft) S 179 0 min 0,000 mm 0,0 UV-I 0 W/m 9,1 C 9,6 C 3,2 km/h (1 Bft) 100,00 %
28.09.2017 06:22 9,6 C 13,3 C 97 % 1024,1 hPa 0,0 l/m 1,8 km/h (1 Bft) S 179 0 min 0,000 mm 0,0 UV-I 0 W/m 9,1 C 9,6 C 3,2 km/h (1 Bft) 100,00 %
28.09.2017 06:24 9,6 C 13,3 C 97 % 1024,2 hPa 0,0 l/m 1,9 km/h (1 Bft) S 179 0 min 0,000 mm 0,0 UV-I 0 W/m 9,1 C 9,6 C 4,8 km/h (1 Bft) 100,00 %
28.09.2017 06:26 9,6 C 13,3 C 97 % 1024,1 hPa 0,0 l/m 3,7 km/h (1 Bft) S 179 0 min 0,000 mm 0,0 UV-I 0 W/m 9,1 C 9,6 C 4,8 km/h (1 Bft) 100,00 %
28.09.2017 06:28 9,6 C 13,3 C 97 % 1024,1 hPa 0,0 l/m 1,9 km/h (1 Bft) S 179 0 min 0,000 mm 0,0 UV-I 0 W/m 9,1 C 9,6 C 6,4 km/h (2 Bft) 97,87 %
28.09.2017 06:30 9,6 C 13,3 C 97 % 1024,1 hPa 0,0 l/m 0,6 km/h (0 Bft) S 179 0 min 0,000 mm 0,0 UV-I 0 W/m 9,1 C 9,6 C 3,2 km/h (1 Bft) 97,56 %
28.09.2017 06:32 9,6 C 13,3 C 97 % 1024,1 hPa 0,0 l/m 1,2 km/h (1 Bft) S 179 0 min 0,000 mm 0,0 UV-I 0 W/m 9,1 C 9,6 C 1,6 km/h (1 Bft) 100,00 %
28.09.2017 06:34 9,6 C 13,3 C 97 % 1024,1 hPa 0,0 l/m 1,2 km/h (1 Bft) S 179 0 min 0,000 mm 0,0 UV-I 0 W/m 9,1 C 9,6 C 3,2 km/h (1 Bft) 97,87 %
28.09.2017 06:36 9,6 C 13,3 C 97 % 1024,1 hPa 0,0 l/m 1,6 km/h (1 Bft) S 179 0 min 0,000 mm 0,0 UV-I 0 W/m 9,1 C 9,6 C 3,2 km/h (1 Bft) 98,00 %
28.09.2017 06:38 9,6 C 13,3 C 97 % 1024,1 hPa 0,0 l/m 1,4 km/h (1 Bft) S 179 0 min 0,000 mm 0,0 UV-I 0 W/m 9,1 C 9,6 C 3,2 km/h (1 Bft) 100,00 %
28.09.2017 06:40 9,6 C 13,3 C 97 % 1024,2 hPa 0,0 l/m 3,4 km/h (1 Bft) S 179 0 min 0,000 mm 0,0 UV-I 0 W/m 9,1 C 9,6 C 4,8 km/h (1 Bft) 97,56 %
28.09.2017 06:42 9,6 C 13,3 C 97 % 1024,2 hPa 0,0 l/m 4,4 km/h (1 Bft) S 179 0 min 0,000 mm 0,0 UV-I 0 W/m 9,1 C 9,6 C 6,4 km/h (2 Bft) 98,00 %
28.09.2017 06:44 9,6 C 13,3 C 97 % 1024,2 hPa 0,0 l/m 4,5 km/h (1 Bft) S-SW 193 0 min 0,000 mm 0,0 UV-I 0 W/m 9,1 C 9,6 C 6,4 km/h (2 Bft) 97,87 %
28.09.2017 06:46 9,6 C 13,3 C 97 % 1024,2 hPa 0,0 l/m 4,9 km/h (1 Bft) S-SW 193 0 min 0,000 mm 0,0 UV-I 0 W/m 9,1 C 9,6 C 6,4 km/h (2 Bft) 97,92 %
28.09.2017 06:48 9,6 C 13,3 C 97 % 1024,2 hPa 0,0 l/m 4,1 km/h (1 Bft) S-SW 196 0 min 0,000 mm 0,0 UV-I 0 W/m 9,1 C 9,6 C 6,4 km/h (2 Bft) 97,96 %
28.09.2017 06:50 9,6 C 13,3 C 97 % 1024,2 hPa 0,0 l/m 4,3 km/h (1 Bft) S-SW 198 0 min 0,000 mm 0,0 UV-I 0 W/m 9,1 C 9,6 C 4,8 km/h (1 Bft) 98,00 %
28.09.2017 06:52 9,6 C 13,3 C 97 % 1024,2 hPa 0,0 l/m 3,9 km/h (1 Bft) S-SW 198 0 min 0,000 mm 0,0 UV-I 4 W/m 9,1 C 9,6 C 4,8 km/h (1 Bft) 97,44 %
28.09.2017 06:54 9,6 C 13,3 C 97 % 1024,2 hPa 0,0 l/m 1,8 km/h (1 Bft) S-SW 198 0 min 0,000 mm 0,0 UV-I 5 W/m 9,1 C 9,6 C 4,8 km/h (1 Bft) 96,00 %
28.09.2017 06:56 9,5 C 13,3 C 97 % 1024,3 hPa 0,0 l/m 0,0 km/h (0 Bft) S-SW 198 0 min 0,000 mm 0,0 UV-I 5 W/m 9,0 C 9,5 C 0,0 km/h (0 Bft) 97,87 %
28.09.2017 06:58 9,5 C 13,3 C 97 % 1024,3 hPa 0,0 l/m 0,2 km/h (0 Bft) S-SW 198 0 min 0,000 mm 0,0 UV-I 5 W/m 9,0 C 9,5 C 1,6 km/h (1 Bft) 98,11 %
28.09.2017 07:00 9,5 C 13,3 C 97 % 1024,3 hPa 0,0 l/m 1,8 km/h (1 Bft) S-SW 198 0 min 0,000 mm 0,0 UV-I 6 W/m 9,0 C 9,5 C 3,2 km/h (1 Bft) 97,56 %
28.09.2017 07:02 9,5 C 13,3 C 97 % 1024,4 hPa 0,0 l/m 2,5 km/h (1 Bft) S-SW 198 0 min 0,000 mm 0,0 UV-I 7 W/m 9,0 C 9,5 C 4,8 km/h (1 Bft) 97,87 %
28.09.2017 07:04 9,5 C 13,3 C 97 % 1024,4 hPa 0,0 l/m 3,3 km/h (1 Bft) S-SW 198 0 min 0,000 mm 0,0 UV-I 7 W/m 9,0 C 9,5 C 4,8 km/h (1 Bft) 98,00 %
28.09.2017 07:06 9,5 C 13,3 C 97 % 1024,4 hPa 0,0 l/m 3,4 km/h (1 Bft) S-SW 198 0 min 0,000 mm 0,0 UV-I 7 W/m 9,0 C 9,5 C 4,8 km/h (1 Bft) 97,37 %
28.09.2017 07:08 9,5 C 13,3 C 97 % 1024,5 hPa 0,0 l/m 3,5 km/h (1 Bft) S-SW 204 0 min 0,000 mm 0,0 UV-I 8 W/m 9,0 C 9,5 C 6,4 km/h (2 Bft) 98,00 %
28.09.2017 07:10 9,5 C 13,3 C 97 % 1024,5 hPa 0,0 l/m 4,6 km/h (1 Bft) SW 223 0 min 0,000 mm 0,0 UV-I 9 W/m 9,0 C 9,5 C 6,4 km/h (2 Bft) 97,73 %
28.09.2017 07:12 9,5 C 13,3 C 97 % 1024,5 hPa 0,0 l/m 3,8 km/h (1 Bft) SW 223 0 min 0,000 mm 0,0 UV-I 9 W/m 9,0 C 9,5 C 4,8 km/h (1 Bft) 95,74 %
28.09.2017 07:14 9,4 C 13,3 C 97 % 1024,4 hPa 0,0 l/m 3,0 km/h (1 Bft) SW 223 0 min 0,000 mm 0,0 UV-I 10 W/m 8,9 C 9,4 C 4,8 km/h (1 Bft) 98,11 %
28.09.2017 07:16 9,4 C 13,3 C 97 % 1024,4 hPa 0,0 l/m 2,6 km/h (1 Bft) SW 223 0 min 0,000 mm 0,0 UV-I 11 W/m 8,9 C 9,4 C 3,2 km/h (1 Bft) 100,00 %
28.09.2017 07:18 9,4 C 13,3 C 97 % 1024,4 hPa 0,0 l/m 2,3 km/h (1 Bft) SW 223 0 min 0,000 mm 0,0 UV-I 11 W/m 8,9 C 9,4 C 3,2 km/h (1 Bft) 100,00 %
28.09.2017 07:20 9,4 C 13,3 C 97 % 1024,4 hPa 0,0 l/m 0,9 km/h (0 Bft) SW 223 0 min 0,000 mm 0,0 UV-I 12 W/m 8,9 C 9,4 C 3,2 km/h (1 Bft) 100,00 %
28.09.2017 07:22 9,4 C 13,3 C 97 % 1024,5 hPa 0,0 l/m 0,1 km/h (0 Bft) SW 223 0 min 0,000 mm 0,0 UV-I 12 W/m 8,9 C 9,4 C 1,6 km/h (1 Bft) 100,00 %
28.09.2017 07:24 9,4 C 13,3 C 97 % 1024,5 hPa 0,0 l/m 0,7 km/h (0 Bft) SW 223 0 min 0,000 mm 0,0 UV-I 13 W/m 8,9 C 9,4 C 3,2 km/h (1 Bft) 100,00 %
28.09.2017 07:26 9,4 C 13,3 C 97 % 1024,6 hPa 0,0 l/m 0,1 km/h (0 Bft) SW 223 0 min 0,000 mm 0,0 UV-I 12 W/m 8,9 C 9,4 C 1,6 km/h (1 Bft) 98,00 %
28.09.2017 07:28 9,4 C 13,3 C 97 % 1024,6 hPa 0,0 l/m 0,5 km/h (0 Bft) SW 223 0 min 0,000 mm 0,0 UV-I 12 W/m 8,9 C 9,4 C 1,6 km/h (1 Bft) 100,00 %
28.09.2017 07:30 9,4 C 13,3 C 97 % 1024,7 hPa 0,0 l/m 1,2 km/h (1 Bft) SW 223 0 min 0,000 mm 0,0 UV-I 13 W/m 8,9 C 9,4 C 3,2 km/h (1 Bft) 100,00 %
28.09.2017 07:32 9,4 C 13,3 C 97 % 1024,7 hPa 0,0 l/m 0,3 km/h (0 Bft) SW 223 0 min 0,000 mm 0,0 UV-I 14 W/m 8,9 C 9,4 C 1,6 km/h (1 Bft) 97,73 %
28.09.2017 07:34 9,4 C 13,3 C 97 % 1024,7 hPa 0,0 l/m 1,1 km/h (1 Bft) SW 223 0 min 0,000 mm 0,0 UV-I 15 W/m 8,9 C 9,4 C 3,2 km/h (1 Bft) 97,87 %
28.09.2017 07:36 9,4 C 13,3 C 97 % 1024,7 hPa 0,0 l/m 1,1 km/h (1 Bft) SW 223 0 min 0,000 mm 0,0 UV-I 21 W/m 8,9 C 9,4 C 3,2 km/h (1 Bft) 98,11 %
28.09.2017 07:38 9,5 C 13,3 C 97 % 1024,7 hPa 0,0 l/m 0,4 km/h (0 Bft) SW 223 0 min 0,000 mm 0,0 UV-I 29 W/m 9,0 C 9,5 C 3,2 km/h (1 Bft) 97,73 %
28.09.2017 07:40 9,5 C 13,3 C 97 % 1024,8 hPa 0,0 l/m 1,9 km/h (1 Bft) SW 223 0 min 0,000 mm 0,0 UV-I 32 W/m 9,0 C 9,5 C 3,2 km/h (1 Bft) 95,74 %
28.09.2017 07:42 9,5 C 13,3 C 98 % 1024,8 hPa 0,0 l/m 2,2 km/h (1 Bft) SW 223 0 min 0,000 mm 0,0 UV-I 33 W/m 9,2 C 9,5 C 3,2 km/h (1 Bft) 100,00 %
28.09.2017 07:44 9,5 C 13,3 C 98 % 1024,8 hPa 0,0 l/m 1,7 km/h (1 Bft) SW 223 0 min 0,000 mm 0,0 UV-I 33 W/m 9,2 C 9,5 C 3,2 km/h (1 Bft) 100,00 %
28.09.2017 07:46 9,5 C 13,3 C 98 % 1024,8 hPa 0,0 l/m 0,2 km/h (0 Bft) SW 223 0 min 0,000 mm 0,0 UV-I 33 W/m 9,2 C 9,5 C 1,6 km/h (1 Bft) 100,00 %
28.09.2017 07:48 9,6 C 13,3 C 98 % 1024,9 hPa 0,0 l/m 0,8 km/h (0 Bft) SW 223 0 min 0,000 mm 0,0 UV-I 33 W/m 9,3 C 9,6 C 3,2 km/h (1 Bft) 100,00 %
28.09.2017 07:50 9,6 C 13,3 C 98 % 1024,8 hPa 0,0 l/m 0,8 km/h (0 Bft) SW 223 0 min 0,000 mm 0,0 UV-I 36 W/m 9,3 C 9,6 C 1,6 km/h (1 Bft) 100,00 %
28.09.2017 07:52 9,6 C 13,3 C 98 % 1024,8 hPa 0,0 l/m 0,6 km/h (0 Bft) SW 223 0 min 0,000 mm 0,0 UV-I 35 W/m 9,3 C 9,6 C 1,6 km/h (1 Bft) 100,00 %
28.09.2017 07:54 9,6 C 13,3 C 98 % 1024,9 hPa 0,0 l/m 0,2 km/h (0 Bft) SW 223 0 min 0,000 mm 0,0 UV-I 39 W/m 9,3 C 9,6 C 1,6 km/h (1 Bft) 100,00 %
28.09.2017 07:56 9,6 C 13,3 C 98 % 1024,9 hPa 0,0 l/m 0,3 km/h (0 Bft) SW 223 0 min 0,000 mm 0,0 UV-I 42 W/m 9,3 C 9,6 C 1,6 km/h (1 Bft) 100,00 %
28.09.2017 07:58 9,6 C 13,3 C 97 % 1024,9 hPa 0,0 l/m 0,2 km/h (0 Bft) SW 223 0 min 0,000 mm 0,0 UV-I 44 W/m 9,1 C 9,6 C 1,6 km/h (1 Bft) 100,00 %
28.09.2017 08:00 9,6 C 13,3 C 97 % 1024,9 hPa 0,0 l/m 0,0 km/h (0 Bft) SW 223 0 min 0,000 mm 0,0 UV-I 49 W/m 9,1 C 9,6 C 0,0 km/h (0 Bft) 100,00 %
28.09.2017 08:02 9,6 C 13,3 C 97 % 1024,9 hPa 0,0 l/m 0,3 km/h (0 Bft) SW 223 0 min 0,000 mm 0,0 UV-I 50 W/m 9,1 C 9,6 C 1,6 km/h (1 Bft) 100,00 %
28.09.2017 08:04 9,7 C 13,3 C 98 % 1024,9 hPa 0,0 l/m 1,3 km/h (1 Bft) SW 223 0 min 0,000 mm 0,0 UV-I 51 W/m 9,4 C 9,7 C 3,2 km/h (1 Bft) 97,87 %
28.09.2017 08:06 9,7 C 13,3 C 97 % 1025,0 hPa 0,0 l/m 2,5 km/h (1 Bft) SW 223 0 min 0,000 mm 0,0 UV-I 55 W/m 9,2 C 9,7 C 4,8 km/h (1 Bft) 100,00 %
28.09.2017 08:08 9,7 C 13,3 C 97 % 1025,0 hPa 0,0 l/m 2,4 km/h (1 Bft) SW 223 0 min 0,000 mm 0,0 UV-I 56 W/m 9,2 C 9,7 C 3,2 km/h (1 Bft) 98,11 %
28.09.2017 08:10 9,7 C 13,3 C 97 % 1025,0 hPa 0,0 l/m 2,4 km/h (1 Bft) SW 223 0 min 0,000 mm 0,0 UV-I 58 W/m 9,2 C 9,7 C 3,2 km/h (1 Bft) 97,87 %
28.09.2017 08:12 9,8 C 13,3 C 97 % 1025,0 hPa 0,0 l/m 1,2 km/h (1 Bft) SW 223 0 min 0,000 mm 0,0 UV-I 59 W/m 9,3 C 9,8 C 3,2 km/h (1 Bft) 97,87 %
28.09.2017 08:14 9,8 C 13,3 C 97 % 1025,1 hPa 0,0 l/m 0,1 km/h (0 Bft) SW 223 0 min 0,000 mm 0,0 UV-I 61 W/m 9,3 C 9,8 C 1,6 km/h (1 Bft) 100,00 %
28.09.2017 08:16 9,8 C 13,3 C 97 % 1025,1 hPa 0,0 l/m 0,6 km/h (0 Bft) SW 223 0 min 0,000 mm 0,0 UV-I 66 W/m 9,3 C 9,8 C 1,6 km/h (1 Bft) 100,00 %
28.09.2017 08:18 9,8 C 13,3 C 98 % 1025,2 hPa 0,0 l/m 2,7 km/h (1 Bft) SW 223 0 min 0,000 mm 0,0 UV-I 71 W/m 9,5 C 9,8 C 4,8 km/h (1 Bft) 100,00 %
28.09.2017 08:20 9,9 C 13,3 C 98 % 1025,1 hPa 0,0 l/m 1,5 km/h (1 Bft) SW 223 0 min 0,000 mm 0,0 UV-I 70 W/m 9,6 C 9,9 C 3,2 km/h (1 Bft) 100,00 %
28.09.2017 08:22 9,9 C 13,3 C 98 % 1025,2 hPa 0,0 l/m 0,1 km/h (0 Bft) SW 223 0 min 0,000 mm 0,0 UV-I 74 W/m 9,6 C 9,9 C 1,6 km/h (1 Bft) 97,87 %
28.09.2017 08:24 9,9 C 13,3 C 98 % 1025,2 hPa 0,0 l/m 0,4 km/h (0 Bft) SW 223 0 min 0,000 mm 0,0 UV-I 77 W/m 9,6 C 9,9 C 1,6 km/h (1 Bft) 96,23 %
28.09.2017 08:26 10,0 C 13,3 C 98 % 1025,2 hPa 0,0 l/m 1,1 km/h (1 Bft) SW 223 0 min 0,000 mm 0,0 UV-I 79 W/m 9,7 C 10,0 C 3,2 km/h (1 Bft) 93,62 %
28.09.2017 08:28 10,1 C 13,3 C 98 % 1025,1 hPa 0,0 l/m 1,3 km/h (1 Bft) SW 223 0 min 0,000 mm 0,0 UV-I 82 W/m 9,8 C 10,1 C 3,2 km/h (1 Bft) 97,87 %
28.09.2017 08:30 10,1 C 13,3 C 98 % 1025,2 hPa 0,0 l/m 0,0 km/h (0 Bft) SW 223 0 min 0,000 mm 0,0 UV-I 88 W/m 9,8 C 10,1 C 0,0 km/h (0 Bft) 97,37 %
28.09.2017 08:32 10,0 C 13,3 C 98 % 1025,2 hPa 0,0 l/m 0,0 km/h (0 Bft) SW 223 0 min 0,000 mm 0,0 UV-I 85 W/m 9,7 C 10,0 C 0,0 km/h (0 Bft) 96,43 %
28.09.2017 08:34 10,0 C 13,3 C 98 % 1025,2 hPa 0,0 l/m 0,0 km/h (0 Bft) SW 223 0 min 0,000 mm 0,0 UV-I 89 W/m 9,7 C 10,0 C 0,0 km/h (0 Bft) 95,74 %
28.09.2017 08:36 10,1 C 13,3 C 97 % 1025,2 hPa 0,0 l/m 0,0 km/h (0 Bft) SW 223 0 min 0,000 mm 0,0 UV-I 93 W/m 9,6 C 10,1 C 0,0 km/h (0 Bft) 97,87 %
28.09.2017 08:38 10,3 C 13,3 C 98 % 1025,3 hPa 0,0 l/m 0,0 km/h (0 Bft) SW 223 0 min 0,000 mm 0,0 UV-I 92 W/m 10,0 C 10,3 C 0,0 km/h (0 Bft) 97,37 %
28.09.2017 08:40 10,3 C 13,3 C 98 % 1025,2 hPa 0,0 l/m 0,0 km/h (0 Bft) SW 223 0 min 0,000 mm 0,0 UV-I 84 W/m 10,0 C 10,3 C 0,0 km/h (0 Bft) 95,74 %
28.09.2017 08:42 10,3 C 13,3 C 98 % 1025,3 hPa 0,0 l/m 0,0 km/h (0 Bft) SW 223 0 min 0,000 mm 0,0 UV-I 83 W/m 10,0 C 10,3 C 0,0 km/h (0 Bft) 96,00 %
28.09.2017 08:44 10,3 C 13,3 C 98 % 1025,4 hPa 0,0 l/m 0,0 km/h (0 Bft) SW 223 0 min 0,000 mm 0,0 UV-I 87 W/m 10,0 C 10,3 C 0,0 km/h (0 Bft) 96,00 %
28.09.2017 08:46 10,3 C 13,3 C 98 % 1025,3 hPa 0,0 l/m 0,1 km/h (0 Bft) SW 223 0 min 0,000 mm 0,0 UV-I 91 W/m 10,0 C 10,3 C 1,6 km/h (1 Bft) 95,74 %
28.09.2017 08:48 10,3 C 13,3 C 98 % 1025,4 hPa 0,0 l/m 0,5 km/h (0 Bft) SW 223 0 min 0,000 mm 0,0 UV-I 92 W/m 10,0 C 10,3 C 1,6 km/h (1 Bft) 95,83 %
28.09.2017 08:50 10,3 C 13,3 C 98 % 1025,4 hPa 0,0 l/m 0,4 km/h (0 Bft) SW 223 0 min 0,000 mm 0,0 UV-I 98 W/m 10,0 C 10,3 C 1,6 km/h (1 Bft) 94,74 %
28.09.2017 08:52 10,2 C 13,3 C 98 % 1025,4 hPa 0,0 l/m 0,3 km/h (0 Bft) SW 225 0 min 0,000 mm 0,0 UV-I 113 W/m 9,9 C 10,2 C 1,6 km/h (1 Bft) 94,34 %
28.09.2017 08:54 10,3 C 13,3 C 98 % 1025,4 hPa 0,0 l/m 0,0 km/h (0 Bft) SW 225 0 min 0,000 mm 0,0 UV-I 127 W/m 10,0 C 10,3 C 0,0 km/h (0 Bft) 94,00 %
28.09.2017 08:56 10,4 C 13,3 C 98 % 1025,4 hPa 0,0 l/m 0,0 km/h (0 Bft) SW 225 0 min 0,000 mm 0,0 UV-I 126 W/m 10,1 C 10,4 C 0,0 km/h (0 Bft) 97,37 %
28.09.2017 08:58 10,3 C 13,3 C 98 % 1025,4 hPa 0,0 l/m 1,0 km/h (0 Bft) SW 225 0 min 0,000 mm 0,0 UV-I 140 W/m 10,0 C 10,3 C 3,2 km/h (1 Bft) 94,00 %
28.09.2017 09:00 10,3 C 13,3 C 98 % 1025,4 hPa 0,0 l/m 1,8 km/h (1 Bft) SW 225 0 min 0,051 mm 0,0 UV-I 141 W/m 10,0 C 10,3 C 3,2 km/h (1 Bft) 95,12 %
28.09.2017 09:02 10,2 C 13,3 C 98 % 1025,4 hPa 0,0 l/m 0,0 km/h (0 Bft) SW 225 0 min 0,000 mm 0,0 UV-I 134 W/m 9,9 C 10,2 C 1,6 km/h (1 Bft) 96,00 %
28.09.2017 09:04 10,3 C 13,3 C 98 % 1025,4 hPa 0,0 l/m 0,0 km/h (0 Bft) SW 225 0 min 0,000 mm 0,0 UV-I 134 W/m 10,0 C 10,3 C 0,0 km/h (0 Bft) 95,74 %
28.09.2017 09:06 10,3 C 13,3 C 98 % 1025,5 hPa 0,0 l/m 0,0 km/h (0 Bft) SW 225 0 min 0,000 mm 0,0 UV-I 134 W/m 10,0 C 10,3 C 0,0 km/h (0 Bft) 96,23 %
28.09.2017 09:08 10,4 C 13,3 C 98 % 1025,5 hPa 0,0 l/m 1,1 km/h (1 Bft) SW 225 0 min 0,000 mm 0,0 UV-I 125 W/m 10,1 C 10,4 C 3,2 km/h (1 Bft) 95,45 %
28.09.2017 09:10 10,4 C 13,3 C 98 % 1025,5 hPa 0,0 l/m 1,2 km/h (1 Bft) SW 225 0 min 0,000 mm 0,0 UV-I 116 W/m 10,1 C 10,4 C 3,2 km/h (1 Bft) 97,87 %
28.09.2017 09:12 10,4 C 13,3 C 98 % 1025,6 hPa 0,0 l/m 1,6 km/h (1 Bft) SW 225 0 min 0,000 mm 0,0 UV-I 113 W/m 10,1 C 10,4 C 3,2 km/h (1 Bft) 92,00 %
28.09.2017 09:14 10,4 C 13,3 C 98 % 1025,6 hPa 0,0 l/m 1,3 km/h (1 Bft) SW 225 0 min 0,000 mm 0,0 UV-I 135 W/m 10,1 C 10,4 C 1,6 km/h (1 Bft) 100,00 %
28.09.2017 09:16 10,4 C 13,3 C 98 % 1025,6 hPa 0,0 l/m 2,2 km/h (1 Bft) SW 225 0 min 0,000 mm 0,5 UV-I 155 W/m 10,1 C 10,4 C 4,8 km/h (1 Bft) 95,74 %
28.09.2017 09:18 10,4 C 13,3 C 98 % 1025,6 hPa 0,0 l/m 1,6 km/h (1 Bft) SW 225 0 min 0,000 mm 0,5 UV-I 115 W/m 10,1 C 10,4 C 3,2 km/h (1 Bft) 98,11 %
28.09.2017 09:20 10,5 C 13,3 C 98 % 1025,7 hPa 0,0 l/m 0,0 km/h (0 Bft) SW 225 0 min 0,000 mm 0,5 UV-I 115 W/m 10,2 C 10,5 C 0,0 km/h (0 Bft) 97,56 %
28.09.2017 09:22 10,5 C 13,3 C 98 % 1025,7 hPa 0,0 l/m 0,0 km/h (0 Bft) SW 225 0 min 0,000 mm 0,5 UV-I 171 W/m 10,2 C 10,5 C 0,0 km/h (0 Bft) 100,00 %
28.09.2017 09:24 10,6 C 13,3 C 98 % 1025,7 hPa 0,0 l/m 0,0 km/h (0 Bft) SW 225 0 min 0,000 mm 0,5 UV-I 169 W/m 10,3 C 10,6 C 0,0 km/h (0 Bft) 98,11 %
28.09.2017 09:26 10,7 C 13,3 C 98 % 1025,7 hPa 0,0 l/m 0,0 km/h (0 Bft) SW 225 0 min 0,000 mm 0,5 UV-I 139 W/m 10,4 C 10,7 C 0,0 km/h (0 Bft) 95,74 %
28.09.2017 09:28 10,8 C 13,3 C 98 % 1025,7 hPa 0,0 l/m 0,0 km/h (0 Bft) SW 225 0 min 0,000 mm 0,5 UV-I 164 W/m 10,5 C 10,8 C 0,0 km/h (0 Bft) 100,00 %
28.09.2017 09:30 10,8 C 13,3 C 98 % 1025,7 hPa 0,0 l/m 0,0 km/h (0 Bft) SW 225 0 min 0,000 mm 0,5 UV-I 170 W/m 10,5 C 10,8 C 0,0 km/h (0 Bft) 100,00 %
28.09.2017 09:32 11,0 C 13,3 C 98 % 1025,7 hPa 0,0 l/m 1,7 km/h (1 Bft) SW 229 0 min 0,000 mm 0,5 UV-I 169 W/m 10,7 C 11,0 C 4,8 km/h (1 Bft) 100,00 %
28.09.2017 09:34 10,9 C 13,3 C 98 % 1025,7 hPa 0,0 l/m 0,7 km/h (0 Bft) SW 229 0 min 0,000 mm 0,6 UV-I 199 W/m 10,6 C 10,9 C 3,2 km/h (1 Bft) 98,00 %
28.09.2017 09:36 10,8 C 13,3 C 98 % 1025,7 hPa 0,0 l/m 3,5 km/h (1 Bft) N-NO 24 0 min 0,000 mm 0,6 UV-I 181 W/m 10,5 C 10,8 C 6,4 km/h (2 Bft) 100,00 %
28.09.2017 09:38 11,0 C 13,3 C 98 % 1025,7 hPa 0,0 l/m 4,4 km/h (1 Bft) N-NO 24 0 min 0,000 mm 0,6 UV-I 183 W/m 10,7 C 11,0 C 6,4 km/h (2 Bft) 97,87 %
28.09.2017 09:40 11,1 C 13,3 C 98 % 1025,6 hPa 0,0 l/m 3,3 km/h (1 Bft) N-NO 27 0 min 0,000 mm 0,6 UV-I 189 W/m 10,8 C 11,1 C 6,4 km/h (2 Bft) 97,37 %
28.09.2017 09:42 11,1 C 13,3 C 98 % 1025,7 hPa 0,0 l/m 3,8 km/h (1 Bft) NO 36 0 min 0,000 mm 0,6 UV-I 179 W/m 10,8 C 11,1 C 4,8 km/h (1 Bft) 100,00 %
28.09.2017 09:44 11,2 C 13,3 C 98 % 1025,7 hPa 0,0 l/m 2,9 km/h (1 Bft) NO 38 0 min 0,000 mm 0,6 UV-I 181 W/m 10,9 C 11,2 C 4,8 km/h (1 Bft) 100,00 %
28.09.2017 09:46 10,9 C 13,3 C 98 % 1025,6 hPa 0,0 l/m 0,3 km/h (0 Bft) NO 38 0 min 0,000 mm 0,7 UV-I 199 W/m 10,6 C 10,9 C 1,6 km/h (1 Bft) 97,56 %
28.09.2017 09:48 11,0 C 13,3 C 98 % 1025,7 hPa 0,0 l/m 1,6 km/h (1 Bft) NO 38 0 min 0,000 mm 0,7 UV-I 226 W/m 10,7 C 11,0 C 3,2 km/h (1 Bft) 98,11 %
28.09.2017 09:50 11,1 C 13,3 C 98 % 1025,7 hPa 0,0 l/m 3,0 km/h (1 Bft) N-NO 30 0 min 0,000 mm 0,7 UV-I 208 W/m 10,8 C 11,1 C 4,8 km/h (1 Bft) 96,00 %
28.09.2017 09:52 11,2 C 13,3 C 98 % 1025,7 hPa 0,0 l/m 3,3 km/h (1 Bft) N-NO 23 0 min 0,000 mm 0,8 UV-I 235 W/m 10,9 C 11,2 C 4,8 km/h (1 Bft) 100,00 %
28.09.2017 09:54 11,2 C 13,3 C 98 % 1025,7 hPa 0,0 l/m 1,0 km/h (0 Bft) N-NO 23 2 min 0,000 mm 0,8 UV-I 263 W/m 10,9 C 11,2 C 3,2 km/h (1 Bft) 100,00 %
28.09.2017 09:56 11,4 C 13,3 C 98 % 1025,7 hPa 0,0 l/m 0,6 km/h (0 Bft) N-NO 23 0 min 0,000 mm 0,8 UV-I 230 W/m 11,1 C 11,4 C 3,2 km/h (1 Bft) 100,00 %
28.09.2017 09:58 11,3 C 13,3 C 98 % 1025,8 hPa 0,0 l/m 0,7 km/h (0 Bft) N-NO 23 0 min 0,000 mm 0,8 UV-I 195 W/m 11,0 C 11,3 C 3,2 km/h (1 Bft) 100,00 %
28.09.2017 10:00 11,2 C 13,3 C 98 % 1025,8 hPa 0,0 l/m 1,0 km/h (0 Bft) N-NO 23 0 min 0,076 mm 0,9 UV-I 187 W/m 10,9 C 11,2 C 3,2 km/h (1 Bft) 100,00 %
28.09.2017 10:02 11,1 C 13,3 C 98 % 1025,7 hPa 0,0 l/m 0,5 km/h (0 Bft) N-NO 23 0 min 0,000 mm 0,9 UV-I 209 W/m 10,8 C 11,1 C 3,2 km/h (1 Bft) 97,87 %
28.09.2017 10:04 11,2 C 13,3 C 98 % 1025,7 hPa 0,0 l/m 1,9 km/h (1 Bft) W-NW 290 0 min 0,000 mm 0,9 UV-I 226 W/m 10,9 C 11,2 C 3,2 km/h (1 Bft) 100,00 %
28.09.2017 10:06 11,2 C 13,3 C 98 % 1025,8 hPa 0,0 l/m 1,2 km/h (1 Bft) W-NW 291 0 min 0,000 mm 0,9 UV-I 217 W/m 10,9 C 11,2 C 3,2 km/h (1 Bft) 100,00 %
28.09.2017 10:08 11,2 C 13,3 C 98 % 1025,8 hPa 0,0 l/m 0,3 km/h (0 Bft) W-NW 291 0 min 0,000 mm 0,9 UV-I 256 W/m 10,9 C 11,2 C 1,6 km/h (1 Bft) 100,00 %
28.09.2017 10:10 11,3 C 13,3 C 98 % 1025,8 hPa 0,0 l/m 0,7 km/h (0 Bft) W-NW 296 0 min 0,000 mm 0,9 UV-I 239 W/m 11,0 C 11,3 C 3,2 km/h (1 Bft) 100,00 %
28.09.2017 10:12 11,4 C 13,3 C 98 % 1025,8 hPa 0,0 l/m 0,7 km/h (0 Bft) W-NW 296 0 min 0,000 mm 0,9 UV-I 244 W/m 11,1 C 11,4 C 3,2 km/h (1 Bft) 100,00 %
28.09.2017 10:14 11,4 C 13,3 C 98 % 1025,8 hPa 0,0 l/m 0,1 km/h (0 Bft) W-NW 296 0 min 0,000 mm 0,9 UV-I 240 W/m 11,1 C 11,4 C 1,6 km/h (1 Bft) 100,00 %
28.09.2017 10:16 11,4 C 13,3 C 98 % 1025,8 hPa 0,0 l/m 0,0 km/h (0 Bft) W-NW 296 0 min 0,000 mm 0,8 UV-I 221 W/m 11,1 C 11,4 C 0,0 km/h (0 Bft) 100,00 %
28.09.2017 10:18 11,7 C 13,3 C 98 % 1025,8 hPa 0,0 l/m 0,3 km/h (0 Bft) W-NW 296 0 min 0,000 mm 0,8 UV-I 198 W/m 11,4 C 11,7 C 1,6 km/h (1 Bft) 100,00 %
28.09.2017 10:20 11,8 C 13,3 C 98 % 1025,8 hPa 0,0 l/m 2,1 km/h (1 Bft) NW 311 0 min 0,000 mm 0,8 UV-I 191 W/m 11,5 C 11,8 C 4,8 km/h (1 Bft) 100,00 %
28.09.2017 10:22 11,7 C 13,3 C 98 % 1025,8 hPa 0,0 l/m 3,4 km/h (1 Bft) N-NO 25 0 min 0,000 mm 0,8 UV-I 201 W/m 11,4 C 11,7 C 4,8 km/h (1 Bft) 100,00 %
28.09.2017 10:24 11,7 C 13,3 C 98 % 1025,8 hPa 0,0 l/m 1,1 km/h (1 Bft) N-NO 25 0 min 0,000 mm 0,8 UV-I 205 W/m 11,4 C 11,7 C 4,8 km/h (1 Bft) 98,11 %
28.09.2017 10:26 11,7 C 13,3 C 98 % 1025,8 hPa 0,0 l/m 2,9 km/h (1 Bft) O-NO 61 0 min 0,000 mm 0,8 UV-I 204 W/m 11,4 C 11,7 C 8,0 km/h (2 Bft) 97,87 %
28.09.2017 10:28 11,7 C 13,3 C 98 % 1025,8 hPa 0,0 l/m 1,1 km/h (1 Bft) O-NO 61 0 min 0,000 mm 0,8 UV-I 210 W/m 11,4 C 11,7 C 4,8 km/h (1 Bft) 100,00 %
28.09.2017 10:30 11,8 C 13,3 C 98 % 1025,9 hPa 0,0 l/m 1,7 km/h (1 Bft) O-NO 61 0 min 0,000 mm 0,7 UV-I 205 W/m 11,5 C 11,8 C 3,2 km/h (1 Bft) 100,00 %
28.09.2017 10:32 11,8 C 13,3 C 98 % 1025,9 hPa 0,0 l/m 3,0 km/h (1 Bft) O-NO 61 0 min 0,000 mm 0,7 UV-I 187 W/m 11,5 C 11,8 C 4,8 km/h (1 Bft) 97,87 %
28.09.2017 10:34 11,8 C 13,3 C 98 % 1025,9 hPa 0,0 l/m 1,9 km/h (1 Bft) O-NO 61 0 min 0,000 mm 0,6 UV-I 166 W/m 11,5 C 11,8 C 4,8 km/h (1 Bft) 100,00 %
28.09.2017 10:36 11,9 C 13,3 C 98 % 1025,9 hPa 0,0 l/m 1,6 km/h (1 Bft) N-NO 31 0 min 0,000 mm 0,6 UV-I 161 W/m 11,6 C 11,9 C 3,2 km/h (1 Bft) 100,00 %
28.09.2017 10:38 11,9 C 13,3 C 98 % 1025,9 hPa 0,0 l/m 1,1 km/h (1 Bft) N-NO 19 0 min 0,000 mm 0,7 UV-I 172 W/m 11,6 C 11,9 C 3,2 km/h (1 Bft) 100,00 %
28.09.2017 10:40 11,8 C 13,3 C 98 % 1025,9 hPa 0,0 l/m 3,6 km/h (1 Bft) N-NO 19 0 min 0,000 mm 0,8 UV-I 199 W/m 11,5 C 11,8 C 6,4 km/h (2 Bft) 97,92 %
28.09.2017 10:42 11,8 C 13,3 C 98 % 1025,9 hPa 0,0 l/m 3,8 km/h (1 Bft) NO 44 0 min 0,000 mm 0,9 UV-I 234 W/m 11,5 C 11,8 C 4,8 km/h (1 Bft) 97,14 %
28.09.2017 10:44 11,8 C 13,3 C 98 % 1025,9 hPa 0,0 l/m 0,6 km/h (0 Bft) NO 44 0 min 0,000 mm 1,0 UV-I 261 W/m 11,5 C 11,8 C 3,2 km/h (1 Bft) 97,01 %
28.09.2017 10:46 11,9 C 13,3 C 98 % 1025,9 hPa 0,0 l/m 1,5 km/h (1 Bft) NO 44 0 min 0,000 mm 1,0 UV-I 245 W/m 11,6 C 11,9 C 3,2 km/h (1 Bft) 94,87 %
28.09.2017 10:48 11,9 C 13,3 C 98 % 1025,9 hPa 0,0 l/m 0,5 km/h (0 Bft) NO 44 0 min 0,000 mm 1,0 UV-I 230 W/m 11,6 C 11,9 C 3,2 km/h (1 Bft) 98,11 %
28.09.2017 10:50 12,0 C 13,3 C 98 % 1025,9 hPa 0,0 l/m 2,5 km/h (1 Bft) NO 44 0 min 0,000 mm 1,0 UV-I 232 W/m 11,7 C 12,0 C 4,8 km/h (1 Bft) 95,74 %
28.09.2017 10:52 12,1 C 13,3 C 98 % 1026,0 hPa 0,0 l/m 0,0 km/h (0 Bft) NO 44 0 min 0,000 mm 1,0 UV-I 221 W/m 11,8 C 12,1 C 0,0 km/h (0 Bft) 97,37 %
28.09.2017 10:54 12,1 C 13,3 C 98 % 1025,9 hPa 0,0 l/m 0,7 km/h (0 Bft) NO 43 0 min 0,000 mm 1,0 UV-I 208 W/m 11,8 C 12,1 C 3,2 km/h (1 Bft) 97,96 %
28.09.2017 10:56 11,9 C 13,3 C 98 % 1025,9 hPa 0,0 l/m 0,3 km/h (0 Bft) NO 43 0 min 0,000 mm 1,0 UV-I 204 W/m 11,6 C 11,9 C 1,6 km/h (1 Bft) 96,23 %
28.09.2017 10:58 11,9 C 13,3 C 98 % 1025,7 hPa 0,0 l/m 0,2 km/h (0 Bft) NO 43 0 min 0,000 mm 1,0 UV-I 208 W/m 11,6 C 11,9 C 1,6 km/h (1 Bft) 97,56 %
28.09.2017 11:00 12,0 C 13,3 C 98 % 1025,7 hPa 0,0 l/m 0,5 km/h (0 Bft) NO 43 0 min 0,102 mm 0,9 UV-I 200 W/m 11,7 C 12,0 C 3,2 km/h (1 Bft) 96,23 %
28.09.2017 11:02 12,1 C 13,3 C 98 % 1025,7 hPa 0,0 l/m 0,7 km/h (0 Bft) NO 43 0 min 0,000 mm 0,9 UV-I 197 W/m 11,8 C 12,1 C 3,2 km/h (1 Bft) 97,37 %
28.09.2017 11:04 12,2 C 13,3 C 98 % 1025,7 hPa 0,0 l/m 0,6 km/h (0 Bft) NO 43 0 min 0,000 mm 1,0 UV-I 216 W/m 11,9 C 12,2 C 3,2 km/h (1 Bft) 98,21 %
28.09.2017 11:06 12,4 C 13,3 C 98 % 1025,7 hPa 0,0 l/m 4,4 km/h (1 Bft) NO 45 0 min 0,000 mm 1,0 UV-I 231 W/m 12,1 C 12,4 C 6,4 km/h (2 Bft) 97,37 %
28.09.2017 11:08 12,4 C 13,3 C 98 % 1025,7 hPa 0,0 l/m 3,1 km/h (1 Bft) NO 47 0 min 0,000 mm 1,1 UV-I 248 W/m 12,1 C 12,4 C 6,4 km/h (2 Bft) 96,00 %
28.09.2017 11:10 12,4 C 13,3 C 98 % 1025,7 hPa 0,0 l/m 2,6 km/h (1 Bft) NO 47 0 min 0,000 mm 1,1 UV-I 241 W/m 12,1 C 12,4 C 4,8 km/h (1 Bft) 98,11 %
28.09.2017 11:12 12,4 C 13,3 C 98 % 1025,7 hPa 0,0 l/m 5,6 km/h (1 Bft) O-NO 67 0 min 0,000 mm 1,1 UV-I 249 W/m 12,1 C 12,4 C 9,7 km/h (2 Bft) 97,37 %
28.09.2017 11:14 12,4 C 13,3 C 98 % 1025,7 hPa 0,0 l/m 5,9 km/h (2 Bft) O-NO 71 0 min 0,000 mm 1,1 UV-I 261 W/m 12,1 C 12,4 C 11,3 km/h (2 Bft) 100,00 %
28.09.2017 11:16 12,5 C 13,3 C 98 % 1025,7 hPa 0,0 l/m 5,2 km/h (1 Bft) NO 47 0 min 0,000 mm 1,1 UV-I 251 W/m 12,2 C 12,5 C 8,0 km/h (2 Bft) 100,00 %
28.09.2017 11:18 12,7 C 13,3 C 98 % 1025,7 hPa 0,0 l/m 4,5 km/h (1 Bft) NO 54 0 min 0,000 mm 1,1 UV-I 239 W/m 12,4 C 12,7 C 8,0 km/h (2 Bft) 100,00 %
28.09.2017 11:20 12,6 C 13,3 C 98 % 1025,7 hPa 0,0 l/m 3,8 km/h (1 Bft) NO 45 0 min 0,000 mm 1,0 UV-I 230 W/m 12,3 C 12,6 C 9,7 km/h (2 Bft) 97,87 %
28.09.2017 11:22 12,7 C 13,3 C 98 % 1025,8 hPa 0,0 l/m 5,1 km/h (1 Bft) O-NO 65 0 min 0,000 mm 1,0 UV-I 219 W/m 12,4 C 12,7 C 8,0 km/h (2 Bft) 97,92 %
28.09.2017 11:24 12,8 C 13,3 C 97 % 1025,8 hPa 0,0 l/m 6,1 km/h (2 Bft) N 5 0 min 0,000 mm 1,1 UV-I 220 W/m 12,3 C 12,8 C 12,9 km/h (3 Bft) 97,87 %
28.09.2017 11:26 12,7 C 13,3 C 97 % 1025,8 hPa 0,0 l/m 3,6 km/h (1 Bft) N-NO 17 0 min 0,000 mm 1,2 UV-I 240 W/m 12,2 C 12,7 C 6,4 km/h (2 Bft) 97,87 %
28.09.2017 11:28 12,6 C 13,3 C 97 % 1025,8 hPa 0,0 l/m 3,4 km/h (1 Bft) NO 38 0 min 0,000 mm 1,2 UV-I 227 W/m 12,1 C 12,6 C 8,0 km/h (2 Bft) 100,00 %
28.09.2017 11:30 12,5 C 13,3 C 97 % 1025,8 hPa 0,0 l/m 1,0 km/h (0 Bft) N 355 0 min 0,000 mm 1,0 UV-I 207 W/m 12,0 C 12,5 C 3,2 km/h (1 Bft) 100,00 %
28.09.2017 11:32 12,4 C 13,3 C 97 % 1025,7 hPa 0,0 l/m 1,4 km/h (1 Bft) N-NW 348 0 min 0,000 mm 1,0 UV-I 204 W/m 11,9 C 12,4 C 3,2 km/h (1 Bft) 100,00 %
28.09.2017 11:34 12,4 C 13,3 C 97 % 1025,8 hPa 0,0 l/m 0,1 km/h (0 Bft) N-NW 348 0 min 0,000 mm 0,9 UV-I 194 W/m 11,9 C 12,4 C 1,6 km/h (1 Bft) 98,11 %
28.09.2017 11:36 12,4 C 13,3 C 97 % 1025,8 hPa 0,0 l/m 1,2 km/h (1 Bft) N 5 0 min 0,000 mm 0,9 UV-I 199 W/m 11,9 C 12,4 C 3,2 km/h (1 Bft) 100,00 %
28.09.2017 11:38 12,5 C 13,3 C 97 % 1025,8 hPa 0,0 l/m 1,9 km/h (1 Bft) O-SO 103 0 min 0,000 mm 1,0 UV-I 210 W/m 12,0 C 12,5 C 4,8 km/h (1 Bft) 98,46 %
28.09.2017 11:40 12,7 C 13,3 C 97 % 1025,7 hPa 0,0 l/m 6,6 km/h (2 Bft) NO 44 0 min 0,000 mm 1,0 UV-I 225 W/m 12,2 C 12,6 C 9,7 km/h (2 Bft) 100,00 %
28.09.2017 11:42 12,8 C 13,3 C 97 % 1025,7 hPa 0,0 l/m 2,4 km/h (1 Bft) N-NO 32 0 min 0,000 mm 1,2 UV-I 254 W/m 12,3 C 12,8 C 6,4 km/h (2 Bft) 100,00 %
28.09.2017 11:44 12,8 C 13,3 C 97 % 1025,7 hPa 0,0 l/m 4,7 km/h (1 Bft) O-NO 75 0 min 0,000 mm 1,3 UV-I 277 W/m 12,3 C 12,8 C 8,0 km/h (2 Bft) 100,00 %
28.09.2017 11:46 12,9 C 13,3 C 97 % 1025,7 hPa 0,0 l/m 7,4 km/h (2 Bft) NO 38 0 min 0,000 mm 1,4 UV-I 293 W/m 12,4 C 12,3 C 9,7 km/h (2 Bft) 100,00 %
28.09.2017 11:48 12,9 C 13,3 C 96 % 1025,6 hPa 0,0 l/m 5,5 km/h (1 Bft) N-NO 25 0 min 0,000 mm 1,5 UV-I 287 W/m 12,3 C 12,9 C 12,9 km/h (3 Bft) 100,00 %
28.09.2017 11:50 12,8 C 13,3 C 96 % 1025,7 hPa 0,0 l/m 3,0 km/h (1 Bft) N-NO 25 0 min 0,000 mm 1,4 UV-I 271 W/m 12,2 C 12,8 C 6,4 km/h (2 Bft) 100,00 %
28.09.2017 11:52 12,8 C 13,3 C 96 % 1025,6 hPa 0,0 l/m 1,6 km/h (1 Bft) N-NO 24 0 min 0,000 mm 1,5 UV-I 282 W/m 12,2 C 12,8 C 4,8 km/h (1 Bft) 100,00 %
28.09.2017 11:54 12,8 C 13,3 C 96 % 1025,7 hPa 0,0 l/m 0,0 km/h (0 Bft) N-NO 24 0 min 0,000 mm 1,6 UV-I 327 W/m 12,2 C 12,8 C 1,6 km/h (1 Bft) 100,00 %
28.09.2017 11:56 12,9 C 13,3 C 96 % 1025,6 hPa 0,0 l/m 0,8 km/h (0 Bft) N-NO 24 2 min 0,000 mm 2,1 UV-I 358 W/m 12,3 C 12,9 C 3,2 km/h (1 Bft) 100,00 %
28.09.2017 11:58 13,3 C 13,3 C 96 % 1025,6 hPa 0,0 l/m 3,5 km/h (1 Bft) O-NO 69 2 min 0,000 mm 2,8 UV-I 585 W/m 12,7 C 13,3 C 6,4 km/h (2 Bft) 100,00 %
28.09.2017 12:00 13,6 C 13,3 C 95 % 1025,6 hPa 0,0 l/m 4,8 km/h (1 Bft) O 90 2 min 0,152 mm 2,8 UV-I 680 W/m 12,8 C 13,6 C 6,4 km/h (2 Bft) 100,00 %
28.09.2017 12:02 13,8 C 13,3 C 95 % 1025,5 hPa 0,0 l/m 4,4 km/h (1 Bft) O 86 2 min 0,000 mm 2,8 UV-I 642 W/m 13,0 C 13,8 C 8,0 km/h (2 Bft) 100,00 %
28.09.2017 12:04 14,1 C 13,3 C 94 % 1025,5 hPa 0,0 l/m 6,0 km/h (2 Bft) O-NO 70 2 min 0,000 mm 2,8 UV-I 626 W/m 13,1 C 14,1 C 9,7 km/h (2 Bft) 97,87 %
28.09.2017 12:06 14,2 C 13,3 C 93 % 1025,4 hPa 0,0 l/m 7,5 km/h (2 Bft) O 81 2 min 0,000 mm 2,8 UV-I 624 W/m 13,1 C 13,5 C 11,3 km/h (2 Bft) 100,00 %
28.09.2017 12:08 14,4 C 13,3 C 93 % 1025,5 hPa 0,0 l/m 5,8 km/h (2 Bft) NO 53 2 min 0,000 mm 2,8 UV-I 622 W/m 13,3 C 14,4 C 9,7 km/h (2 Bft) 98,00 %
28.09.2017 12:10 14,7 C 13,3 C 92 % 1025,5 hPa 0,0 l/m 4,4 km/h (1 Bft) NO 55 2 min 0,000 mm 2,8 UV-I 623 W/m 13,4 C 14,7 C 8,0 km/h (2 Bft) 98,21 %
28.09.2017 12:12 14,8 C 13,3 C 91 % 1025,5 hPa 0,0 l/m 5,7 km/h (1 Bft) O-NO 73 2 min 0,000 mm 2,8 UV-I 620 W/m 13,3 C 14,8 C 11,3 km/h (2 Bft) 100,00 %
28.09.2017 12:14 14,8 C 13,3 C 90 % 1025,4 hPa 0,0 l/m 6,0 km/h (2 Bft) O-NO 76 2 min 0,000 mm 2,8 UV-I 626 W/m 13,2 C 14,8 C 8,0 km/h (2 Bft) 100,00 %
28.09.2017 12:16 15,0 C 13,3 C 90 % 1025,4 hPa 0,0 l/m 5,9 km/h (2 Bft) O-NO 59 2 min 0,000 mm 2,9 UV-I 627 W/m 13,4 C 15,0 C 9,7 km/h (2 Bft) 100,00 %
28.09.2017 12:18 15,2 C 13,3 C 89 % 1025,4 hPa 0,0 l/m 5,5 km/h (1 Bft) NO 50 2 min 0,000 mm 2,9 UV-I 627 W/m 13,4 C 15,2 C 8,0 km/h (2 Bft) 100,00 %
28.09.2017 12:20 15,3 C 13,3 C 89 % 1025,4 hPa 0,0 l/m 1,7 km/h (1 Bft) O 79 2 min 0,000 mm 2,9 UV-I 629 W/m 13,5 C 15,3 C 4,8 km/h (1 Bft) 100,00 %
28.09.2017 12:22 15,6 C 13,3 C 88 % 1025,4 hPa 0,0 l/m 2,3 km/h (1 Bft) O-NO 76 2 min 0,000 mm 2,9 UV-I 628 W/m 13,6 C 15,6 C 4,8 km/h (1 Bft) 100,00 %
28.09.2017 12:24 15,7 C 13,3 C 86 % 1025,4 hPa 0,0 l/m 3,1 km/h (1 Bft) O-NO 78 2 min 0,000 mm 3,0 UV-I 627 W/m 13,4 C 15,7 C 4,8 km/h (1 Bft) 100,00 %
28.09.2017 12:26 15,7 C 13,3 C 86 % 1025,4 hPa 0,0 l/m 4,6 km/h (1 Bft) NO 45 2 min 0,000 mm 3,0 UV-I 626 W/m 13,4 C 15,7 C 8,0 km/h (2 Bft) 100,00 %
28.09.2017 12:28 15,8 C 13,3 C 86 % 1025,4 hPa 0,0 l/m 6,0 km/h (2 Bft) NO 39 2 min 0,000 mm 3,0 UV-I 622 W/m 13,5 C 15,8 C 8,0 km/h (2 Bft) 97,56 %
28.09.2017 12:30 16,1 C 13,3 C 85 % 1025,4 hPa 0,0 l/m 4,3 km/h (1 Bft) O-NO 58 2 min 0,000 mm 3,0 UV-I 625 W/m 13,6 C 16,1 C 8,0 km/h (2 Bft) 100,00 %
28.09.2017 12:33 16,1 C 13,3 C 84 % 1025,3 hPa 0,0 l/m 7,4 km/h (2 Bft) NO 56 3 min 0,000 mm 3,0 UV-I 634 W/m 13,4 C 15,6 C 12,9 km/h (3 Bft) 100,00 %
28.09.2017 12:34 16,1 C 13,3 C 84 % 1025,3 hPa 0,0 l/m 5,5 km/h (1 Bft) NO 53 1 min 0,000 mm 3,0 UV-I 627 W/m 13,4 C 16,1 C 8,0 km/h (2 Bft) 98,28 %
28.09.2017 12:36 16,1 C 13,3 C 84 % 1025,4 hPa 0,0 l/m 5,0 km/h (1 Bft) O-SO 115 2 min 0,000 mm 3,0 UV-I 623 W/m 13,4 C 16,1 C 6,4 km/h (2 Bft) 98,39 %
28.09.2017 12:38 16,2 C 13,3 C 85 % 1025,3 hPa 0,0 l/m 5,5 km/h (1 Bft) NO 42 2 min 0,000 mm 3,0 UV-I 629 W/m 13,7 C 16,2 C 8,0 km/h (2 Bft) 97,87 %
28.09.2017 12:40 16,3 C 13,3 C 85 % 1025,3 hPa 0,0 l/m 6,8 km/h (2 Bft) O-NO 57 2 min 0,000 mm 3,0 UV-I 629 W/m 13,8 C 16,1 C 9,7 km/h (2 Bft) 94,74 %
28.09.2017 12:42 16,4 C 13,3 C 83 % 1025,3 hPa 0,0 l/m 6,0 km/h (2 Bft) O 83 2 min 0,000 mm 3,0 UV-I 625 W/m 13,5 C 16,4 C 8,0 km/h (2 Bft) 96,92 %
28.09.2017 12:44 16,6 C 13,3 C 83 % 1025,3 hPa 0,0 l/m 5,2 km/h (1 Bft) N-NO 19 2 min 0,000 mm 3,0 UV-I 630 W/m 13,7 C 16,6 C 11,3 km/h (2 Bft) 97,14 %
28.09.2017 12:46 16,7 C 13,3 C 82 % 1025,3 hPa 0,0 l/m 2,8 km/h (1 Bft) O-NO 67 2 min 0,000 mm 3,1 UV-I 634 W/m 13,6 C 16,7 C 8,0 km/h (2 Bft) 98,11 %
28.09.2017 12:48 16,8 C 13,3 C 81 % 1025,3 hPa 0,0 l/m 5,6 km/h (1 Bft) O 90 2 min 0,000 mm 3,1 UV-I 633 W/m 13,5 C 16,8 C 12,9 km/h (3 Bft) 97,87 %
28.09.2017 12:50 16,8 C 13,3 C 81 % 1025,3 hPa 0,0 l/m 7,4 km/h (2 Bft) NO 49 2 min 0,000 mm 3,1 UV-I 635 W/m 13,5 C 16,3 C 11,3 km/h (2 Bft) 98,00 %
28.09.2017 12:52 17,1 C 13,3 C 82 % 1025,3 hPa 0,0 l/m 5,9 km/h (2 Bft) O 99 2 min 0,000 mm 3,1 UV-I 632 W/m 14,0 C 17,1 C 9,7 km/h (2 Bft) 97,56 %
28.09.2017 12:54 17,1 C 13,3 C 79 % 1025,2 hPa 0,0 l/m 7,0 km/h (2 Bft) O-NO 76 2 min 0,000 mm 3,1 UV-I 634 W/m 13,4 C 16,8 C 11,3 km/h (2 Bft) 98,00 %
28.09.2017 12:56 16,9 C 13,3 C 79 % 1025,2 hPa 0,0 l/m 3,1 km/h (1 Bft) O-SO 117 2 min 0,000 mm 3,1 UV-I 635 W/m 13,2 C 16,9 C 8,0 km/h (2 Bft) 95,45 %
28.09.2017 12:58 17,0 C 13,3 C 80 % 1025,2 hPa 0,0 l/m 5,3 km/h (1 Bft) O-NO 65 2 min 0,000 mm 3,1 UV-I 632 W/m 13,5 C 17,0 C 8,0 km/h (2 Bft) 97,73 %
28.09.2017 13:00 17,2 C 13,3 C 79 % 1025,2 hPa 0,0 l/m 7,3 km/h (2 Bft) O-NO 60 2 min 0,330 mm 3,1 UV-I 630 W/m 13,5 C 16,8 C 11,3 km/h (2 Bft) 94,34 %
28.09.2017 13:02 17,4 C 13,3 C 80 % 1025,2 hPa 0,0 l/m 4,9 km/h (1 Bft) O-NO 58 2 min 0,000 mm 3,1 UV-I 632 W/m 13,9 C 17,4 C 8,0 km/h (2 Bft) 98,00 %
28.09.2017 13:04 17,6 C 13,3 C 76 % 1025,2 hPa 0,0 l/m 6,7 km/h (2 Bft) NO 56 2 min 0,000 mm 3,1 UV-I 634 W/m 13,3 C 17,5 C 11,3 km/h (2 Bft) 97,87 %
28.09.2017 13:06 17,7 C 13,3 C 75 % 1025,2 hPa 0,0 l/m 3,2 km/h (1 Bft) NO 45 2 min 0,000 mm 3,1 UV-I 634 W/m 13,2 C 17,7 C 8,0 km/h (2 Bft) 95,12 %
28.09.2017 13:08 17,7 C 13,3 C 75 % 1025,2 hPa 0,0 l/m 6,2 km/h (2 Bft) O-NO 67 2 min 0,000 mm 3,1 UV-I 634 W/m 13,2 C 17,7 C 9,7 km/h (2 Bft) 97,56 %
28.09.2017 13:10 17,6 C 13,3 C 74 % 1025,2 hPa 0,0 l/m 5,6 km/h (1 Bft) NO 35 2 min 0,000 mm 3,1 UV-I 635 W/m 12,9 C 17,6 C 8,0 km/h (2 Bft) 96,23 %
28.09.2017 13:12 17,8 C 13,3 C 75 % 1025,2 hPa 0,0 l/m 6,5 km/h (2 Bft) O 89 2 min 0,000 mm 3,1 UV-I 635 W/m 13,3 C 17,8 C 9,7 km/h (2 Bft) 97,73 %
28.09.2017 13:14 17,8 C 13,3 C 74 % 1025,1 hPa 0,0 l/m 4,2 km/h (1 Bft) O-NO 71 2 min 0,000 mm 3,1 UV-I 638 W/m 13,1 C 17,8 C 8,0 km/h (2 Bft) 97,62 %
28.09.2017 13:16 17,7 C 13,3 C 74 % 1025,1 hPa 0,0 l/m 4,8 km/h (1 Bft) O-SO 112 2 min 0,000 mm 3,1 UV-I 636 W/m 13,0 C 17,7 C 11,3 km/h (2 Bft) 98,18 %
28.09.2017 13:18 17,8 C 13,3 C 72 % 1025,1 hPa 0,0 l/m 5,6 km/h (1 Bft) O-SO 107 2 min 0,000 mm 3,1 UV-I 638 W/m 12,7 C 17,8 C 9,7 km/h (2 Bft) 97,44 %
28.09.2017 13:20 17,8 C 13,3 C 73 % 1025,1 hPa 0,0 l/m 6,1 km/h (2 Bft) O 86 2 min 0,000 mm 3,1 UV-I 636 W/m 12,9 C 17,8 C 8,0 km/h (2 Bft) 96,23 %
28.09.2017 13:22 17,8 C 13,3 C 73 % 1025,1 hPa 0,0 l/m 5,1 km/h (1 Bft) NO 36 2 min 0,000 mm 3,1 UV-I 640 W/m 12,9 C 17,8 C 9,7 km/h (2 Bft) 96,00 %
28.09.2017 13:24 17,9 C 13,3 C 73 % 1025,1 hPa 0,0 l/m 4,7 km/h (1 Bft) O-NO 69 2 min 0,000 mm 3,1 UV-I 633 W/m 13,0 C 17,9 C 8,0 km/h (2 Bft) 96,00 %
28.09.2017 13:26 18,1 C 13,3 C 74 % 1025,0 hPa 0,0 l/m 5,0 km/h (1 Bft) O 82 2 min 0,000 mm 3,1 UV-I 626 W/m 13,4 C 18,1 C 8,0 km/h (2 Bft) 97,37 %
28.09.2017 13:28 18,2 C 13,3 C 73 % 1025,0 hPa 0,0 l/m 7,0 km/h (2 Bft) O 85 2 min 0,000 mm 3,0 UV-I 618 W/m 13,3 C 17,9 C 11,3 km/h (2 Bft) 98,00 %
28.09.2017 13:30 18,3 C 13,3 C 72 % 1025,0 hPa 0,0 l/m 5,7 km/h (1 Bft) O-NO 60 2 min 0,000 mm 3,0 UV-I 618 W/m 13,2 C 18,3 C 9,7 km/h (2 Bft) 95,74 %
28.09.2017 13:32 18,3 C 13,3 C 71 % 1025,0 hPa 0,0 l/m 6,7 km/h (2 Bft) O 90 2 min 0,000 mm 3,0 UV-I 626 W/m 12,9 C 18,2 C 12,9 km/h (3 Bft) 96,00 %
28.09.2017 13:34 18,3 C 13,3 C 70 % 1025,0 hPa 0,0 l/m 5,1 km/h (1 Bft) O-SO 109 2 min 0,000 mm 3,0 UV-I 624 W/m 12,7 C 18,3 C 8,0 km/h (2 Bft) 97,87 %
28.09.2017 13:36 18,3 C 13,3 C 70 % 1024,9 hPa 0,0 l/m 5,2 km/h (1 Bft) S-SO 147 2 min 0,000 mm 3,0 UV-I 613 W/m 12,7 C 18,3 C 9,7 km/h (2 Bft) 98,00 %
28.09.2017 13:38 18,4 C 13,3 C 73 % 1024,9 hPa 0,0 l/m 4,2 km/h (1 Bft) NO 50 2 min 0,000 mm 3,0 UV-I 609 W/m 13,5 C 18,4 C 8,0 km/h (2 Bft) 97,37 %
28.09.2017 13:40 18,4 C 13,3 C 73 % 1024,9 hPa 0,0 l/m 3,5 km/h (1 Bft) N-NO 20 2 min 0,000 mm 3,0 UV-I 614 W/m 13,5 C 18,4 C 6,4 km/h (2 Bft) 98,11 %
28.09.2017 13:42 18,6 C 13,3 C 73 % 1024,9 hPa 0,0 l/m 3,0 km/h (1 Bft) N-NO 25 2 min 0,000 mm 2,9 UV-I 600 W/m 13,7 C 18,6 C 4,8 km/h (1 Bft) 97,56 %
28.09.2017 13:44 18,8 C 13,3 C 73 % 1024,9 hPa 0,0 l/m 4,0 km/h (1 Bft) N-NO 19 2 min 0,000 mm 2,9 UV-I 607 W/m 13,9 C 18,8 C 6,4 km/h (2 Bft) 98,21 %
28.09.2017 13:46 18,7 C 13,3 C 70 % 1024,9 hPa 0,0 l/m 1,6 km/h (1 Bft) N-NW 348 2 min 0,000 mm 2,9 UV-I 577 W/m 13,1 C 18,7 C 3,2 km/h (1 Bft) 94,74 %
28.09.2017 13:48 18,6 C 13,3 C 71 % 1024,9 hPa 0,0 l/m 2,5 km/h (1 Bft) NO 40 2 min 0,000 mm 2,9 UV-I 586 W/m 13,2 C 18,6 C 6,4 km/h (2 Bft) 98,00 %
28.09.2017 13:50 18,7 C 13,3 C 74 % 1024,9 hPa 0,0 l/m 6,3 km/h (2 Bft) N-NO 30 2 min 0,000 mm 2,8 UV-I 578 W/m 14,0 C 18,7 C 11,3 km/h (2 Bft) 98,00 %
28.09.2017 13:52 18,6 C 13,3 C 69 % 1024,8 hPa 0,0 l/m 2,9 km/h (1 Bft) N-NO 21 2 min 0,000 mm 2,8 UV-I 591 W/m 12,8 C 18,6 C 4,8 km/h (1 Bft) 95,12 %
28.09.2017 13:54 18,7 C 13,3 C 72 % 1024,9 hPa 0,0 l/m 2,2 km/h (1 Bft) N-NO 13 2 min 0,000 mm 3,0 UV-I 645 W/m 13,5 C 18,7 C 6,4 km/h (2 Bft) 96,23 %
28.09.2017 13:56 18,8 C 13,3 C 70 % 1024,8 hPa 0,0 l/m 1,0 km/h (0 Bft) NO 36 2 min 0,000 mm 3,0 UV-I 655 W/m 13,2 C 18,8 C 3,2 km/h (1 Bft) 97,87 %
28.09.2017 13:58 18,8 C 13,3 C 70 % 1024,8 hPa 0,0 l/m 1,1 km/h (1 Bft) N-NW 344 2 min 0,000 mm 2,9 UV-I 640 W/m 13,2 C 18,8 C 3,2 km/h (1 Bft) 97,44 %
28.09.2017 14:00 18,8 C 13,3 C 72 % 1024,8 hPa 0,0 l/m 1,4 km/h (1 Bft) NO 51 2 min 0,356 mm 2,8 UV-I 610 W/m 13,6 C 18,8 C 6,4 km/h (2 Bft) 96,00 %
28.09.2017 14:02 19,1 C 13,3 C 72 % 1024,8 hPa 0,0 l/m 6,7 km/h (2 Bft) NO 42 2 min 0,000 mm 2,8 UV-I 585 W/m 13,9 C 19,0 C 9,7 km/h (2 Bft) 98,11 %
28.09.2017 14:04 19,1 C 13,3 C 71 % 1024,8 hPa 0,0 l/m 6,7 km/h (2 Bft) N-NO 31 2 min 0,000 mm 2,7 UV-I 579 W/m 13,7 C 19,0 C 9,7 km/h (2 Bft) 95,12 %
28.09.2017 14:06 19,2 C 13,3 C 69 % 1024,7 hPa 0,0 l/m 7,4 km/h (2 Bft) O 90 2 min 0,000 mm 2,7 UV-I 588 W/m 13,4 C 18,8 C 11,3 km/h (2 Bft) 98,00 %
28.09.2017 14:08 19,3 C 13,3 C 68 % 1024,7 hPa 0,0 l/m 7,7 km/h (2 Bft) O 97 2 min 0,000 mm 2,7 UV-I 589 W/m 13,2 C 18,7 C 11,3 km/h (2 Bft) 97,56 %
28.09.2017 14:10 19,3 C 13,3 C 69 % 1024,7 hPa 0,0 l/m 6,0 km/h (2 Bft) NO 55 2 min 0,000 mm 2,7 UV-I 588 W/m 13,5 C 19,3 C 9,7 km/h (2 Bft) 94,00 %
28.09.2017 14:12 19,4 C 13,3 C 68 % 1024,7 hPa 0,0 l/m 5,4 km/h (1 Bft) O-NO 57 2 min 0,000 mm 2,6 UV-I 568 W/m 13,3 C 19,4 C 11,3 km/h (2 Bft) 97,56 %
28.09.2017 14:14 19,4 C 13,3 C 66 % 1024,7 hPa 0,0 l/m 6,3 km/h (2 Bft) O-NO 76 2 min 0,000 mm 2,6 UV-I 570 W/m 12,9 C 19,4 C 11,3 km/h (2 Bft) 97,87 %
28.09.2017 14:16 19,4 C 13,3 C 66 % 1024,6 hPa 0,0 l/m 4,5 km/h (1 Bft) O-NO 63 2 min 0,000 mm 2,5 UV-I 542 W/m 12,9 C 19,4 C 8,0 km/h (2 Bft) 97,87 %
28.09.2017 14:18 19,5 C 13,3 C 66 % 1024,7 hPa 0,0 l/m 8,4 km/h (2 Bft) NO 41 2 min 0,000 mm 2,4 UV-I 481 W/m 13,0 C 18,7 C 12,9 km/h (3 Bft) 94,34 %
28.09.2017 14:20 19,6 C 13,3 C 66 % 1024,6 hPa 0,0 l/m 4,5 km/h (1 Bft) O 96 2 min 0,000 mm 2,4 UV-I 483 W/m 13,1 C 19,6 C 8,0 km/h (2 Bft) 96,00 %
28.09.2017 14:22 19,4 C 13,3 C 66 % 1024,7 hPa 0,0 l/m 4,3 km/h (1 Bft) N-NO 14 2 min 0,000 mm 2,4 UV-I 490 W/m 12,9 C 19,4 C 11,3 km/h (2 Bft) 95,12 %
28.09.2017 14:24 19,6 C 13,3 C 67 % 1024,7 hPa 0,0 l/m 8,2 km/h (2 Bft) O-NO 68 2 min 0,000 mm 2,4 UV-I 490 W/m 13,3 C 18,9 C 12,9 km/h (3 Bft) 97,87 %
28.09.2017 14:26 19,4 C 13,3 C 65 % 1024,7 hPa 0,0 l/m 3,8 km/h (1 Bft) O-NO 57 2 min 0,000 mm 2,3 UV-I 491 W/m 12,6 C 19,4 C 8,0 km/h (2 Bft) 93,62 %
28.09.2017 14:28 19,5 C 13,3 C 66 % 1024,6 hPa 0,0 l/m 3,9 km/h (1 Bft) O-SO 102 2 min 0,000 mm 2,4 UV-I 519 W/m 13,0 C 19,5 C 9,7 km/h (2 Bft) 96,00 %
28.09.2017 14:30 19,6 C 13,3 C 65 % 1024,7 hPa 0,0 l/m 5,8 km/h (2 Bft) O-NO 62 2 min 0,000 mm 2,4 UV-I 520 W/m 12,8 C 19,6 C 11,3 km/h (2 Bft) 95,12 %
28.09.2017 14:32 19,6 C 13,3 C 68 % 1024,7 hPa 0,0 l/m 5,8 km/h (2 Bft) O-NO 69 2 min 0,000 mm 2,3 UV-I 509 W/m 13,5 C 19,6 C 8,0 km/h (2 Bft) 92,00 %
28.09.2017 14:34 19,6 C 13,3 C 68 % 1024,7 hPa 0,0 l/m 6,0 km/h (2 Bft) O 92 2 min 0,000 mm 2,3 UV-I 531 W/m 13,5 C 19,6 C 9,7 km/h (2 Bft) 92,59 %
28.09.2017 14:36 19,6 C 13,3 C 68 % 1024,6 hPa 0,0 l/m 6,6 km/h (2 Bft) O 82 2 min 0,000 mm 2,3 UV-I 490 W/m 13,5 C 19,5 C 9,7 km/h (2 Bft) 97,14 %
28.09.2017 14:38 19,6 C 13,3 C 67 % 1024,6 hPa 0,0 l/m 7,3 km/h (2 Bft) O-NO 65 2 min 0,000 mm 2,2 UV-I 454 W/m 13,3 C 19,2 C 11,3 km/h (2 Bft) 95,24 %
28.09.2017 14:40 19,5 C 13,3 C 66 % 1024,6 hPa 0,0 l/m 8,7 km/h (2 Bft) O 90 2 min 0,000 mm 2,2 UV-I 456 W/m 13,0 C 18,6 C 14,5 km/h (3 Bft) 94,00 %
28.09.2017 14:42 19,5 C 13,3 C 66 % 1024,5 hPa 0,0 l/m 5,6 km/h (1 Bft) NO 49 2 min 0,000 mm 2,1 UV-I 456 W/m 13,0 C 19,5 C 9,7 km/h (2 Bft) 93,62 %
28.09.2017 14:44 19,6 C 13,3 C 66 % 1024,5 hPa 0,0 l/m 8,5 km/h (2 Bft) O-NO 72 2 min 0,000 mm 2,2 UV-I 491 W/m 13,1 C 18,7 C 14,5 km/h (3 Bft) 96,00 %
28.09.2017 14:46 19,7 C 13,3 C 65 % 1024,5 hPa 0,0 l/m 8,4 km/h (2 Bft) NO 48 2 min 0,000 mm 2,2 UV-I 511 W/m 12,9 C 18,9 C 12,9 km/h (3 Bft) 94,74 %
28.09.2017 14:48 19,8 C 13,3 C 67 % 1024,5 hPa 0,0 l/m 6,8 km/h (2 Bft) O-NO 63 2 min 0,000 mm 2,2 UV-I 520 W/m 13,5 C 19,6 C 8,0 km/h (2 Bft) 95,74 %
28.09.2017 14:50 19,8 C 13,3 C 66 % 1024,6 hPa 0,0 l/m 4,0 km/h (1 Bft) O-NO 73 2 min 0,000 mm 2,2 UV-I 525 W/m 13,3 C 19,8 C 8,0 km/h (2 Bft) 96,23 %
28.09.2017 14:52 19,9 C 13,3 C 64 % 1024,5 hPa 0,0 l/m 8,8 km/h (2 Bft) NO 53 2 min 0,000 mm 2,2 UV-I 531 W/m 12,9 C 18,9 C 12,9 km/h (3 Bft) 96,00 %
28.09.2017 14:54 19,9 C 13,3 C 64 % 1024,6 hPa 0,0 l/m 8,2 km/h (2 Bft) N-NO 16 2 min 0,000 mm 2,1 UV-I 487 W/m 12,9 C 19,2 C 11,3 km/h (2 Bft) 95,12 %
28.09.2017 14:56 19,8 C 13,3 C 66 % 1024,6 hPa 0,0 l/m 3,6 km/h (1 Bft) N-NO 21 2 min 0,000 mm 2,0 UV-I 484 W/m 13,3 C 19,8 C 8,0 km/h (2 Bft) 98,00 %
28.09.2017 14:58 19,7 C 13,3 C 67 % 1024,6 hPa 0,0 l/m 2,6 km/h (1 Bft) N-NO 27 2 min 0,000 mm 2,0 UV-I 462 W/m 13,4 C 19,7 C 4,8 km/h (1 Bft) 97,87 %
28.09.2017 15:00 19,8 C 13,3 C 67 % 1024,5 hPa 0,0 l/m 3,6 km/h (1 Bft) NO 46 2 min 0,330 mm 2,0 UV-I 465 W/m 13,5 C 19,8 C 6,4 km/h (2 Bft) 97,87 %
28.09.2017 15:02 19,9 C 13,3 C 66 % 1024,5 hPa 0,0 l/m 7,9 km/h (2 Bft) O-NO 59 2 min 0,000 mm 2,0 UV-I 466 W/m 13,4 C 19,3 C 12,9 km/h (3 Bft) 97,87 %
28.09.2017 15:04 19,9 C 13,3 C 64 % 1024,6 hPa 0,0 l/m 7,3 km/h (2 Bft) O-NO 75 2 min 0,000 mm 1,9 UV-I 462 W/m 12,9 C 19,5 C 9,7 km/h (2 Bft) 100,00 %
28.09.2017 15:06 19,9 C 13,3 C 64 % 1024,5 hPa 0,0 l/m 5,6 km/h (1 Bft) O-NO 67 2 min 0,000 mm 1,8 UV-I 431 W/m 12,9 C 19,9 C 6,4 km/h (2 Bft) 100,00 %
28.09.2017 15:08 19,9 C 13,3 C 64 % 1024,5 hPa 0,0 l/m 3,5 km/h (1 Bft) NO 48 2 min 0,000 mm 1,8 UV-I 442 W/m 12,9 C 19,9 C 4,8 km/h (1 Bft) 100,00 %
28.09.2017 15:10 19,8 C 13,3 C 68 % 1024,5 hPa 0,0 l/m 5,6 km/h (1 Bft) NO 51 2 min 0,000 mm 1,8 UV-I 450 W/m 13,7 C 19,8 C 9,7 km/h (2 Bft) 97,73 %
28.09.2017 15:12 19,8 C 13,3 C 65 % 1024,5 hPa 0,0 l/m 4,3 km/h (1 Bft) O-NO 59 2 min 0,000 mm 1,8 UV-I 459 W/m 13,0 C 19,8 C 6,4 km/h (2 Bft) 98,21 %
28.09.2017 15:14 19,8 C 13,3 C 66 % 1024,5 hPa 0,0 l/m 4,2 km/h (1 Bft) NO 41 2 min 0,000 mm 1,8 UV-I 474 W/m 13,3 C 19,8 C 8,0 km/h (2 Bft) 100,00 %
28.09.2017 15:16 19,9 C 13,3 C 66 % 1024,5 hPa 0,0 l/m 6,4 km/h (2 Bft) NO 51 2 min 0,000 mm 1,8 UV-I 464 W/m 13,4 C 19,9 C 9,7 km/h (2 Bft) 100,00 %
28.09.2017 15:18 20,1 C 13,3 C 64 % 1024,5 hPa 0,0 l/m 7,3 km/h (2 Bft) O-NO 71 2 min 0,000 mm 1,7 UV-I 445 W/m 13,1 C 19,7 C 12,9 km/h (3 Bft) 100,00 %
28.09.2017 15:20 20,0 C 13,3 C 65 % 1024,4 hPa 0,0 l/m 7,1 km/h (2 Bft) O-NO 60 2 min 0,000 mm 1,7 UV-I 415 W/m 13,2 C 19,7 C 11,3 km/h (2 Bft) 100,00 %
28.09.2017 15:22 20,1 C 13,3 C 65 % 1024,5 hPa 0,0 l/m 4,1 km/h (1 Bft) NO 53 2 min 0,000 mm 1,6 UV-I 417 W/m 13,3 C 20,1 C 6,4 km/h (2 Bft) 100,00 %
28.09.2017 15:24 20,0 C 13,3 C 63 % 1024,5 hPa 0,0 l/m 5,1 km/h (1 Bft) O-NO 78 2 min 0,000 mm 1,6 UV-I 400 W/m 12,7 C 20,0 C 6,4 km/h (2 Bft) 100,00 %
28.09.2017 15:26 19,9 C 13,3 C 63 % 1024,4 hPa 0,0 l/m 4,2 km/h (1 Bft) NO 51 2 min 0,000 mm 1,6 UV-I 402 W/m 12,6 C 19,9 C 8,0 km/h (2 Bft) 100,00 %
28.09.2017 15:28 20,1 C 13,3 C 68 % 1024,4 hPa 0,0 l/m 2,0 km/h (1 Bft) NO 51 2 min 0,000 mm 1,6 UV-I 416 W/m 14,0 C 20,1 C 4,8 km/h (1 Bft) 100,00 %
28.09.2017 15:30 20,1 C 13,3 C 67 % 1024,5 hPa 0,0 l/m 5,9 km/h (2 Bft) NO 44 2 min 0,000 mm 1,5 UV-I 414 W/m 13,8 C 20,1 C 8,0 km/h (2 Bft) 100,00 %
28.09.2017 15:32 20,0 C 13,3 C 67 % 1024,5 hPa 0,0 l/m 3,5 km/h (1 Bft) NO 44 2 min 0,000 mm 1,5 UV-I 406 W/m 13,7 C 20,0 C 4,8 km/h (1 Bft) 100,00 %
28.09.2017 15:34 20,1 C 13,3 C 67 % 1024,5 hPa 0,0 l/m 5,7 km/h (1 Bft) O-NO 59 2 min 0,000 mm 1,5 UV-I 395 W/m 13,8 C 20,1 C 11,3 km/h (2 Bft) 98,11 %
28.09.2017 15:36 20,2 C 13,3 C 65 % 1024,5 hPa 0,0 l/m 4,7 km/h (1 Bft) O-NO 57 2 min 0,000 mm 1,4 UV-I 368 W/m 13,4 C 20,2 C 8,0 km/h (2 Bft) 100,00 %
28.09.2017 15:38 20,2 C 13,3 C 65 % 1024,5 hPa 0,0 l/m 4,9 km/h (1 Bft) O-NO 69 2 min 0,000 mm 1,4 UV-I 360 W/m 13,4 C 20,2 C 8,0 km/h (2 Bft) 100,00 %
28.09.2017 15:40 20,0 C 13,3 C 64 % 1024,4 hPa 0,0 l/m 3,8 km/h (1 Bft) NO 54 2 min 0,000 mm 1,3 UV-I 336 W/m 13,0 C 20,0 C 8,0 km/h (2 Bft) 100,00 %
28.09.2017 15:42 20,0 C 13,3 C 66 % 1024,4 hPa 0,0 l/m 6,5 km/h (2 Bft) O-NO 57 2 min 0,000 mm 1,3 UV-I 327 W/m 13,4 C 20,0 C 9,7 km/h (2 Bft) 100,00 %
28.09.2017 15:44 20,0 C 13,3 C 66 % 1024,4 hPa 0,0 l/m 4,9 km/h (1 Bft) O 101 2 min 0,000 mm 1,2 UV-I 285 W/m 13,4 C 20,0 C 8,0 km/h (2 Bft) 100,00 %
28.09.2017 15:46 19,9 C 13,3 C 66 % 1024,4 hPa 0,0 l/m 6,6 km/h (2 Bft) O-NO 66 0 min 0,000 mm 1,1 UV-I 248 W/m 13,4 C 19,8 C 9,7 km/h (2 Bft) 100,00 %
28.09.2017 15:48 19,8 C 13,3 C 64 % 1024,3 hPa 0,0 l/m 5,0 km/h (1 Bft) O-NO 70 0 min 0,000 mm 1,1 UV-I 244 W/m 12,8 C 19,8 C 9,7 km/h (2 Bft) 98,00 %
28.09.2017 15:50 19,9 C 13,3 C 64 % 1024,4 hPa 0,0 l/m 6,9 km/h (2 Bft) O-NO 67 2 min 0,000 mm 1,1 UV-I 268 W/m 12,9 C 19,7 C 9,7 km/h (2 Bft) 100,00 %
28.09.2017 15:52 19,8 C 13,3 C 63 % 1024,4 hPa 0,0 l/m 5,0 km/h (1 Bft) O-NO 78 2 min 0,000 mm 1,1 UV-I 258 W/m 12,5 C 19,8 C 6,4 km/h (2 Bft) 100,00 %
28.09.2017 15:54 19,8 C 13,3 C 63 % 1024,4 hPa 0,0 l/m 5,2 km/h (1 Bft) O-NO 64 2 min 0,000 mm 1,1 UV-I 265 W/m 12,5 C 19,8 C 6,4 km/h (2 Bft) 100,00 %
28.09.2017 15:56 19,8 C 13,3 C 62 % 1024,4 hPa 0,0 l/m 5,3 km/h (1 Bft) NO 51 2 min 0,000 mm 1,1 UV-I 276 W/m 12,3 C 19,8 C 8,0 km/h (2 Bft) 100,00 %
28.09.2017 15:58 19,8 C 13,3 C 63 % 1024,4 hPa 0,0 l/m 5,1 km/h (1 Bft) NO 34 2 min 0,000 mm 1,1 UV-I 297 W/m 12,5 C 19,8 C 8,0 km/h (2 Bft) 100,00 %
28.09.2017 16:00 19,8 C 13,3 C 64 % 1024,4 hPa 0,0 l/m 6,0 km/h (2 Bft) NO 39 2 min 0,229 mm 1,0 UV-I 277 W/m 12,8 C 19,8 C 8,0 km/h (2 Bft) 100,00 %
28.09.2017 16:02 19,7 C 13,3 C 64 % 1024,4 hPa 0,0 l/m 4,6 km/h (1 Bft) NO 40 2 min 0,000 mm 1,0 UV-I 262 W/m 12,7 C 19,7 C 6,4 km/h (2 Bft) 100,00 %
28.09.2017 16:04 19,6 C 13,3 C 64 % 1024,4 hPa 0,0 l/m 4,4 km/h (1 Bft) NO 49 2 min 0,000 mm 0,9 UV-I 254 W/m 12,6 C 19,6 C 6,4 km/h (2 Bft) 100,00 %
28.09.2017 16:06 19,6 C 13,3 C 65 % 1024,4 hPa 0,0 l/m 4,2 km/h (1 Bft) NO 49 2 min 0,000 mm 0,9 UV-I 253 W/m 12,8 C 19,6 C 6,4 km/h (2 Bft) 96,00 %
28.09.2017 16:08 19,7 C 13,3 C 64 % 1024,4 hPa 0,0 l/m 4,7 km/h (1 Bft) O-NO 77 2 min 0,000 mm 0,9 UV-I 258 W/m 12,7 C 19,7 C 8,0 km/h (2 Bft) 100,00 %
28.09.2017 16:10 19,7 C 13,3 C 64 % 1024,4 hPa 0,0 l/m 5,4 km/h (1 Bft) O-NO 73 2 min 0,000 mm 0,9 UV-I 260 W/m 12,7 C 19,7 C 6,4 km/h (2 Bft) 100,00 %
28.09.2017 16:12 19,8 C 13,3 C 63 % 1024,4 hPa 0,0 l/m 4,3 km/h (1 Bft) O-NO 57 2 min 0,000 mm 0,9 UV-I 250 W/m 12,5 C 19,8 C 8,0 km/h (2 Bft) 100,00 %
28.09.2017 16:14 19,8 C 13,9 C 64 % 1024,4 hPa 0,0 l/m 5,2 km/h (1 Bft) O-NO 57 0 min 0,000 mm 0,8 UV-I 215 W/m 12,8 C 19,8 C 6,4 km/h (2 Bft) 100,00 %
28.09.2017 16:16 19,8 C 13,9 C 63 % 1024,4 hPa 0,0 l/m 4,5 km/h (1 Bft) O-NO 59 0 min 0,000 mm 0,8 UV-I 195 W/m 12,5 C 19,8 C 8,0 km/h (2 Bft) 100,00 %
28.09.2017 16:18 19,7 C 13,3 C 64 % 1024,4 hPa 0,0 l/m 4,7 km/h (1 Bft) O-NO 62 0 min 0,000 mm 0,8 UV-I 178 W/m 12,7 C 19,7 C 6,4 km/h (2 Bft) 100,00 %
28.09.2017 16:20 19,7 C 13,3 C 67 % 1024,4 hPa 0,0 l/m 3,9 km/h (1 Bft) O-NO 62 0 min 0,000 mm 0,8 UV-I 174 W/m 13,4 C 19,7 C 4,8 km/h (1 Bft) 96,55 %
28.09.2017 16:22 19,5 C 13,3 C 65 % 1024,4 hPa 0,0 l/m 3,1 km/h (1 Bft) O-NO 62 0 min 0,000 mm 0,7 UV-I 169 W/m 12,7 C 19,5 C 4,8 km/h (1 Bft) 98,21 %
28.09.2017 16:24 19,4 C 13,9 C 70 % 1024,4 hPa 0,0 l/m 0,0 km/h (0 Bft) O-NO 62 0 min 0,000 mm 0,7 UV-I 164 W/m 13,8 C 19,4 C 1,6 km/h (1 Bft) 96,23 %
28.09.2017 16:26 19,2 C 13,3 C 70 % 1024,4 hPa 0,0 l/m 0,1 km/h (0 Bft) O-NO 62 0 min 0,000 mm 0,7 UV-I 167 W/m 13,6 C 19,2 C 1,6 km/h (1 Bft) 93,62 %
28.09.2017 16:28 19,1 C 13,9 C 70 % 1024,4 hPa 0,0 l/m 1,0 km/h (0 Bft) O-NO 62 0 min 0,000 mm 0,7 UV-I 190 W/m 13,5 C 19,1 C 4,8 km/h (1 Bft) 98,00 %
28.09.2017 16:30 19,0 C 13,3 C 69 % 1024,4 hPa 0,0 l/m 2,0 km/h (1 Bft) O-NO 62 2 min 0,000 mm 0,7 UV-I 210 W/m 13,2 C 19,0 C 4,8 km/h (1 Bft) 95,74 %
28.09.2017 16:32 19,0 C 13,9 C 71 % 1024,4 hPa 0,0 l/m 1,6 km/h (1 Bft) O-NO 62 0 min 0,000 mm 0,7 UV-I 167 W/m 13,6 C 19,0 C 4,8 km/h (1 Bft) 97,22 %
28.09.2017 16:34 18,9 C 13,9 C 70 % 1024,4 hPa 0,0 l/m 0,8 km/h (0 Bft) O-NO 62 0 min 0,000 mm 0,6 UV-I 157 W/m 13,3 C 18,9 C 3,2 km/h (1 Bft) 98,11 %
28.09.2017 16:36 18,9 C 13,9 C 70 % 1024,4 hPa 0,0 l/m 0,8 km/h (0 Bft) O-NO 62 0 min 0,000 mm 0,6 UV-I 174 W/m 13,3 C 18,9 C 3,2 km/h (1 Bft) 98,00 %
28.09.2017 16:38 18,9 C 13,9 C 71 % 1024,4 hPa 0,0 l/m 0,6 km/h (0 Bft) O-NO 62 0 min 0,000 mm 0,6 UV-I 180 W/m 13,5 C 18,9 C 3,2 km/h (1 Bft) 95,12 %
28.09.2017 16:40 18,9 C 13,9 C 70 % 1024,4 hPa 0,0 l/m 2,0 km/h (1 Bft) O-NO 62 2 min 0,000 mm 0,6 UV-I 200 W/m 13,3 C 18,9 C 4,8 km/h (1 Bft) 98,00 %
28.09.2017 16:42 18,9 C 13,9 C 71 % 1024,4 hPa 0,0 l/m 0,2 km/h (0 Bft) O-NO 62 2 min 0,000 mm 0,6 UV-I 218 W/m 13,5 C 18,9 C 1,6 km/h (1 Bft) 96,00 %
28.09.2017 16:44 18,9 C 13,9 C 70 % 1024,4 hPa 0,0 l/m 0,1 km/h (0 Bft) O-NO 62 2 min 0,000 mm 0,6 UV-I 217 W/m 13,3 C 18,9 C 1,6 km/h (1 Bft) 97,87 %
28.09.2017 16:46 19,0 C 13,9 C 71 % 1024,4 hPa 0,0 l/m 0,0 km/h (0 Bft) O-NO 62 2 min 0,000 mm 0,6 UV-I 253 W/m 13,6 C 19,0 C 0,0 km/h (0 Bft) 97,56 %
28.09.2017 16:48 19,1 C 13,9 C 70 % 1024,4 hPa 0,0 l/m 1,0 km/h (0 Bft) O-NO 62 2 min 0,000 mm 0,6 UV-I 269 W/m 13,5 C 19,1 C 3,2 km/h (1 Bft) 97,37 %
28.09.2017 16:50 19,2 C 13,9 C 68 % 1024,4 hPa 0,0 l/m 0,9 km/h (0 Bft) O-NO 62 2 min 0,000 mm 0,6 UV-I 244 W/m 13,1 C 19,2 C 3,2 km/h (1 Bft) 96,23 %
28.09.2017 16:52 19,3 C 13,9 C 70 % 1024,4 hPa 0,0 l/m 3,3 km/h (1 Bft) NO 40 2 min 0,000 mm 0,6 UV-I 221 W/m 13,7 C 19,3 C 6,4 km/h (2 Bft) 96,15 %
28.09.2017 16:54 19,3 C 13,9 C 70 % 1024,4 hPa 0,0 l/m 0,6 km/h (0 Bft) NO 40 2 min 0,000 mm 0,6 UV-I 234 W/m 13,7 C 19,3 C 3,2 km/h (1 Bft) 98,00 %
28.09.2017 16:56 19,3 C 13,9 C 70 % 1024,4 hPa 0,0 l/m 2,6 km/h (1 Bft) N-NO 28 2 min 0,000 mm 0,6 UV-I 236 W/m 13,7 C 19,3 C 6,4 km/h (2 Bft) 97,87 %
28.09.2017 16:58 19,3 C 13,9 C 70 % 1024,4 hPa 0,0 l/m 2,2 km/h (1 Bft) N-NO 28 2 min 0,000 mm 0,5 UV-I 232 W/m 13,7 C 19,3 C 6,4 km/h (2 Bft) 100,00 %
28.09.2017 17:00 19,3 C 13,9 C 70 % 1024,4 hPa 0,0 l/m 5,0 km/h (1 Bft) NO 41 2 min 0,127 mm 0,5 UV-I 227 W/m 13,7 C 19,3 C 6,4 km/h (2 Bft) 100,00 %
28.09.2017 17:02 19,3 C 13,9 C 70 % 1024,4 hPa 0,0 l/m 3,7 km/h (1 Bft) NO 41 2 min 0,000 mm 0,5 UV-I 229 W/m 13,7 C 19,3 C 6,4 km/h (2 Bft) 98,25 %
28.09.2017 17:04 19,3 C 13,9 C 70 % 1024,4 hPa 0,0 l/m 4,8 km/h (1 Bft) NO 37 2 min 0,000 mm 0,5 UV-I 213 W/m 13,7 C 19,3 C 6,4 km/h (2 Bft) 100,00 %
28.09.2017 17:06 19,3 C 13,9 C 70 % 1024,4 hPa 0,0 l/m 3,0 km/h (1 Bft) NO 37 2 min 0,000 mm 0,5 UV-I 181 W/m 13,7 C 19,3 C 6,4 km/h (2 Bft) 100,00 %
28.09.2017 17:08 19,3 C 13,9 C 70 % 1024,4 hPa 0,0 l/m 3,8 km/h (1 Bft) NO 38 2 min 0,000 mm 0,1 UV-I 167 W/m 13,7 C 19,3 C 8,0 km/h (2 Bft) 98,11 %
28.09.2017 17:10 19,3 C 13,9 C 70 % 1024,4 hPa 0,0 l/m 5,3 km/h (1 Bft) NO 44 2 min 0,000 mm 0,0 UV-I 149 W/m 13,7 C 19,3 C 8,0 km/h (2 Bft) 100,00 %
28.09.2017 17:12 19,3 C 13,9 C 70 % 1024,4 hPa 0,0 l/m 2,1 km/h (1 Bft) NO 44 0 min 0,000 mm 0,0 UV-I 133 W/m 13,7 C 19,3 C 3,2 km/h (1 Bft) 100,00 %
28.09.2017 17:14 19,3 C 13,9 C 70 % 1024,4 hPa 0,0 l/m 1,7 km/h (1 Bft) NO 44 0 min 0,000 mm 0,0 UV-I 119 W/m 13,7 C 19,3 C 4,8 km/h (1 Bft) 97,73 %
28.09.2017 17:16 19,3 C 13,9 C 70 % 1024,4 hPa 0,0 l/m 2,9 km/h (1 Bft) NO 44 0 min 0,000 mm 0,0 UV-I 109 W/m 13,7 C 19,3 C 4,8 km/h (1 Bft) 97,87 %
28.09.2017 17:18 19,3 C 13,9 C 70 % 1024,4 hPa 0,0 l/m 3,1 km/h (1 Bft) NO 44 0 min 0,000 mm 0,0 UV-I 104 W/m 13,7 C 19,3 C 4,8 km/h (1 Bft) 100,00 %
28.09.2017 17:20 20,0 C 13,9 C 68 % 1024,4 hPa 0,0 l/m 1,4 km/h (1 Bft) NO 44 0 min 0,000 mm 0,0 UV-I 100 W/m 13,9 C 20,0 C 3,2 km/h (1 Bft) 100,00 %
28.09.2017 17:22 19,6 C 13,9 C 68 % 1024,4 hPa 0,0 l/m 1,2 km/h (1 Bft) NO 44 0 min 0,000 mm 0,0 UV-I 97 W/m 13,5 C 19,6 C 3,2 km/h (1 Bft) 100,00 %
28.09.2017 17:24 19,3 C 13,9 C 69 % 1024,4 hPa 0,0 l/m 0,7 km/h (0 Bft) NO 44 0 min 0,000 mm 0,0 UV-I 94 W/m 13,5 C 19,3 C 1,6 km/h (1 Bft) 97,87 %
28.09.2017 17:26 19,1 C 13,9 C 70 % 1024,4 hPa 0,0 l/m 2,0 km/h (1 Bft) NO 44 0 min 0,000 mm 0,0 UV-I 90 W/m 13,5 C 19,1 C 3,2 km/h (1 Bft) 100,00 %
28.09.2017 17:28 18,9 C 13,9 C 72 % 1024,5 hPa 0,0 l/m 2,3 km/h (1 Bft) NO 44 0 min 0,000 mm 0,0 UV-I 88 W/m 13,7 C 18,9 C 4,8 km/h (1 Bft) 100,00 %
28.09.2017 17:30 18,8 C 13,9 C 72 % 1024,5 hPa 0,0 l/m 1,1 km/h (1 Bft) NO 44 0 min 0,000 mm 0,0 UV-I 84 W/m 13,6 C 18,8 C 1,6 km/h (1 Bft) 100,00 %
28.09.2017 17:32 18,7 C 13,9 C 72 % 1024,4 hPa 0,0 l/m 0,6 km/h (0 Bft) NO 44 0 min 0,000 mm 0,0 UV-I 81 W/m 13,5 C 18,7 C 3,2 km/h (1 Bft) 100,00 %
28.09.2017 17:34 18,6 C 13,9 C 73 % 1024,4 hPa 0,0 l/m 1,9 km/h (1 Bft) NO 44 0 min 0,000 mm 0,0 UV-I 78 W/m 13,7 C 18,6 C 3,2 km/h (1 Bft) 100,00 %
28.09.2017 17:36 18,5 C 13,9 C 73 % 1024,5 hPa 0,0 l/m 0,4 km/h (0 Bft) NO 44 0 min 0,000 mm 0,0 UV-I 76 W/m 13,6 C 18,5 C 1,6 km/h (1 Bft) 100,00 %
28.09.2017 17:38 18,4 C 13,9 C 73 % 1024,4 hPa 0,0 l/m 0,5 km/h (0 Bft) NO 44 0 min 0,000 mm 0,0 UV-I 73 W/m 13,5 C 18,4 C 1,6 km/h (1 Bft) 97,56 %
28.09.2017 17:40 18,4 C 13,9 C 73 % 1024,4 hPa 0,0 l/m 0,8 km/h (0 Bft) NO 44 0 min 0,000 mm 0,0 UV-I 70 W/m 13,5 C 18,4 C 1,6 km/h (1 Bft) 100,00 %
28.09.2017 17:42 18,4 C 13,9 C 74 % 1024,4 hPa 0,0 l/m 0,1 km/h (0 Bft) NO 44 0 min 0,000 mm 0,0 UV-I 69 W/m 13,7 C 18,4 C 1,6 km/h (1 Bft) 98,00 %
28.09.2017 17:44 18,3 C 13,9 C 75 % 1024,4 hPa 0,0 l/m 0,0 km/h (0 Bft) NO 44 0 min 0,000 mm 0,0 UV-I 67 W/m 13,8 C 18,3 C 0,0 km/h (0 Bft) 100,00 %
28.09.2017 17:46 18,2 C 13,9 C 76 % 1024,4 hPa 0,0 l/m 0,3 km/h (0 Bft) NO 44 0 min 0,000 mm 0,0 UV-I 63 W/m 13,9 C 18,2 C 1,6 km/h (1 Bft) 100,00 %
28.09.2017 17:48 18,0 C 13,9 C 76 % 1024,5 hPa 0,0 l/m 0,8 km/h (0 Bft) NO 44 0 min 0,000 mm 0,0 UV-I 60 W/m 13,7 C 18,0 C 1,6 km/h (1 Bft) 100,00 %
28.09.2017 17:50 17,9 C 13,9 C 76 % 1024,4 hPa 0,0 l/m 1,9 km/h (1 Bft) NO 44 0 min 0,000 mm 0,0 UV-I 56 W/m 13,6 C 17,9 C 3,2 km/h (1 Bft) 100,00 %
28.09.2017 17:52 17,9 C 13,9 C 77 % 1024,4 hPa 0,0 l/m 2,3 km/h (1 Bft) NO 44 0 min 0,000 mm 0,0 UV-I 54 W/m 13,8 C 17,9 C 3,2 km/h (1 Bft) 100,00 %
28.09.2017 17:54 17,8 C 13,9 C 78 % 1024,4 hPa 0,0 l/m 2,7 km/h (1 Bft) NO 44 0 min 0,000 mm 0,0 UV-I 51 W/m 13,9 C 17,8 C 4,8 km/h (1 Bft) 97,22 %
28.09.2017 17:56 17,8 C 13,9 C 77 % 1024,4 hPa 0,0 l/m 3,2 km/h (1 Bft) NO 44 0 min 0,000 mm 0,0 UV-I 48 W/m 13,7 C 17,8 C 4,8 km/h (1 Bft) 100,00 %
28.09.2017 17:58 17,7 C 13,9 C 78 % 1024,3 hPa 0,0 l/m 2,9 km/h (1 Bft) NO 44 0 min 0,000 mm 0,0 UV-I 46 W/m 13,8 C 17,7 C 4,8 km/h (1 Bft) 100,00 %
28.09.2017 18:00 17,6 C 13,9 C 78 % 1024,3 hPa 0,0 l/m 3,6 km/h (1 Bft) NO 45 0 min 0,076 mm 0,0 UV-I 43 W/m 13,7 C 17,6 C 6,4 km/h (2 Bft) 100,00 %
28.09.2017 18:02 17,6 C 13,9 C 78 % 1024,3 hPa 0,0 l/m 4,5 km/h (1 Bft) NO 46 0 min 0,000 mm 0,0 UV-I 40 W/m 13,7 C 17,6 C 6,4 km/h (2 Bft) 100,00 %
28.09.2017 18:04 17,6 C 13,9 C 78 % 1024,4 hPa 0,0 l/m 3,3 km/h (1 Bft) NO 46 0 min 0,000 mm 0,0 UV-I 38 W/m 13,7 C 17,6 C 4,8 km/h (1 Bft) 100,00 %
28.09.2017 18:06 17,6 C 13,9 C 78 % 1024,3 hPa 0,0 l/m 3,7 km/h (1 Bft) NO 46 0 min 0,000 mm 0,0 UV-I 35 W/m 13,7 C 17,6 C 4,8 km/h (1 Bft) 97,87 %
28.09.2017 18:08 17,6 C 13,9 C 77 % 1024,4 hPa 0,0 l/m 2,7 km/h (1 Bft) NO 46 0 min 0,000 mm 0,0 UV-I 33 W/m 13,5 C 17,6 C 4,8 km/h (1 Bft) 100,00 %
28.09.2017 18:10 17,6 C 13,9 C 77 % 1024,4 hPa 0,0 l/m 2,1 km/h (1 Bft) NO 46 0 min 0,000 mm 0,0 UV-I 30 W/m 13,5 C 17,6 C 3,2 km/h (1 Bft) 100,00 %
28.09.2017 18:12 17,6 C 13,9 C 77 % 1024,4 hPa 0,0 l/m 1,4 km/h (1 Bft) NO 46 0 min 0,000 mm 0,0 UV-I 28 W/m 13,5 C 17,6 C 3,2 km/h (1 Bft) 100,00 %
28.09.2017 18:14 17,6 C 13,9 C 77 % 1024,4 hPa 0,0 l/m 0,9 km/h (0 Bft) NO 46 0 min 0,000 mm 0,0 UV-I 26 W/m 13,5 C 17,6 C 3,2 km/h (1 Bft) 100,00 %
28.09.2017 18:16 17,5 C 13,9 C 78 % 1024,4 hPa 0,0 l/m 2,0 km/h (1 Bft) NO 46 0 min 0,000 mm 0,0 UV-I 24 W/m 13,6 C 17,5 C 3,2 km/h (1 Bft) 100,00 %
28.09.2017 18:18 17,4 C 13,9 C 78 % 1024,5 hPa 0,0 l/m 2,0 km/h (1 Bft) NO 46 0 min 0,000 mm 0,0 UV-I 22 W/m 13,5 C 17,4 C 3,2 km/h (1 Bft) 100,00 %
28.09.2017 18:20 17,2 C 13,9 C 79 % 1024,4 hPa 0,0 l/m 2,1 km/h (1 Bft) NO 46 0 min 0,000 mm 0,0 UV-I 20 W/m 13,5 C 17,2 C 3,2 km/h (1 Bft) 100,00 %
28.09.2017 18:22 16,8 C 13,9 C 81 % 1024,5 hPa 0,0 l/m 2,1 km/h (1 Bft) NO 46 0 min 0,000 mm 0,0 UV-I 19 W/m 13,5 C 16,8 C 3,2 km/h (1 Bft) 98,00 %
28.09.2017 18:24 16,6 C 13,9 C 81 % 1024,5 hPa 0,0 l/m 2,9 km/h (1 Bft) NO 46 0 min 0,000 mm 0,0 UV-I 18 W/m 13,3 C 16,6 C 4,8 km/h (1 Bft) 98,00 %
28.09.2017 18:26 16,4 C 13,9 C 82 % 1024,4 hPa 0,0 l/m 2,3 km/h (1 Bft) NO 46 0 min 0,000 mm 0,0 UV-I 17 W/m 13,3 C 16,4 C 3,2 km/h (1 Bft) 94,44 %
28.09.2017 18:28 16,4 C 13,9 C 82 % 1024,6 hPa 0,0 l/m 2,4 km/h (1 Bft) NO 46 0 min 0,000 mm 0,0 UV-I 15 W/m 13,3 C 16,4 C 4,8 km/h (1 Bft) 96,15 %
28.09.2017 18:30 16,5 C 13,9 C 82 % 1024,6 hPa 0,0 l/m 2,2 km/h (1 Bft) NO 46 0 min 0,000 mm 0,0 UV-I 14 W/m 13,4 C 16,5 C 3,2 km/h (1 Bft) 96,00 %
28.09.2017 18:32 16,4 C 13,9 C 82 % 1024,6 hPa 0,0 l/m 2,3 km/h (1 Bft) NO 46 0 min 0,000 mm 0,0 UV-I 13 W/m 13,3 C 16,4 C 3,2 km/h (1 Bft) 97,22 %
28.09.2017 18:34 16,3 C 13,9 C 82 % 1024,6 hPa 0,0 l/m 1,6 km/h (1 Bft) NO 46 0 min 0,000 mm 0,0 UV-I 12 W/m 13,2 C 16,3 C 3,2 km/h (1 Bft) 96,43 %
28.09.2017 18:36 16,2 C 13,9 C 82 % 1024,6 hPa 0,0 l/m 1,5 km/h (1 Bft) NO 46 0 min 0,000 mm 0,0 UV-I 11 W/m 13,1 C 16,2 C 3,2 km/h (1 Bft) 96,00 %
28.09.2017 18:38 16,1 C 13,9 C 82 % 1024,6 hPa 0,0 l/m 1,9 km/h (1 Bft) NO 46 2 min 0,000 mm 0,0 UV-I 11 W/m 13,0 C 16,1 C 3,2 km/h (1 Bft) 97,37 %
28.09.2017 18:40 15,9 C 13,9 C 83 % 1024,6 hPa 0,0 l/m 1,5 km/h (1 Bft) NO 46 0 min 0,000 mm 0,0 UV-I 9 W/m 13,0 C 15,9 C 3,2 km/h (1 Bft) 97,87 %
28.09.2017 18:42 15,8 C 13,9 C 83 % 1024,6 hPa 0,0 l/m 1,5 km/h (1 Bft) NO 46 0 min 0,000 mm 0,0 UV-I 9 W/m 12,9 C 15,8 C 3,2 km/h (1 Bft) 98,11 %
28.09.2017 18:44 15,7 C 13,9 C 84 % 1024,6 hPa 0,0 l/m 1,3 km/h (1 Bft) NO 46 0 min 0,000 mm 0,0 UV-I 8 W/m 13,0 C 15,7 C 3,2 km/h (1 Bft) 97,56 %
28.09.2017 18:46 15,6 C 13,9 C 85 % 1024,6 hPa 0,0 l/m 1,0 km/h (0 Bft) NO 46 0 min 0,000 mm 0,0 UV-I 7 W/m 13,1 C 15,6 C 1,6 km/h (1 Bft) 97,56 %
28.09.2017 18:48 15,4 C 13,9 C 85 % 1024,6 hPa 0,0 l/m 2,0 km/h (1 Bft) NO 46 0 min 0,000 mm 0,0 UV-I 7 W/m 12,9 C 15,4 C 4,8 km/h (1 Bft) 93,55 %
28.09.2017 18:50 15,2 C 13,9 C 86 % 1024,6 hPa 0,0 l/m 2,9 km/h (1 Bft) NO 46 0 min 0,000 mm 0,0 UV-I 7 W/m 12,9 C 15,2 C 3,2 km/h (1 Bft) 95,12 %
28.09.2017 18:52 15,1 C 13,9 C 87 % 1024,6 hPa 0,0 l/m 2,6 km/h (1 Bft) NO 46 0 min 0,000 mm 0,0 UV-I 5 W/m 13,0 C 15,1 C 4,8 km/h (1 Bft) 95,12 %
28.09.2017 18:54 15,0 C 13,9 C 87 % 1024,6 hPa 0,0 l/m 3,5 km/h (1 Bft) NO 46 0 min 0,000 mm 0,0 UV-I 5 W/m 12,9 C 15,0 C 4,8 km/h (1 Bft) 95,74 %
28.09.2017 18:56 14,9 C 13,9 C 87 % 1024,6 hPa 0,0 l/m 3,2 km/h (1 Bft) NO 46 0 min 0,000 mm 0,0 UV-I 5 W/m 12,8 C 14,9 C 4,8 km/h (1 Bft) 95,74 %
28.09.2017 18:58 14,9 C 13,9 C 87 % 1024,7 hPa 0,0 l/m 2,4 km/h (1 Bft) NO 46 0 min 0,000 mm 0,0 UV-I 5 W/m 12,8 C 14,9 C 4,8 km/h (1 Bft) 96,00 %
28.09.2017 19:00 14,9 C 13,9 C 87 % 1024,6 hPa 0,0 l/m 1,3 km/h (1 Bft) NO 46 0 min 0,000 mm 0,0 UV-I 2 W/m 12,8 C 14,9 C 3,2 km/h (1 Bft) 94,34 %
28.09.2017 19:02 14,8 C 13,9 C 88 % 1024,7 hPa 0,0 l/m 0,5 km/h (0 Bft) NO 46 0 min 0,025 mm 0,0 UV-I 0 W/m 12,8 C 14,8 C 1,6 km/h (1 Bft) 97,73 %
28.09.2017 19:04 14,8 C 13,9 C 88 % 1024,6 hPa 0,0 l/m 0,8 km/h (0 Bft) NO 46 0 min 0,000 mm 0,0 UV-I 0 W/m 12,8 C 14,8 C 3,2 km/h (1 Bft) 97,87 %
28.09.2017 19:06 14,8 C 13,9 C 88 % 1024,6 hPa 0,0 l/m 0,0 km/h (0 Bft) NO 46 0 min 0,000 mm 0,0 UV-I 0 W/m 12,8 C 14,8 C 0,0 km/h (0 Bft) 95,74 %
28.09.2017 19:08 14,8 C 13,9 C 88 % 1024,7 hPa 0,0 l/m 0,0 km/h (0 Bft) NO 46 0 min 0,000 mm 0,0 UV-I 0 W/m 12,8 C 14,8 C 0,0 km/h (0 Bft) 98,00 %
28.09.2017 19:10 14,7 C 13,9 C 88 % 1024,7 hPa 0,0 l/m 0,0 km/h (0 Bft) NO 46 0 min 0,000 mm 0,0 UV-I 0 W/m 12,7 C 14,7 C 0,0 km/h (0 Bft) 97,87 %
28.09.2017 19:12 14,7 C 13,9 C 88 % 1024,7 hPa 0,0 l/m 0,1 km/h (0 Bft) NO 46 0 min 0,000 mm 0,0 UV-I 0 W/m 12,7 C 14,7 C 1,6 km/h (1 Bft) 97,44 %
28.09.2017 19:14 14,7 C 13,9 C 88 % 1024,7 hPa 0,0 l/m 0,1 km/h (0 Bft) NO 46 0 min 0,000 mm 0,0 UV-I 0 W/m 12,7 C 14,7 C 1,6 km/h (1 Bft) 98,00 %
28.09.2017 19:16 14,6 C 13,9 C 88 % 1024,7 hPa 0,0 l/m 2,0 km/h (1 Bft) NO 46 0 min 0,000 mm 0,0 UV-I 0 W/m 12,6 C 14,6 C 3,2 km/h (1 Bft) 97,87 %
28.09.2017 19:18 14,6 C 13,9 C 89 % 1024,7 hPa 0,0 l/m 1,8 km/h (1 Bft) NO 46 0 min 0,000 mm 0,0 UV-I 0 W/m 12,8 C 14,6 C 3,2 km/h (1 Bft) 97,87 %
28.09.2017 19:20 14,5 C 13,9 C 89 % 1024,7 hPa 0,0 l/m 1,3 km/h (1 Bft) NO 46 0 min 0,000 mm 0,0 UV-I 0 W/m 12,7 C 14,5 C 3,2 km/h (1 Bft) 96,00 %
28.09.2017 19:22 14,5 C 13,9 C 89 % 1024,6 hPa 0,0 l/m 1,9 km/h (1 Bft) NO 46 0 min 0,000 mm 0,0 UV-I 0 W/m 12,7 C 14,5 C 3,2 km/h (1 Bft) 97,87 %
28.09.2017 19:24 14,6 C 13,9 C 89 % 1024,6 hPa 0,0 l/m 1,5 km/h (1 Bft) NO 46 0 min 0,000 mm 0,0 UV-I 0 W/m 12,8 C 14,6 C 3,2 km/h (1 Bft) 95,74 %
28.09.2017 19:26 14,6 C 13,9 C 88 % 1024,6 hPa 0,0 l/m 1,8 km/h (1 Bft) NO 46 0 min 0,000 mm 0,0 UV-I 0 W/m 12,6 C 14,6 C 3,2 km/h (1 Bft) 88,57 %
28.09.2017 19:28 14,6 C 13,9 C 88 % 1024,6 hPa 0,0 l/m 2,0 km/h (1 Bft) NO 46 0 min 0,000 mm 0,0 UV-I 0 W/m 12,6 C 14,6 C 3,2 km/h (1 Bft) 98,11 %
28.09.2017 19:30 14,5 C 13,9 C 88 % 1024,6 hPa 0,0 l/m 2,0 km/h (1 Bft) NO 46 0 min 0,000 mm 0,0 UV-I 0 W/m 12,5 C 14,5 C 3,2 km/h (1 Bft) 98,00 %
28.09.2017 19:32 14,4 C 13,9 C 89 % 1024,5 hPa 0,0 l/m 2,1 km/h (1 Bft) NO 46 0 min 0,000 mm 0,0 UV-I 0 W/m 12,6 C 14,4 C 3,2 km/h (1 Bft) 97,73 %
28.09.2017 19:34 14,4 C 13,9 C 89 % 1024,5 hPa 0,0 l/m 2,7 km/h (1 Bft) NO 46 0 min 0,000 mm 0,0 UV-I 0 W/m 12,6 C 14,4 C 3,2 km/h (1 Bft) 96,23 %
28.09.2017 19:36 14,4 C 13,9 C 89 % 1024,5 hPa 0,0 l/m 2,8 km/h (1 Bft) NO 46 0 min 0,000 mm 0,0 UV-I 0 W/m 12,6 C 14,4 C 4,8 km/h (1 Bft) 94,74 %
28.09.2017 19:38 14,6 C 13,9 C 89 % 1024,6 hPa 0,0 l/m 2,8 km/h (1 Bft) NO 46 0 min 0,000 mm 0,0 UV-I 0 W/m 12,8 C 14,6 C 4,8 km/h (1 Bft) 97,87 %
28.09.2017 19:40 14,7 C 13,9 C 88 % 1024,6 hPa 0,0 l/m 2,8 km/h (1 Bft) NO 46 0 min 0,000 mm 0,0 UV-I 0 W/m 12,7 C 14,7 C 4,8 km/h (1 Bft) 97,87 %
28.09.2017 19:42 14,9 C 13,9 C 88 % 1024,6 hPa 0,0 l/m 1,9 km/h (1 Bft) NO 46 0 min 0,000 mm 0,0 UV-I 0 W/m 12,9 C 14,9 C 3,2 km/h (1 Bft) 96,43 %
28.09.2017 19:44 15,0 C 13,9 C 87 % 1024,7 hPa 0,0 l/m 2,2 km/h (1 Bft) NO 46 0 min 0,000 mm 0,0 UV-I 0 W/m 12,9 C 15,0 C 3,2 km/h (1 Bft) 97,37 %
28.09.2017 19:46 15,2 C 13,9 C 87 % 1024,6 hPa 0,0 l/m 3,0 km/h (1 Bft) NO 46 0 min 0,000 mm 0,0 UV-I 0 W/m 13,0 C 15,2 C 4,8 km/h (1 Bft) 97,62 %
28.09.2017 19:48 15,3 C 13,9 C 86 % 1024,7 hPa 0,0 l/m 3,1 km/h (1 Bft) NO 46 0 min 0,000 mm 0,0 UV-I 0 W/m 13,0 C 15,3 C 3,2 km/h (1 Bft) 96,23 %
28.09.2017 19:50 15,4 C 13,9 C 85 % 1024,7 hPa 0,0 l/m 3,5 km/h (1 Bft) NO 46 0 min 0,000 mm 0,0 UV-I 0 W/m 12,9 C 15,4 C 4,8 km/h (1 Bft) 98,00 %
28.09.2017 19:52 15,5 C 13,9 C 85 % 1024,7 hPa 0,0 l/m 3,9 km/h (1 Bft) NO 46 0 min 0,000 mm 0,0 UV-I 0 W/m 13,0 C 15,5 C 6,4 km/h (2 Bft) 100,00 %
28.09.2017 19:54 15,5 C 13,9 C 84 % 1024,7 hPa 0,0 l/m 4,1 km/h (1 Bft) NO 46 0 min 0,000 mm 0,0 UV-I 0 W/m 12,8 C 15,5 C 4,8 km/h (1 Bft) 100,00 %
28.09.2017 19:56 15,5 C 13,9 C 84 % 1024,7 hPa 0,0 l/m 4,1 km/h (1 Bft) NO 51 0 min 0,000 mm 0,0 UV-I 0 W/m 12,8 C 15,5 C 6,4 km/h (2 Bft) 98,00 %
28.09.2017 19:58 15,6 C 13,9 C 84 % 1024,8 hPa 0,0 l/m 4,4 km/h (1 Bft) O-NO 75 0 min 0,000 mm 0,0 UV-I 0 W/m 12,9 C 15,6 C 6,4 km/h (2 Bft) 100,00 %
28.09.2017 20:00 15,6 C 13,9 C 84 % 1024,7 hPa 0,0 l/m 3,6 km/h (1 Bft) O-NO 75 0 min 0,000 mm 0,0 UV-I 0 W/m 12,9 C 15,6 C 4,8 km/h (1 Bft) 100,00 %
28.09.2017 20:02 15,5 C 13,9 C 84 % 1024,7 hPa 0,0 l/m 4,3 km/h (1 Bft) O-NO 76 0 min 0,000 mm 0,0 UV-I 0 W/m 12,8 C 15,5 C 4,8 km/h (1 Bft) 97,37 %
28.09.2017 20:04 15,5 C 13,9 C 84 % 1024,7 hPa 0,0 l/m 4,1 km/h (1 Bft) O-NO 76 0 min 0,000 mm 0,0 UV-I 0 W/m 12,8 C 15,5 C 4,8 km/h (1 Bft) 100,00 %
28.09.2017 20:06 15,6 C 13,9 C 84 % 1024,7 hPa 0,0 l/m 5,6 km/h (1 Bft) O-NO 78 0 min 0,000 mm 0,0 UV-I 0 W/m 12,9 C 15,6 C 8,0 km/h (2 Bft) 100,00 %
28.09.2017 20:08 15,6 C 13,9 C 84 % 1024,7 hPa 0,0 l/m 5,4 km/h (1 Bft) O 82 0 min 0,000 mm 0,0 UV-I 0 W/m 12,9 C 15,6 C 8,0 km/h (2 Bft) 100,00 %
28.09.2017 20:10 15,6 C 13,9 C 84 % 1024,7 hPa 0,0 l/m 5,7 km/h (1 Bft) O-NO 71 0 min 0,000 mm 0,0 UV-I 0 W/m 12,9 C 15,6 C 11,3 km/h (2 Bft) 100,00 %
28.09.2017 20:12 15,7 C 13,9 C 83 % 1024,7 hPa 0,0 l/m 6,0 km/h (2 Bft) O 92 0 min 0,000 mm 0,0 UV-I 0 W/m 12,8 C 15,7 C 9,7 km/h (2 Bft) 100,00 %
28.09.2017 20:14 15,7 C 13,9 C 83 % 1024,7 hPa 0,0 l/m 4,1 km/h (1 Bft) O 98 0 min 0,000 mm 0,0 UV-I 0 W/m 12,8 C 15,7 C 6,4 km/h (2 Bft) 100,00 %
28.09.2017 20:16 15,7 C 13,9 C 83 % 1024,7 hPa 0,0 l/m 5,6 km/h (1 Bft) O 83 0 min 0,000 mm 0,0 UV-I 0 W/m 12,8 C 15,7 C 9,7 km/h (2 Bft) 100,00 %
28.09.2017 20:18 15,8 C 13,9 C 83 % 1024,8 hPa 0,0 l/m 6,1 km/h (2 Bft) O 79 0 min 0,000 mm 0,0 UV-I 0 W/m 12,9 C 15,8 C 8,0 km/h (2 Bft) 97,37 %
28.09.2017 20:20 15,8 C 13,9 C 83 % 1024,8 hPa 0,0 l/m 5,5 km/h (1 Bft) O-NO 78 0 min 0,000 mm 0,0 UV-I 0 W/m 12,9 C 15,8 C 6,4 km/h (2 Bft) 100,00 %
28.09.2017 20:22 15,8 C 13,9 C 83 % 1024,8 hPa 0,0 l/m 4,9 km/h (1 Bft) O 80 0 min 0,000 mm 0,0 UV-I 0 W/m 12,9 C 15,8 C 8,0 km/h (2 Bft) 100,00 %
28.09.2017 20:24 15,8 C 13,9 C 82 % 1024,8 hPa 0,0 l/m 4,0 km/h (1 Bft) O 90 0 min 0,000 mm 0,0 UV-I 0 W/m 12,7 C 15,8 C 6,4 km/h (2 Bft) 100,00 %
28.09.2017 20:26 15,8 C 13,9 C 83 % 1024,9 hPa 0,0 l/m 5,0 km/h (1 Bft) O 90 0 min 0,000 mm 0,0 UV-I 0 W/m 12,9 C 15,8 C 6,4 km/h (2 Bft) 100,00 %
28.09.2017 20:28 15,8 C 13,9 C 83 % 1024,8 hPa 0,0 l/m 5,7 km/h (1 Bft) O-NO 74 0 min 0,000 mm 0,0 UV-I 0 W/m 12,9 C 15,8 C 8,0 km/h (2 Bft) 95,74 %
28.09.2017 20:30 15,8 C 13,9 C 83 % 1024,8 hPa 0,0 l/m 4,8 km/h (1 Bft) O 82 0 min 0,000 mm 0,0 UV-I 0 W/m 12,9 C 15,8 C 6,4 km/h (2 Bft) 100,00 %
28.09.2017 20:32 15,9 C 13,9 C 82 % 1024,8 hPa 0,0 l/m 5,0 km/h (1 Bft) O 80 0 min 0,000 mm 0,0 UV-I 0 W/m 12,8 C 15,9 C 8,0 km/h (2 Bft) 100,00 %
28.09.2017 20:34 15,9 C 13,9 C 82 % 1024,9 hPa 0,0 l/m 4,2 km/h (1 Bft) O 80 0 min 0,000 mm 0,0 UV-I 0 W/m 12,8 C 15,9 C 4,8 km/h (1 Bft) 100,00 %
28.09.2017 20:36 15,8 C 13,9 C 82 % 1024,9 hPa 0,0 l/m 4,2 km/h (1 Bft) O 84 0 min 0,000 mm 0,0 UV-I 0 W/m 12,7 C 15,8 C 9,7 km/h (2 Bft) 97,87 %
28.09.2017 20:38 15,8 C 13,9 C 83 % 1025,0 hPa 0,0 l/m 4,5 km/h (1 Bft) O 83 0 min 0,000 mm 0,0 UV-I 0 W/m 12,9 C 15,8 C 8,0 km/h (2 Bft) 97,87 %
28.09.2017 20:40 15,8 C 13,9 C 83 % 1025,0 hPa 0,0 l/m 4,9 km/h (1 Bft) O 92 0 min 0,000 mm 0,0 UV-I 0 W/m 12,9 C 15,8 C 6,4 km/h (2 Bft) 97,14 %
28.09.2017 20:42 15,8 C 13,9 C 83 % 1025,1 hPa 0,0 l/m 3,9 km/h (1 Bft) O 92 0 min 0,000 mm 0,0 UV-I 0 W/m 12,9 C 15,8 C 6,4 km/h (2 Bft) 97,87 %
28.09.2017 20:44 15,8 C 13,9 C 83 % 1025,1 hPa 0,0 l/m 3,5 km/h (1 Bft) O 92 0 min 0,000 mm 0,0 UV-I 0 W/m 12,9 C 15,8 C 6,4 km/h (2 Bft) 96,00 %
28.09.2017 20:46 15,7 C 13,9 C 83 % 1025,1 hPa 0,0 l/m 4,1 km/h (1 Bft) O 89 0 min 0,000 mm 0,0 UV-I 0 W/m 12,8 C 15,7 C 6,4 km/h (2 Bft) 96,23 %
28.09.2017 20:48 15,7 C 13,9 C 83 % 1025,1 hPa 0,0 l/m 3,7 km/h (1 Bft) O 89 0 min 0,000 mm 0,0 UV-I 0 W/m 12,8 C 15,7 C 4,8 km/h (1 Bft) 97,56 %
28.09.2017 20:50 15,7 C 13,9 C 83 % 1025,1 hPa 0,0 l/m 2,5 km/h (1 Bft) O 89 0 min 0,000 mm 0,0 UV-I 0 W/m 12,8 C 15,7 C 3,2 km/h (1 Bft) 97,87 %
28.09.2017 20:52 15,6 C 13,9 C 83 % 1025,1 hPa 0,0 l/m 2,7 km/h (1 Bft) O 89 0 min 0,000 mm 0,0 UV-I 0 W/m 12,7 C 15,6 C 4,8 km/h (1 Bft) 98,00 %
28.09.2017 20:54 15,5 C 13,9 C 84 % 1025,1 hPa 0,0 l/m 2,3 km/h (1 Bft) O 89 0 min 0,000 mm 0,0 UV-I 0 W/m 12,8 C 15,5 C 3,2 km/h (1 Bft) 97,37 %
28.09.2017 20:56 15,4 C 13,9 C 84 % 1025,1 hPa 0,0 l/m 2,3 km/h (1 Bft) O 89 0 min 0,000 mm 0,0 UV-I 0 W/m 12,7 C 15,4 C 3,2 km/h (1 Bft) 98,00 %
28.09.2017 20:58 15,3 C 13,9 C 84 % 1025,1 hPa 0,0 l/m 2,6 km/h (1 Bft) O 89 0 min 0,000 mm 0,0 UV-I 0 W/m 12,6 C 15,3 C 3,2 km/h (1 Bft) 97,87 %
28.09.2017 21:00 15,1 C 13,9 C 85 % 1025,2 hPa 0,0 l/m 2,2 km/h (1 Bft) O 89 0 min 0,000 mm 0,0 UV-I 0 W/m 12,6 C 15,1 C 4,8 km/h (1 Bft) 97,62 %
28.09.2017 21:02 14,9 C 13,9 C 85 % 1025,2 hPa 0,0 l/m 2,5 km/h (1 Bft) O 89 0 min 0,026 mm 0,0 UV-I 0 W/m 12,4 C 14,9 C 3,2 km/h (1 Bft) 96,55 %
28.09.2017 21:04 14,8 C 13,9 C 86 % 1025,2 hPa 0,0 l/m 1,7 km/h (1 Bft) O 89 0 min 0,000 mm 0,0 UV-I 0 W/m 12,5 C 14,8 C 3,2 km/h (1 Bft) 97,87 %
28.09.2017 21:06 14,8 C 13,9 C 86 % 1025,2 hPa 0,0 l/m 2,1 km/h (1 Bft) O 89 0 min 0,000 mm 0,0 UV-I 0 W/m 12,5 C 14,8 C 4,8 km/h (1 Bft) 100,00 %
28.09.2017 21:08 14,8 C 13,9 C 86 % 1025,2 hPa 0,0 l/m 2,4 km/h (1 Bft) O 89 0 min 0,000 mm 0,0 UV-I 0 W/m 12,5 C 14,8 C 3,2 km/h (1 Bft) 95,45 %
28.09.2017 21:10 14,9 C 13,9 C 86 % 1025,1 hPa 0,0 l/m 3,5 km/h (1 Bft) O 89 0 min 0,000 mm 0,0 UV-I 0 W/m 12,6 C 14,9 C 4,8 km/h (1 Bft) 98,21 %
28.09.2017 21:12 14,9 C 13,9 C 86 % 1025,1 hPa 0,0 l/m 3,3 km/h (1 Bft) O 89 0 min 0,000 mm 0,0 UV-I 0 W/m 12,6 C 14,9 C 4,8 km/h (1 Bft) 98,11 %
28.09.2017 21:14 14,9 C 13,9 C 86 % 1025,1 hPa 0,0 l/m 3,3 km/h (1 Bft) O 89 0 min 0,000 mm 0,0 UV-I 0 W/m 12,6 C 14,9 C 4,8 km/h (1 Bft) 100,00 %
28.09.2017 21:16 14,9 C 13,9 C 86 % 1025,1 hPa 0,0 l/m 2,8 km/h (1 Bft) O 89 0 min 0,000 mm 0,0 UV-I 0 W/m 12,6 C 14,9 C 4,8 km/h (1 Bft) 100,00 %
28.09.2017 21:18 14,9 C 13,9 C 87 % 1025,1 hPa 0,0 l/m 2,6 km/h (1 Bft) O 89 0 min 0,000 mm 0,0 UV-I 0 W/m 12,8 C 14,9 C 3,2 km/h (1 Bft) 96,00 %
28.09.2017 21:20 14,9 C 13,9 C 86 % 1025,2 hPa 0,0 l/m 2,1 km/h (1 Bft) O 89 0 min 0,000 mm 0,0 UV-I 0 W/m 12,6 C 14,9 C 3,2 km/h (1 Bft) 100,00 %
28.09.2017 21:22 14,9 C 13,9 C 86 % 1025,2 hPa 0,0 l/m 1,1 km/h (1 Bft) O 89 0 min 0,000 mm 0,0 UV-I 0 W/m 12,6 C 14,9 C 1,6 km/h (1 Bft) 97,37 %
28.09.2017 21:24 14,9 C 13,9 C 86 % 1025,2 hPa 0,0 l/m 1,2 km/h (1 Bft) O 89 0 min 0,000 mm 0,0 UV-I 0 W/m 12,6 C 14,9 C 3,2 km/h (1 Bft) 100,00 %
28.09.2017 21:26 15,0 C 13,9 C 86 % 1025,2 hPa 0,0 l/m 1,9 km/h (1 Bft) O 89 0 min 0,000 mm 0,0 UV-I 0 W/m 12,7 C 15,0 C 3,2 km/h (1 Bft) 100,00 %
28.09.2017 21:28 15,0 C 13,9 C 86 % 1025,2 hPa 0,0 l/m 2,4 km/h (1 Bft) O 89 0 min 0,000 mm 0,0 UV-I 0 W/m 12,7 C 15,0 C 3,2 km/h (1 Bft) 100,00 %
28.09.2017 21:30 15,0 C 13,9 C 86 % 1025,2 hPa 0,0 l/m 3,2 km/h (1 Bft) O 89 0 min 0,000 mm 0,0 UV-I 0 W/m 12,7 C 15,0 C 4,8 km/h (1 Bft) 100,00 %
28.09.2017 21:32 14,9 C 13,9 C 86 % 1025,1 hPa 0,0 l/m 3,3 km/h (1 Bft) O 89 0 min 0,000 mm 0,0 UV-I 0 W/m 12,6 C 14,9 C 4,8 km/h (1 Bft) 97,87 %
28.09.2017 21:34 14,9 C 13,9 C 86 % 1025,2 hPa 0,0 l/m 2,7 km/h (1 Bft) O 89 0 min 0,000 mm 0,0 UV-I 0 W/m 12,6 C 14,9 C 4,8 km/h (1 Bft) 100,00 %
28.09.2017 21:36 14,8 C 13,9 C 86 % 1025,1 hPa 0,0 l/m 2,4 km/h (1 Bft) O 89 0 min 0,000 mm 0,0 UV-I 0 W/m 12,5 C 14,8 C 3,2 km/h (1 Bft) 100,00 %
28.09.2017 21:38 14,8 C 13,9 C 86 % 1025,1 hPa 0,0 l/m 2,8 km/h (1 Bft) O 89 0 min 0,000 mm 0,0 UV-I 0 W/m 12,5 C 14,8 C 4,8 km/h (1 Bft) 100,00 %
28.09.2017 21:40 14,8 C 13,9 C 86 % 1025,1 hPa 0,0 l/m 3,0 km/h (1 Bft) O 89 0 min 0,000 mm 0,0 UV-I 0 W/m 12,5 C 14,8 C 4,8 km/h (1 Bft) 100,00 %
28.09.2017 21:42 14,8 C 13,9 C 86 % 1025,1 hPa 0,0 l/m 2,4 km/h (1 Bft) O 89 0 min 0,000 mm 0,0 UV-I 0 W/m 12,5 C 14,8 C 3,2 km/h (1 Bft) 100,00 %
28.09.2017 21:44 14,7 C 13,9 C 86 % 1025,1 hPa 0,0 l/m 2,5 km/h (1 Bft) O 89 0 min 0,000 mm 0,0 UV-I 0 W/m 12,4 C 14,7 C 4,8 km/h (1 Bft) 97,44 %
28.09.2017 21:46 14,7 C 13,9 C 87 % 1025,2 hPa 0,0 l/m 1,9 km/h (1 Bft) O 89 0 min 0,000 mm 0,0 UV-I 0 W/m 12,6 C 14,7 C 3,2 km/h (1 Bft) 100,00 %
28.09.2017 21:48 14,6 C 13,9 C 87 % 1025,1 hPa 0,0 l/m 1,8 km/h (1 Bft) O 89 0 min 0,000 mm 0,0 UV-I 0 W/m 12,5 C 14,6 C 3,2 km/h (1 Bft) 100,00 %
28.09.2017 21:50 14,5 C 13,9 C 87 % 1025,1 hPa 0,0 l/m 1,5 km/h (1 Bft) O 89 0 min 0,000 mm 0,0 UV-I 0 W/m 12,4 C 14,5 C 3,2 km/h (1 Bft) 100,00 %
28.09.2017 21:52 14,4 C 13,9 C 87 % 1025,1 hPa 0,0 l/m 3,7 km/h (1 Bft) O 89 0 min 0,000 mm 0,0 UV-I 0 W/m 12,3 C 14,4 C 4,8 km/h (1 Bft) 97,87 %
28.09.2017 21:54 14,4 C 13,9 C 87 % 1025,1 hPa 0,0 l/m 3,8 km/h (1 Bft) O 84 0 min 0,000 mm 0,0 UV-I 0 W/m 12,3 C 14,4 C 4,8 km/h (1 Bft) 98,00 %
28.09.2017 21:56 14,3 C 13,9 C 87 % 1025,1 hPa 0,0 l/m 5,1 km/h (1 Bft) O-NO 68 0 min 0,000 mm 0,0 UV-I 0 W/m 12,2 C 14,3 C 8,0 km/h (2 Bft) 100,00 %
28.09.2017 21:58 14,4 C 13,9 C 87 % 1025,1 hPa 0,0 l/m 5,2 km/h (1 Bft) O-NO 76 0 min 0,000 mm 0,0 UV-I 0 W/m 12,3 C 14,4 C 8,0 km/h (2 Bft) 100,00 %
28.09.2017 22:00 14,4 C 13,9 C 86 % 1025,0 hPa 0,0 l/m 6,1 km/h (2 Bft) O 84 0 min 0,000 mm 0,0 UV-I 0 W/m 12,1 C 14,4 C 8,0 km/h (2 Bft) 100,00 %
28.09.2017 22:02 14,4 C 13,9 C 86 % 1025,0 hPa 0,0 l/m 6,8 km/h (2 Bft) O 93 0 min 0,000 mm 0,0 UV-I 0 W/m 12,1 C 14,2 C 11,3 km/h (2 Bft) 97,87 %
28.09.2017 22:04 14,5 C 13,9 C 85 % 1025,0 hPa 0,0 l/m 6,7 km/h (2 Bft) O 82 0 min 0,000 mm 0,0 UV-I 0 W/m 12,0 C 14,3 C 9,7 km/h (2 Bft) 97,87 %
28.09.2017 22:06 14,6 C 13,9 C 85 % 1025,0 hPa 0,0 l/m 5,0 km/h (1 Bft) O-NO 73 0 min 0,000 mm 0,0 UV-I 0 W/m 12,1 C 14,6 C 8,0 km/h (2 Bft) 100,00 %
28.09.2017 22:08 14,5 C 13,9 C 85 % 1025,0 hPa 0,0 l/m 5,5 km/h (1 Bft) O-NO 70 0 min 0,000 mm 0,0 UV-I 0 W/m 12,0 C 14,5 C 8,0 km/h (2 Bft) 97,87 %
28.09.2017 22:10 14,6 C 13,9 C 84 % 1025,1 hPa 0,0 l/m 6,3 km/h (2 Bft) O 97 0 min 0,000 mm 0,0 UV-I 0 W/m 11,9 C 14,6 C 11,3 km/h (2 Bft) 100,00 %
28.09.2017 22:12 14,6 C 13,9 C 84 % 1025,1 hPa 0,0 l/m 6,4 km/h (2 Bft) O 86 0 min 0,000 mm 0,0 UV-I 0 W/m 11,9 C 14,6 C 8,0 km/h (2 Bft) 100,00 %
28.09.2017 22:14 14,5 C 13,9 C 84 % 1025,1 hPa 0,0 l/m 5,6 km/h (1 Bft) O-NO 71 0 min 0,000 mm 0,0 UV-I 0 W/m 11,8 C 14,5 C 8,0 km/h (2 Bft) 100,00 %
28.09.2017 22:16 14,6 C 13,9 C 83 % 1025,0 hPa 0,0 l/m 6,1 km/h (2 Bft) O-NO 75 0 min 0,000 mm 0,0 UV-I 0 W/m 11,7 C 14,6 C 9,7 km/h (2 Bft) 100,00 %
28.09.2017 22:18 14,5 C 13,9 C 83 % 1025,1 hPa 0,0 l/m 6,3 km/h (2 Bft) O-NO 75 0 min 0,000 mm 0,0 UV-I 0 W/m 11,6 C 14,5 C 11,3 km/h (2 Bft) 100,00 %
28.09.2017 22:20 14,5 C 13,9 C 83 % 1025,0 hPa 0,0 l/m 5,5 km/h (1 Bft) O-NO 77 0 min 0,000 mm 0,0 UV-I 0 W/m 11,6 C 14,5 C 11,3 km/h (2 Bft) 100,00 %
28.09.2017 22:22 14,4 C 13,9 C 83 % 1025,1 hPa 0,0 l/m 6,2 km/h (2 Bft) O-NO 74 0 min 0,000 mm 0,0 UV-I 0 W/m 11,5 C 14,4 C 11,3 km/h (2 Bft) 100,00 %
28.09.2017 22:24 14,4 C 13,9 C 83 % 1025,0 hPa 0,0 l/m 6,8 km/h (2 Bft) O-NO 63 0 min 0,000 mm 0,0 UV-I 0 W/m 11,5 C 14,2 C 12,9 km/h (3 Bft) 100,00 %
28.09.2017 22:26 14,3 C 13,9 C 83 % 1025,0 hPa 0,0 l/m 5,5 km/h (1 Bft) O 86 0 min 0,000 mm 0,0 UV-I 0 W/m 11,5 C 14,3 C 11,3 km/h (2 Bft) 97,62 %
28.09.2017 22:28 14,3 C 13,9 C 83 % 1025,0 hPa 0,0 l/m 5,2 km/h (1 Bft) O 83 0 min 0,000 mm 0,0 UV-I 0 W/m 11,5 C 14,3 C 11,3 km/h (2 Bft) 100,00 %
28.09.2017 22:30 14,2 C 13,9 C 84 % 1025,0 hPa 0,0 l/m 5,4 km/h (1 Bft) O 84 0 min 0,000 mm 0,0 UV-I 0 W/m 11,5 C 14,2 C 11,3 km/h (2 Bft) 100,00 %
28.09.2017 22:33 14,2 C 13,9 C 84 % 1025,1 hPa 0,0 l/m 6,3 km/h (2 Bft) O-NO 76 0 min 0,000 mm 0,0 UV-I 0 W/m 11,5 C 14,2 C 12,9 km/h (3 Bft) 100,00 %
28.09.2017 22:34 14,2 C 13,9 C 83 % 1025,1 hPa 0,0 l/m 10,2 km/h (2 Bft) O 85 0 min 0,000 mm 0,0 UV-I 0 W/m 11,4 C 12,1 C 14,5 km/h (3 Bft) 100,00 %
28.09.2017 22:36 14,2 C 13,9 C 83 % 1025,0 hPa 0,0 l/m 5,7 km/h (1 Bft) O-NO 61 0 min 0,000 mm 0,0 UV-I 0 W/m 11,4 C 14,2 C 11,3 km/h (2 Bft) 100,00 %
28.09.2017 22:38 14,2 C 13,9 C 83 % 1025,0 hPa 0,0 l/m 10,3 km/h (2 Bft) O 87 0 min 0,000 mm 0,0 UV-I 0 W/m 11,4 C 12,1 C 14,5 km/h (3 Bft) 100,00 %
28.09.2017 22:40 14,3 C 13,9 C 82 % 1025,0 hPa 0,0 l/m 8,7 km/h (2 Bft) O 86 0 min 0,000 mm 0,0 UV-I 0 W/m 11,3 C 13,0 C 12,9 km/h (3 Bft) 98,11 %
28.09.2017 22:42 14,3 C 13,9 C 82 % 1025,0 hPa 0,0 l/m 9,0 km/h (2 Bft) O-SO 105 0 min 0,000 mm 0,0 UV-I 0 W/m 11,3 C 12,8 C 14,5 km/h (3 Bft) 98,00 %
28.09.2017 22:44 14,3 C 13,9 C 82 % 1025,0 hPa 0,0 l/m 11,2 km/h (2 Bft) O 92 0 min 0,000 mm 0,0 UV-I 0 W/m 11,3 C 11,8 C 14,5 km/h (3 Bft) 96,00 %
28.09.2017 22:46 14,3 C 13,9 C 82 % 1024,9 hPa 0,0 l/m 9,9 km/h (2 Bft) O-NO 78 0 min 0,000 mm 0,0 UV-I 0 W/m 11,3 C 12,4 C 17,7 km/h (3 Bft) 93,18 %
28.09.2017 22:48 14,3 C 13,9 C 82 % 1024,9 hPa 0,0 l/m 9,9 km/h (2 Bft) O-NO 70 0 min 0,000 mm 0,0 UV-I 0 W/m 11,3 C 12,4 C 16,1 km/h (3 Bft) 96,00 %
28.09.2017 22:50 14,3 C 13,9 C 82 % 1025,0 hPa 0,0 l/m 12,6 km/h (3 Bft) O 83 0 min 0,000 mm 0,0 UV-I 0 W/m 11,3 C 11,2 C 17,7 km/h (3 Bft) 92,11 %
28.09.2017 22:52 14,3 C 13,9 C 82 % 1024,9 hPa 0,0 l/m 12,1 km/h (2 Bft) O 82 0 min 0,000 mm 0,0 UV-I 0 W/m 11,3 C 11,4 C 17,7 km/h (3 Bft) 94,44 %
28.09.2017 22:54 14,2 C 13,9 C 82 % 1024,9 hPa 0,0 l/m 6,9 km/h (2 Bft) O-NO 63 0 min 0,000 mm 0,0 UV-I 0 W/m 11,2 C 13,9 C 11,3 km/h (2 Bft) 94,74 %
28.09.2017 22:56 14,1 C 13,9 C 82 % 1024,9 hPa 0,0 l/m 7,6 km/h (2 Bft) O 96 0 min 0,000 mm 0,0 UV-I 0 W/m 11,1 C 13,4 C 12,9 km/h (3 Bft) 92,86 %
28.09.2017 22:58 13,9 C 13,9 C 83 % 1024,8 hPa 0,0 l/m 9,2 km/h (2 Bft) O-SO 119 0 min 0,000 mm 0,0 UV-I 0 W/m 11,1 C 12,3 C 14,5 km/h (3 Bft) 94,74 %
28.09.2017 23:00 13,8 C 13,9 C 83 % 1024,8 hPa 0,0 l/m 10,2 km/h (2 Bft) O 92 0 min 0,025 mm 0,0 UV-I 0 W/m 11,0 C 11,7 C 16,1 km/h (3 Bft) 96,00 %
28.09.2017 23:02 13,8 C 13,9 C 82 % 1024,9 hPa 0,0 l/m 7,0 km/h (2 Bft) O 92 0 min 0,000 mm 0,0 UV-I 0 W/m 10,8 C 13,4 C 12,9 km/h (3 Bft) 94,00 %
28.09.2017 23:04 13,8 C 13,9 C 82 % 1024,9 hPa 0,0 l/m 10,1 km/h (2 Bft) O-NO 73 0 min 0,000 mm 0,0 UV-I 0 W/m 10,8 C 11,7 C 17,7 km/h (3 Bft) 95,24 %
28.09.2017 23:06 13,8 C 13,9 C 82 % 1024,9 hPa 0,0 l/m 6,9 km/h (2 Bft) O-SO 123 0 min 0,000 mm 0,0 UV-I 0 W/m 10,8 C 13,5 C 12,9 km/h (3 Bft) 94,74 %
28.09.2017 23:08 13,8 C 13,9 C 82 % 1024,9 hPa 0,0 l/m 8,4 km/h (2 Bft) O 80 0 min 0,000 mm 0,0 UV-I 0 W/m 10,8 C 12,6 C 14,5 km/h (3 Bft) 95,45 %
28.09.2017 23:10 13,8 C 13,9 C 82 % 1024,9 hPa 0,0 l/m 8,0 km/h (2 Bft) O-NO 60 0 min 0,000 mm 0,0 UV-I 0 W/m 10,8 C 12,8 C 12,9 km/h (3 Bft) 94,12 %
28.09.2017 23:12 13,8 C 13,9 C 82 % 1024,9 hPa 0,0 l/m 9,9 km/h (2 Bft) O-NO 75 0 min 0,000 mm 0,0 UV-I 0 W/m 10,8 C 11,8 C 14,5 km/h (3 Bft) 94,74 %
28.09.2017 23:14 13,8 C 13,9 C 82 % 1024,9 hPa 0,0 l/m 8,4 km/h (2 Bft) O 84 0 min 0,000 mm 0,0 UV-I 0 W/m 10,8 C 12,6 C 11,3 km/h (2 Bft) 96,23 %
28.09.2017 23:16 13,8 C 13,9 C 82 % 1024,9 hPa 0,0 l/m 6,7 km/h (2 Bft) O-NO 69 0 min 0,000 mm 0,0 UV-I 0 W/m 10,8 C 13,6 C 11,3 km/h (2 Bft) 92,11 %
28.09.2017 23:18 13,7 C 13,9 C 82 % 1024,9 hPa 0,0 l/m 8,7 km/h (2 Bft) O 84 0 min 0,000 mm 0,0 UV-I 0 W/m 10,7 C 12,3 C 11,3 km/h (2 Bft) 94,00 %
28.09.2017 23:20 13,6 C 13,9 C 82 % 1024,9 hPa 0,0 l/m 8,2 km/h (2 Bft) O 82 0 min 0,000 mm 0,0 UV-I 0 W/m 10,6 C 12,5 C 16,1 km/h (3 Bft) 97,73 %
28.09.2017 23:22 13,6 C 13,9 C 82 % 1024,9 hPa 0,0 l/m 10,2 km/h (2 Bft) O 94 0 min 0,000 mm 0,0 UV-I 0 W/m 10,6 C 11,5 C 14,5 km/h (3 Bft) 98,11 %
28.09.2017 23:24 13,6 C 13,9 C 82 % 1024,9 hPa 0,0 l/m 9,7 km/h (2 Bft) O-NO 78 0 min 0,000 mm 0,0 UV-I 0 W/m 10,6 C 11,7 C 14,5 km/h (3 Bft) 97,73 %
28.09.2017 23:26 13,6 C 13,9 C 82 % 1024,9 hPa 0,0 l/m 7,3 km/h (2 Bft) O-NO 69 0 min 0,000 mm 0,0 UV-I 0 W/m 10,6 C 13,0 C 11,3 km/h (2 Bft) 96,23 %
28.09.2017 23:28 13,6 C 13,9 C 82 % 1024,9 hPa 0,0 l/m 9,4 km/h (2 Bft) O-NO 67 0 min 0,000 mm 0,0 UV-I 0 W/m 10,6 C 11,9 C 14,5 km/h (3 Bft) 97,87 %
28.09.2017 23:30 13,6 C 13,9 C 82 % 1024,9 hPa 0,0 l/m 7,5 km/h (2 Bft) O-NO 71 0 min 0,000 mm 0,0 UV-I 0 W/m 10,6 C 12,9 C 9,7 km/h (2 Bft) 97,87 %
28.09.2017 23:32 13,5 C 13,9 C 82 % 1024,9 hPa 0,0 l/m 7,5 km/h (2 Bft) O-NO 66 0 min 0,000 mm 0,0 UV-I 0 W/m 10,5 C 12,8 C 11,3 km/h (2 Bft) 92,11 %
28.09.2017 23:34 13,4 C 13,9 C 82 % 1024,9 hPa 0,0 l/m 6,9 km/h (2 Bft) O-NO 67 0 min 0,000 mm 0,0 UV-I 0 W/m 10,4 C 13,1 C 11,3 km/h (2 Bft) 98,21 %
28.09.2017 23:36 13,3 C 13,9 C 83 % 1024,9 hPa 0,0 l/m 6,8 km/h (2 Bft) O-NO 60 0 min 0,000 mm 0,0 UV-I 0 W/m 10,5 C 13,1 C 14,5 km/h (3 Bft) 97,14 %
28.09.2017 23:38 13,3 C 13,9 C 83 % 1024,8 hPa 0,0 l/m 7,1 km/h (2 Bft) O-NO 71 0 min 0,000 mm 0,0 UV-I 0 W/m 10,5 C 12,9 C 9,7 km/h (2 Bft) 94,64 %
28.09.2017 23:40 13,2 C 13,9 C 83 % 1024,8 hPa 0,0 l/m 8,0 km/h (2 Bft) O-NO 75 0 min 0,000 mm 0,0 UV-I 0 W/m 10,4 C 12,2 C 12,9 km/h (3 Bft) 100,00 %
28.09.2017 23:43 13,2 C 13,9 C 83 % 1024,8 hPa 0,0 l/m 7,6 km/h (2 Bft) O-NO 67 0 min 0,000 mm 0,0 UV-I 0 W/m 10,4 C 12,5 C 11,3 km/h (2 Bft) 97,37 %
28.09.2017 23:44 13,2 C 13,9 C 83 % 1024,8 hPa 0,0 l/m 6,8 km/h (2 Bft) O 93 0 min 0,000 mm 0,0 UV-I 0 W/m 10,4 C 13,0 C 9,7 km/h (2 Bft) 95,83 %
28.09.2017 23:46 13,2 C 13,9 C 83 % 1024,8 hPa 0,0 l/m 7,2 km/h (2 Bft) O-NO 70 0 min 0,000 mm 0,0 UV-I 0 W/m 10,4 C 12,7 C 9,7 km/h (2 Bft) 97,56 %
28.09.2017 23:48 13,2 C 13,9 C 83 % 1024,8 hPa 0,0 l/m 8,7 km/h (2 Bft) O 96 0 min 0,000 mm 0,0 UV-I 0 W/m 10,4 C 11,8 C 12,9 km/h (3 Bft) 100,00 %
28.09.2017 23:50 13,2 C 13,9 C 83 % 1024,8 hPa 0,0 l/m 6,8 km/h (2 Bft) O-NO 70 0 min 0,000 mm 0,0 UV-I 0 W/m 10,4 C 13,0 C 11,3 km/h (2 Bft) 100,00 %
28.09.2017 23:52 13,2 C 13,9 C 83 % 1024,8 hPa 0,0 l/m 6,8 km/h (2 Bft) O 84 0 min 0,000 mm 0,0 UV-I 0 W/m 10,4 C 13,0 C 9,7 km/h (2 Bft) 100,00 %
28.09.2017 23:54 13,1 C 13,9 C 83 % 1024,8 hPa 0,0 l/m 7,8 km/h (2 Bft) O-NO 74 0 min 0,000 mm 0,0 UV-I 0 W/m 10,3 C 12,2 C 12,9 km/h (3 Bft) 100,00 %
28.09.2017 23:56 13,1 C 13,9 C 83 % 1024,8 hPa 0,0 l/m 8,9 km/h (2 Bft) O 92 0 min 0,000 mm 0,0 UV-I 0 W/m 10,3 C 11,6 C 12,9 km/h (3 Bft) 100,00 %
28.09.2017 23:58 13,1 C 13,9 C 83 % 1024,7 hPa 0,0 l/m 6,8 km/h (2 Bft) O-NO 70 0 min 0,000 mm 0,0 UV-I 0 W/m 10,3 C 12,9 C 9,7 km/h (2 Bft) 100,00 %
_ Min-Zeit 07:12 00:00 15:56 00:00 - 00:22 - - - - - - 07:14 07:14 00:22 19:26
Minimum _ 9,4 C 13,3 C 62 % 1023,0 hPa - 0,0 km/h (0 Bft) - - - - - - 8,9 C 9,4 C 0,0 km/h (0 Bft) 88,57 %
_ Max-Zeit 17:20 16:14 07:42 10:52 05:56 22:50 - - 12:33 14:00 12:46 12:00 15:28 15:36 22:46 00:00
Maximum _ 20,3 C 13,9 C 98 % 1026,0 hPa 0,2 l/m 12,6 km/h
O (3 Bft)
- - 3 min 0,356 mm 3,1 UV-I 680 W/m 14,0 C 20,2 C 17,7 km/h
O (3 Bft)
100,00 %
Durchschnitt _ 13,6 C 13,5 C 87 % 1024,6 hPa #0,2 l/m 3,2 km/h (1 Bft) SW - #4:52 h #1,905 mm 1,7 UV-I 265 W/m 11,4 C 13,5 C 5,5 km/h (1 Bft) 98,10 %